ECMWFNIL_sfc_temp_000.txt.gz
Temp
83 82 82 82 81 80 80 79 80 79 79 80 80 80 80 80 81 81 81 81 81 80 80 80 80 80 80 81 81 80 79 78 78 79 78 76 73 71 73 74 77 75
83 82 81 81 81 80 81 81 80 80 79 80 80 81 80 81 81 81 81 80 81 80 80 80 80 80 79 80 80 79 79 78 78 80 78 77 77 76 75 77 77 77
83 82 82 81 82 81 81 81 80 80 80 81 80 81 80 81 81 81 81 80 80 80 80 80 80 80 79 79 79 79 79 79 78 79 78 77 78 76 77 78 76 75
82 82 82 81 82 81 81 81 81 81 81 80 81 81 81 81 81 80 80 80 80 79 80 80 80 80 80 79 79 78 79 79 79 79 78 77 77 76 75 76 77 76
82 82 82 82 82 81 81 80 80 81 80 80 81 81 80 80 80 80 80 80 80 80 80 80 80 80 80 79 79 78 78 78 79 78 77 77 77 77 76 76 76 75
82 82 82 81 81 81 81 81 80 80 80 80 80 81 81 80 80 80 80 80 81 82 80 80 80 81 80 79 79 78 78 78 78 78 77 76 76 77 78 76 75 74
82 82 81 82 82 82 81 81 80 80 81 81 81 80 80 80 79 79 79 79 80 79 79 79 78 79 80 78 78 78 78 78 78 77 76 77 76 76 77 76 75 74
82 83 83 82 82 82 81 81 81 81 81 80 80 80 80 80 79 80 80 79 79 79 78 79 78 78 80 79 78 77 77 78 77 73 74 74 75 74 75 75 75 74
82 82 82 82 81 82 82 83 84 83 83 80 80 81 81 80 80 80 79 79 79 78 78 78 78 78 79 79 78 77 77 74 74 74 72 73 73 73 74 74 73 72
82 82 82 83 82 83 82 84 84 84 84 82 81 82 80 80 80 80 79 79 78 78 78 78 78 79 78 78 78 77 76 73 72 73 74 74 74 73 74 73 72 71
82 83 82 82 82 85 83 85 87 85 83 82 81 80 80 80 80 80 79 79 79 78 78 78 79 79 78 78 79 78 76 75 75 75 75 75 74 73 71 72 71 70
82 82 82 82 82 83 83 83 82 82 83 85 84 83 82 82 81 81 79 79 79 79 79 79 79 79 78 78 78 78 77 76 76 75 75 75 74 73 72 72 70 69
83 83 83 83 83 82 83 83 84 85 85 82 83 83 83 82 82 81 81 79 79 80 80 79 79 79 78 78 77 77 76 75 75 75 74 74 73 72 72 72 71 69
83 83 83 83 83 82 82 82 82 81 80 81 82 82 83 82 82 81 82 82 81 80 80 80 79 79 78 77 77 76 76 76 75 74 74 73 72 71 71 71 69 68
83 83 83 83 82 82 81 81 80 79 80 81 81 81 82 82 82 82 81 80 81 80 80 80 80 79 79 78 76 75 76 75 75 74 73 72 71 70 71 71 69 66
83 82 82 82 82 81 81 81 80 80 81 81 81 82 81 81 81 81 82 81 80 79 78 80 79 79 73 66 67 73 74 74 74 74 73 72 71 69 69 69 68 65
83 82 82 81 81 81 80 80 79 80 81 80 80 80 80 80 80 80 81 82 81 80 80 79 79 78 69 64 63 63 70 74 73 73 74 72 71 70 67 66 66 65
82 82 81 81 81 80 80 80 80 80 80 80 80 80 80 81 80 80 80 80 80 81 80 79 80 73 65 63 63 63 64 70 73 73 73 73 72 70 68 67 65 65
82 82 81 81 81 81 80 80 79 79 79 79 80 81 81 79 79 80 80 80 80 79 79 80 81 69 63 62 62 62 62 64 73 74 73 74 72 71 69 68 65 64
82 82 81 81 81 80 80 80 79 79 80 81 81 81 80 79 80 79 80 80 80 79 79 80 80 69 63 62 61 60 60 62 72 74 74 74 73 71 70 67 65 63
83 82 81 81 81 80 80 79 79 80 80 81 81 80 80 79 79 79 80 80 81 81 80 80 81 67 63 61 60 57 58 61 72 74 74 74 74 72 69 67 65 65
83 82 82 82 81 81 80 79 79 80 79 80 80 81 81 81 81 81 80 80 80 81 80 79 81 63 61 60 58 57 57 67 74 74 74 74 73 72 69 66 66 65
84 83 82 82 81 81 80 80 79 79 80 81 80 79 80 80 81 81 80 77 74 74 75 77 81 67 57 57 56 56 60 72 75 75 73 73 72 71 69 67 66 66
84 83 82 81 81 80 80 80 81 81 81 81 79 78 79 81 79 78 79 77 75 75 75 73 75 69 54 55 53 55 61 73 74 73 73 72 72 71 69 67 65 65
84 83 82 82 81 81 82 80 80 79 80 80 78 77 75 74 75 75 73 73 77 78 74 74 76 70 54 55 53 55 61 72 73 73 72 72 71 69 69 67 66 65
84 82 82 82 82 82 82 79 77 79 79 80 79 79 77 77 77 75 73 73 75 75 74 77 76 74 73 53 53 53 56 69 74 74 72 72 71 69 67 67 67 66

ECMWFNIL_sfc_temp_003.txt.gz
Temp
85 85 83 83 83 82 82 82 82 81 81 82 81 82 81 82 83 82 83 82 82 82 82 81 81 81 81 81 80 80 80 79 79 79 79 79 77 78 78 78 77 76
85 85 84 84 83 83 82 83 82 81 81 81 81 82 82 82 83 83 82 82 82 82 82 82 81 81 80 80 80 79 79 79 79 81 78 78 78 78 78 78 78 78
85 85 84 83 83 83 83 83 82 82 82 82 82 81 82 83 82 82 82 82 81 81 81 81 81 81 81 80 80 79 79 79 78 80 79 78 78 77 77 78 78 78
85 84 84 84 84 83 83 82 83 83 83 82 82 83 83 83 82 82 82 82 81 81 81 81 81 81 81 80 80 79 79 78 79 79 78 78 78 77 77 77 78 77
85 84 84 84 84 83 83 82 82 83 83 82 83 82 82 81 81 81 81 82 81 81 82 81 82 81 80 80 80 78 79 78 79 79 77 77 77 77 77 76 75 76
85 84 84 83 83 82 82 83 83 83 82 82 82 83 82 82 81 81 81 81 82 82 82 81 81 81 81 80 80 78 78 79 79 78 77 77 77 78 78 77 76 75
84 83 83 84 83 83 82 82 83 82 83 83 82 81 82 81 80 80 80 81 81 81 81 80 79 79 80 79 79 78 78 77 78 78 77 76 76 76 77 77 75 75
84 85 85 84 83 83 82 82 83 83 83 83 82 82 82 82 81 81 81 81 81 80 80 80 80 79 81 79 78 78 78 79 78 77 76 76 76 74 75 76 76 74
85 84 84 83 83 83 84 85 86 85 85 83 83 84 83 82 81 81 80 80 79 80 80 80 79 79 80 79 78 77 77 77 78 77 76 75 75 74 75 75 74 73
84 84 84 85 85 84 84 86 86 85 86 85 84 84 83 82 82 81 81 80 79 79 79 79 80 80 80 80 79 78 76 77 77 76 76 76 75 75 75 74 74 73
84 84 84 83 83 86 86 87 89 89 86 84 83 83 84 83 83 83 81 81 80 79 78 78 77 78 79 80 80 79 78 77 77 76 76 76 75 75 74 74 73 73
84 84 84 84 85 85 85 85 85 84 85 86 85 84 83 84 83 83 82 81 81 81 80 78 77 74 71 72 76 79 78 77 77 77 77 76 76 76 75 75 74 73
85 84 84 85 84 84 85 85 87 88 87 83 83 84 84 84 85 83 83 82 81 81 82 80 78 76 72 70 69 70 75 77 77 76 76 76 76 76 76 76 75 74
85 85 85 84 84 84 84 83 84 83 82 81 82 82 84 84 85 83 84 83 82 81 81 82 80 77 75 72 71 70 70 76 76 76 76 76 76 76 76 76 76 75
85 85 85 85 84 83 83 82 82 82 81 81 81 82 83 84 84 83 81 80 81 81 81 81 80 78 76 75 74 73 76 77 76 75 75 75 75 76 76 76 75 74
84 84 83 83 83 82 82 82 82 82 82 81 81 82 82 82 81 81 82 81 81 81 81 81 80 78 74 70 72 76 77 76 75 74 75 75 74 74 75 75 75 74
84 83 83 82 82 82 82 82 82 82 81 80 80 81 81 80 81 81 82 82 81 81 81 80 80 77 66 65 65 68 74 75 74 75 76 75 75 74 73 73 74 74
84 84 83 82 82 81 81 82 82 81 80 80 80 81 81 82 81 81 80 80 81 81 81 80 81 70 62 64 65 65 67 73 75 75 75 75 75 74 73 73 73 73
84 83 83 82 82 82 82 82 81 81 80 81 81 81 82 80 80 80 80 80 81 80 79 78 80 64 62 63 64 63 64 67 74 74 75 75 75 75 74 73 73 72
84 83 82 82 82 82 82 81 81 80 81 82 82 81 80 80 80 80 80 79 75 74 74 77 76 64 60 62 62 62 62 65 74 74 74 75 75 75 74 74 73 72
84 83 82 82 82 82 81 81 81 80 81 81 82 81 80 79 80 79 80 76 73 76 77 78 80 63 59 60 60 60 61 64 73 73 73 74 75 75 73 74 74 73
84 83 82 82 82 82 81 81 81 80 80 81 81 82 82 81 81 81 80 80 79 79 78 77 80 66 62 60 59 59 60 70 73 73 73 74 75 75 73 72 74 74
85 84 82 81 81 81 81 81 81 81 81 81 80 81 81 81 80 80 80 80 79 78 77 77 78 71 63 59 58 58 61 72 74 74 73 73 74 75 74 75 75 74
85 84 83 82 81 80 81 82 83 82 82 82 81 80 80 81 81 79 80 80 79 78 81 78 79 71 58 58 55 55 59 71 72 72 72 70 69 73 75 74 73 64
86 85 84 83 81 82 83 82 82 81 82 82 82 81 80 80 80 79 80 80 82 82 74 76 79 75 64 61 58 56 60 70 71 70 69 68 68 71 75 74 72 70
85 84 83 82 82 82 82 82 82 82 82 81 81 81 81 80 82 81 79 80 81 81 81 80 79 78 75 61 56 56 58 66 71 69 69 69 70 71 73 74 73 73

ECMWFNIL_sfc_temp_006.txt.gz
Temp
82 81 80 80 79 79 78 79 78 79 78 79 78 79 79 80 80 80 80 80 80 80 79 79 79 78 79 78 78 77 76 76 76 77 77 76 75 75 75 75 74 73
82 82 82 80 79 80 78 79 79 78 78 78 79 79 80 79 80 80 80 80 80 79 79 79 79 78 78 77 77 77 76 76 75 78 76 76 75 75 75 75 74 74
82 82 81 80 80 80 81 81 79 80 79 80 80 79 80 81 80 80 79 79 78 79 79 79 78 78 78 77 77 77 76 76 75 76 75 75 75 74 74 76 74 74
82 82 82 82 82 82 81 79 79 79 80 79 80 81 81 81 80 79 79 79 78 78 79 79 78 78 78 78 77 76 77 76 76 76 75 75 75 74 74 74 74 74
82 81 81 82 82 81 81 80 80 80 81 81 81 80 80 80 79 79 78 78 78 78 78 78 79 79 78 77 77 76 76 76 76 76 74 74 75 75 75 74 73 73
82 82 81 81 81 80 80 79 80 81 80 81 80 81 80 80 79 79 78 78 79 79 79 78 78 78 78 77 76 76 76 75 76 76 75 74 74 75 75 74 73 72
81 81 81 81 81 81 80 80 80 80 80 80 80 80 80 79 78 78 78 78 78 77 78 77 77 77 77 76 76 75 75 75 76 75 74 74 74 74 75 74 73 72
82 82 81 81 81 80 79 80 79 79 80 80 79 79 79 80 79 79 79 78 78 77 77 77 77 76 77 76 75 74 74 76 76 75 74 73 74 73 73 74 73 71
82 82 81 81 81 81 82 82 82 80 80 79 80 81 81 80 80 79 78 78 77 76 76 76 76 76 76 76 75 74 74 75 75 74 74 73 73 73 73 73 72 71
81 82 82 82 82 81 81 83 84 82 82 82 83 82 81 80 80 79 78 77 77 76 76 76 77 76 76 76 75 74 73 73 73 73 73 74 73 73 73 72 72 71
82 82 81 81 82 84 84 85 86 86 83 81 81 81 81 80 80 80 79 78 78 78 77 77 77 77 76 75 75 74 73 72 72 72 73 73 74 73 74 73 72 71
81 82 82 82 82 82 83 84 84 82 82 84 83 82 81 81 79 79 79 78 78 78 77 77 77 77 76 74 75 74 72 72 72 73 73 73 74 74 74 73 72 72
82 81 81 83 81 81 82 83 84 85 85 81 82 82 81 80 81 79 79 79 78 79 78 77 77 77 75 74 74 73 72 71 71 72 72 72 74 74 75 74 74 73
82 82 82 81 82 81 82 82 82 81 81 80 80 79 81 81 81 80 80 79 78 78 77 77 77 77 76 75 74 73 72 72 72 72 72 73 73 74 74 74 74 74
82 83 82 82 81 81 81 80 80 80 80 79 79 79 80 81 81 80 79 78 78 77 77 78 78 77 78 76 74 73 73 73 72 72 72 72 72 73 73 73 73 73
81 81 81 81 81 80 79 80 80 80 80 79 79 79 79 79 78 78 80 79 78 78 77 78 77 77 72 70 71 73 73 73 72 72 73 72 71 71 72 73 74 74
80 80 80 80 80 80 80 80 79 79 79 78 78 78 78 77 77 78 80 80 78 78 77 78 77 75 70 66 66 68 72 73 73 72 73 72 72 71 70 71 72 72
80 80 79 79 79 79 79 79 79 79 78 78 78 78 77 78 78 78 78 78 78 78 78 77 76 70 64 65 65 66 68 72 73 73 73 72 72 71 71 71 71 72
80 80 79 79 79 79 79 79 78 78 78 78 78 78 78 77 77 78 77 77 77 76 75 76 77 69 64 62 64 64 65 67 72 72 72 72 72 71 71 70 70 70
80 80 79 79 79 79 79 79 78 78 79 80 79 78 77 77 78 77 77 76 76 75 74 76 76 69 63 62 62 62 63 65 70 71 72 72 71 71 71 71 71 69
80 80 79 79 79 79 79 78 78 77 78 78 79 78 77 76 76 77 77 77 76 77 76 76 78 69 61 61 60 60 61 63 69 71 71 71 71 70 70 72 70 65
81 80 79 79 79 79 79 78 78 77 77 77 76 77 77 78 78 77 77 77 76 76 77 75 78 62 61 60 58 58 59 66 69 70 70 70 70 70 71 70 66 63
81 80 79 78 79 78 78 78 78 78 77 75 75 76 77 77 76 77 77 77 76 76 75 74 76 67 60 59 60 57 60 68 69 70 70 70 69 71 70 69 67 65
81 80 79 79 78 78 78 78 79 78 77 76 75 76 77 78 78 77 77 77 77 76 78 75 76 72 62 59 57 57 62 68 69 69 69 69 69 70 69 68 68 68
82 80 80 80 79 79 80 78 78 77 77 78 78 77 77 77 77 76 77 76 78 79 76 76 77 74 60 58 58 58 62 68 68 68 68 69 69 68 69 69 70 69
81 80 79 80 80 79 78 78 79 79 78 77 77 79 78 78 78 77 76 76 78 78 80 78 77 76 69 58 58 56 56 64 67 68 67 68 68 68 68 69 69 71

ECMWFNIL_sfc_temp_009.txt.gz
Temp
74 73 72 71 70 72 71 69 70 70 69 69 71 70 70 71 74 73 72 72 73 73 73 72 73 72 73 71 71 71 70 70 69 69 69 70 69 68 69 68 68 67
74 75 75 73 73 73 70 70 69 70 69 68 70 70 70 72 72 73 72 73 73 72 71 72 72 72 70 70 70 69 69 69 68 72 70 69 68 68 68 68 68 67
74 74 74 72 71 71 72 71 71 69 69 71 71 71 71 72 71 72 72 72 71 71 71 71 70 71 71 70 69 69 69 68 68 69 69 68 68 68 67 68 67 68
74 74 74 73 72 72 72 72 70 70 70 72 70 72 73 73 72 72 71 74 71 70 70 70 70 70 70 70 70 69 69 69 69 69 68 68 68 68 67 67 68 67
74 74 74 73 73 72 72 71 71 71 71 71 72 71 72 71 70 70 70 70 70 70 70 70 70 70 70 69 69 68 69 69 69 69 68 67 68 69 68 68 67 67
75 74 74 73 72 72 72 71 70 71 71 71 70 71 70 71 69 70 70 69 70 71 70 70 70 70 70 70 70 69 69 70 69 69 69 68 68 69 70 69 67 65
74 74 74 74 73 72 71 71 71 73 72 71 71 71 70 71 70 70 70 70 70 70 70 69 69 69 69 70 69 69 68 68 68 68 68 67 68 68 69 68 67 66
74 74 74 73 73 72 72 72 72 72 72 70 70 71 71 72 71 71 71 71 70 70 70 70 69 69 70 70 69 68 67 70 70 68 67 66 67 66 67 68 67 65
74 74 74 73 73 72 73 73 73 73 72 72 72 72 72 72 72 72 71 71 70 70 70 70 70 70 70 69 68 68 67 68 69 67 67 66 66 66 67 66 66 65
74 74 75 75 74 73 73 75 75 74 74 73 73 73 72 72 72 72 71 70 70 70 70 70 70 69 70 69 69 68 68 67 66 66 66 66 66 67 67 66 66 65
74 75 75 74 74 74 75 76 77 77 73 73 73 72 71 70 70 71 70 70 71 70 70 70 70 70 69 69 69 69 69 68 67 66 66 66 66 67 69 67 66 66
75 75 75 74 74 74 75 76 77 72 72 72 71 71 71 71 70 69 70 69 68 69 68 68 67 68 68 69 69 69 68 67 67 66 66 66 66 67 67 67 67 66
75 75 75 75 74 74 74 75 74 76 76 72 73 73 74 72 71 70 70 70 69 69 70 70 69 68 68 68 69 68 68 66 66 66 66 66 66 67 68 67 67 67
76 76 75 75 75 74 74 74 73 71 70 71 71 70 71 70 70 70 70 70 69 70 69 69 69 68 68 67 68 68 67 67 66 66 66 66 66 66 67 67 67 68
75 76 75 75 75 73 73 73 72 70 70 70 71 71 72 71 71 71 69 69 69 69 69 69 70 70 69 69 68 68 68 67 67 67 66 65 65 65 66 66 66 67
75 75 75 74 74 73 72 72 71 71 70 69 70 70 69 70 70 70 71 70 70 69 68 70 70 71 71 71 70 69 68 68 68 66 66 65 65 65 66 66 66 66
75 74 74 74 73 72 71 71 71 71 70 69 69 69 70 70 71 70 71 72 71 69 69 70 71 71 68 66 67 69 68 66 66 66 66 66 65 65 64 65 65 65
74 73 73 73 72 71 71 71 70 70 69 69 69 70 70 71 70 70 70 70 70 69 68 69 69 69 65 64 65 65 67 66 66 66 67 66 65 65 65 65 64 65
73 73 72 71 71 71 71 70 70 70 69 69 70 71 71 70 70 70 69 69 69 68 68 69 68 68 64 64 64 64 64 65 64 65 65 65 65 65 65 64 63 64
73 73 72 72 71 71 71 70 70 70 71 71 71 71 70 70 70 69 69 68 69 68 68 68 67 68 64 62 62 62 62 63 64 64 65 65 65 66 66 65 63 63
73 72 72 71 71 71 70 70 70 70 71 71 72 71 70 69 69 68 68 69 69 69 68 68 70 66 64 62 60 60 61 63 62 64 64 65 65 66 65 65 63 63
73 72 71 71 71 71 71 70 70 70 70 71 71 70 69 69 68 68 69 68 68 69 68 66 69 66 63 60 58 59 60 63 62 62 62 63 64 65 65 65 64 62
73 73 72 71 71 71 70 71 70 70 70 71 70 69 68 68 68 69 69 70 68 68 67 66 66 61 59 59 58 58 60 62 62 63 63 63 64 65 64 65 64 63
74 73 73 72 71 71 71 71 71 71 71 71 69 68 68 69 69 69 69 68 68 68 68 65 65 60 56 55 56 57 60 62 62 63 62 62 63 64 64 64 64 69
75 74 73 73 72 72 73 72 71 71 71 71 70 69 68 67 69 69 68 68 68 66 68 64 62 62 57 56 56 56 59 62 62 62 61 61 62 63 63 64 63 66
75 75 74 74 73 72 72 72 72 71 70 70 67 68 68 67 69 69 67 64 64 63 64 63 63 63 62 57 55 55 56 60 61 60 60 62 62 63 63 62 62 63

ECMWFNIL_sfc_temp_012.txt.gz
Temp
72 71 70 70 68 69 68 68 67 68 66 66 67 66 66 69 69 69 69 68 68 68 69 68 69 69 71 68 68 68 67 67 67 66 66 66 65 65 66 65 64 64
71 72 73 71 71 72 69 69 68 68 67 67 67 67 67 68 69 69 68 68 69 68 67 68 68 68 68 68 67 67 66 66 67 69 66 65 66 64 65 64 64 63
71 71 71 70 70 70 70 69 69 68 68 68 68 68 69 70 68 67 68 68 67 67 67 68 67 68 68 67 67 67 68 66 66 66 67 66 66 66 65 65 64 64
71 72 72 71 70 70 69 69 68 68 68 68 68 69 70 71 69 68 67 71 67 67 67 67 67 67 67 67 67 66 67 66 67 66 66 66 66 67 66 66 66 65
71 71 71 71 70 71 70 70 69 69 69 69 68 68 70 69 68 67 67 67 66 67 66 67 66 66 66 66 66 66 67 67 67 66 66 66 66 67 67 67 66 65
71 72 71 71 71 70 69 70 70 70 69 68 68 69 68 68 68 68 68 68 68 68 67 66 66 67 66 66 66 67 67 68 67 66 66 66 66 67 68 67 66 65
71 71 71 72 71 70 70 69 70 71 68 69 67 68 68 67 68 68 68 68 68 68 68 67 66 67 67 66 66 66 66 66 66 66 66 66 66 66 66 66 65 65
71 71 72 71 71 69 70 70 70 70 69 67 68 68 67 68 68 69 68 67 67 67 67 67 67 67 67 66 67 66 66 67 67 66 65 65 64 65 65 66 66 64
72 71 71 70 70 69 71 71 71 70 69 69 68 69 68 69 69 69 68 67 67 67 67 67 67 67 67 66 66 66 66 66 67 66 65 65 65 65 65 65 64 64
72 71 71 72 71 70 71 72 72 70 69 69 69 69 69 69 69 68 68 67 67 67 67 67 67 66 66 66 67 67 67 66 66 65 65 65 65 65 64 64 64 64
72 72 72 72 72 71 72 72 73 72 70 70 70 69 69 69 69 68 68 67 68 68 68 67 67 67 66 66 67 67 67 67 66 65 65 65 65 65 66 65 64 64
72 72 72 72 72 72 72 72 73 72 70 71 70 70 70 69 69 68 68 67 67 67 67 66 66 66 66 67 67 67 67 67 66 65 65 65 65 65 64 65 64 64
72 72 72 72 72 71 72 72 73 73 72 71 71 70 70 68 67 66 66 66 66 65 66 66 65 65 65 65 65 66 66 66 66 65 65 65 65 65 65 65 64 64
72 72 72 72 73 72 72 72 72 71 70 70 70 69 70 69 68 67 66 66 65 65 66 66 64 64 63 64 65 65 66 66 66 65 65 64 65 65 65 65 65 65
71 73 73 73 73 72 72 72 71 70 69 70 70 70 70 69 68 67 66 65 64 65 66 66 67 67 67 66 65 65 65 66 66 66 65 64 64 64 64 64 64 64
71 72 72 72 72 72 72 72 71 70 69 69 69 69 69 69 67 67 67 67 67 66 65 67 68 68 69 70 69 68 66 66 66 66 65 64 64 64 63 63 63 63
71 71 71 70 71 72 72 71 71 71 69 69 69 68 68 68 68 67 68 68 67 67 67 67 68 69 69 66 67 69 68 66 66 65 65 64 64 63 63 64 64 64
70 70 69 68 70 71 72 71 71 70 69 68 68 67 67 67 67 67 68 68 68 67 67 67 68 69 66 65 66 66 68 67 65 65 65 64 64 63 63 63 63 63
69 68 67 68 70 71 71 70 69 69 69 68 68 68 68 67 67 67 67 67 67 67 68 68 68 67 65 64 64 64 65 66 64 64 63 64 64 63 63 63 63 63
68 68 67 69 70 71 71 70 69 69 70 70 69 68 68 67 67 67 67 67 67 67 67 68 67 66 64 63 62 63 64 64 64 63 63 63 63 63 63 63 63 62
68 67 68 69 71 71 70 70 70 69 69 69 69 69 68 67 67 67 67 68 67 67 67 68 69 65 62 61 59 59 60 63 62 63 63 62 62 62 62 63 62 62
68 68 69 70 70 70 70 70 69 69 69 69 69 68 68 68 67 67 67 67 67 67 68 67 65 59 61 60 59 58 59 62 61 61 61 61 61 62 62 62 62 62
69 70 70 70 70 69 69 70 69 68 69 69 68 68 67 67 67 67 67 67 67 66 64 64 62 59 58 58 58 57 58 60 59 60 60 60 61 62 62 62 62 62
70 71 71 71 70 70 70 70 71 70 70 69 68 68 67 68 67 66 66 65 65 65 65 62 61 60 57 54 56 56 59 59 59 59 60 60 60 60 61 61 62 67
71 72 72 72 71 72 72 71 71 70 70 69 69 69 68 67 67 66 64 63 64 64 69 63 60 60 57 55 55 55 58 58 58 58 58 59 59 59 60 61 61 63
73 72 72 73 72 72 72 71 71 70 69 69 68 68 67 65 66 64 63 62 62 62 63 61 60 61 60 55 55 54 55 57 57 56 57 59 58 60 60 59 59 59

ECMWFNIL_sfc_temp_015.txt.gz
Temp
70 70 69 68 67 68 67 66 66 67 67 65 66 67 67 68 69 68 68 68 68 67 67 66 68 67 69 67 66 66 66 65 66 65 64 64 64 63 65 64 62 63
70 70 71 69 68 70 67 68 67 67 66 66 67 66 67 68 68 68 67 67 67 67 66 66 66 67 67 67 66 65 65 64 65 67 65 64 64 63 64 64 63 62
69 69 69 68 69 68 67 67 67 67 67 67 67 67 67 68 68 66 66 66 67 67 66 66 65 66 66 65 65 65 66 64 65 65 65 65 65 64 64 64 63 63
69 70 70 69 69 68 67 67 66 67 67 67 66 68 68 69 67 66 65 69 66 66 65 65 65 65 65 66 65 65 65 65 66 65 64 65 65 65 64 64 65 64
70 70 70 69 69 69 67 68 67 66 67 68 68 66 68 67 66 65 66 66 66 65 65 65 65 65 65 65 64 65 65 65 65 64 64 64 65 65 66 65 64 64
70 70 70 69 69 68 67 68 68 67 67 67 67 68 67 67 66 66 66 66 66 66 66 65 65 65 65 64 63 64 65 65 65 64 64 64 65 65 66 65 64 64
70 69 69 69 69 68 68 68 68 69 67 68 67 67 67 66 66 66 66 66 66 67 66 66 65 65 65 64 63 64 64 64 64 64 64 64 64 64 64 64 64 64
71 71 70 69 69 68 69 68 68 68 68 67 67 67 66 67 66 67 67 66 66 66 66 66 65 65 65 64 64 64 64 65 65 64 64 64 63 63 64 65 64 64
72 70 70 69 69 68 69 69 69 68 68 68 67 67 66 67 67 66 66 65 65 66 65 65 65 65 65 64 64 65 65 65 65 65 64 64 63 63 64 63 62 63
70 69 70 70 70 69 70 70 70 69 68 68 68 67 66 67 66 66 66 65 65 65 65 65 65 65 65 64 65 65 65 65 65 64 64 64 64 64 64 63 63 63
68 68 69 69 70 70 71 71 71 71 69 69 68 67 67 66 66 66 65 65 66 66 66 65 66 66 65 65 65 65 65 65 65 64 64 64 64 64 65 64 63 63
68 70 70 71 71 71 71 72 72 71 70 70 69 69 67 67 66 66 67 66 66 66 66 66 66 65 65 65 65 65 64 64 65 64 64 64 64 64 63 63 63 63
69 70 69 71 71 71 71 72 72 72 72 70 70 70 69 68 67 66 67 67 67 66 66 65 65 65 64 64 64 64 64 64 64 64 64 64 64 64 64 64 63 63
68 68 70 69 70 70 70 71 71 71 70 70 70 69 69 69 68 67 68 67 67 66 66 65 65 64 63 63 64 64 64 64 64 64 64 63 63 63 64 64 64 64
68 69 69 69 70 70 70 70 69 70 70 70 70 70 70 70 69 68 67 66 65 65 65 65 65 65 65 65 65 64 63 64 64 64 64 63 63 63 63 63 63 64
68 69 69 68 68 68 69 69 69 69 70 69 69 70 69 69 68 68 69 68 67 66 65 65 65 66 68 68 68 67 64 64 64 63 63 63 63 63 63 63 63 63
68 68 68 68 69 69 69 69 69 70 70 69 69 69 69 69 69 68 68 68 68 68 66 66 66 67 68 65 66 68 68 65 64 64 63 63 63 63 63 64 63 63
67 68 68 68 68 68 69 68 69 69 69 69 69 69 68 69 68 68 68 67 67 67 67 67 67 68 65 64 65 65 67 67 65 64 64 63 63 63 63 63 63 63
68 68 68 67 67 69 70 69 68 68 68 68 68 69 68 67 67 67 67 67 67 67 67 67 67 67 64 64 64 64 64 65 65 64 63 63 62 63 62 62 62 62
67 68 67 67 68 68 68 66 66 67 68 70 70 69 68 67 67 67 67 66 67 66 67 67 66 66 63 62 61 61 62 63 62 61 62 62 62 62 62 62 62 61
67 67 67 67 68 67 66 65 66 67 69 69 69 69 68 67 67 67 67 67 67 67 66 67 68 65 62 61 60 59 60 62 60 62 61 61 61 61 61 61 61 61
66 67 67 68 67 66 66 66 67 68 68 69 69 68 68 68 67 67 67 67 67 66 66 66 67 63 62 61 59 57 59 61 58 58 59 60 60 60 60 60 59 59
67 67 66 66 66 66 66 67 67 68 69 69 68 67 67 66 67 67 67 67 67 66 64 64 64 61 58 57 57 57 60 59 58 58 58 59 59 59 58 58 59 60
68 68 67 66 67 67 67 67 68 69 69 69 68 68 67 67 67 66 66 66 66 65 64 63 64 61 56 55 55 56 59 59 58 58 57 58 58 58 57 58 60 65
68 67 67 67 67 67 68 68 68 68 69 68 68 67 67 66 66 65 64 63 64 65 68 65 61 60 56 55 55 55 58 58 56 56 56 57 57 57 58 58 59 61
68 68 67 68 68 68 68 68 68 68 66 66 66 67 66 64 64 64 63 61 62 63 65 62 60 60 58 53 54 53 55 57 56 55 57 58 57 57 58 58 57 57

ECMWFNIL_sfc_temp_018.txt.gz
Temp
72 71 70 70 69 70 68 68 68 68 68 68 68 68 68 70 70 70 71 70 71 70 70 69 70 70 70 70 69 69 69 68 69 68 67 67 67 67 68 68 67 67
71 71 72 70 69 70 69 69 68 68 68 68 68 68 69 70 70 71 70 70 71 70 70 70 70 70 70 70 69 68 68 68 68 69 67 67 68 67 67 68 68 67
71 71 71 69 69 69 69 69 68 68 68 68 69 69 69 70 70 70 70 70 70 70 69 69 69 70 69 69 69 69 69 68 68 68 68 68 68 67 68 68 67 67
71 71 71 70 70 69 68 68 67 68 68 68 68 69 70 71 70 70 68 71 69 70 69 69 69 69 69 69 68 68 68 68 69 69 68 68 68 68 68 67 68 67
71 70 70 70 70 69 68 68 68 68 68 69 69 69 69 70 69 69 68 69 68 69 69 69 68 68 68 68 68 68 68 68 68 67 67 67 68 68 68 68 67 67
71 70 70 70 70 69 68 69 68 68 68 68 68 69 69 69 69 69 69 69 69 69 69 69 68 68 68 68 67 67 67 68 68 67 67 67 68 68 68 68 67 67
70 69 70 70 70 69 69 69 68 69 68 69 68 68 68 68 68 68 68 69 69 69 69 69 68 68 68 67 67 67 67 67 68 67 67 67 67 67 67 67 67 67
70 71 71 70 70 69 69 68 68 69 69 68 68 69 68 68 68 69 69 68 69 68 69 69 68 68 68 67 67 67 67 68 68 67 66 67 66 66 68 67 67 67
70 70 70 70 69 69 70 69 69 68 69 68 68 68 68 68 69 68 68 68 68 68 68 68 68 68 68 67 67 67 67 68 68 68 67 67 67 67 67 67 66 66
70 70 70 70 70 69 68 68 69 69 69 68 69 69 68 68 68 68 68 68 68 68 68 68 68 68 68 67 67 67 67 67 68 67 67 67 67 68 68 67 67 66
69 69 70 70 69 69 70 71 71 71 69 69 69 69 69 68 68 68 67 67 67 68 67 67 68 68 67 67 67 67 67 67 68 67 67 67 67 67 68 67 67 67
69 69 70 69 69 69 70 71 70 69 68 68 69 69 69 68 68 68 68 67 68 68 68 68 68 68 67 68 68 68 67 67 67 67 67 67 67 67 67 67 67 67
68 69 69 69 69 68 69 70 70 68 69 68 69 70 70 69 69 68 68 68 68 68 68 68 68 68 67 67 67 67 67 67 67 66 66 66 67 67 68 67 67 67
69 68 69 69 69 69 69 69 68 68 67 68 68 68 69 70 69 68 69 69 69 68 69 69 68 67 66 66 66 66 66 66 66 66 66 66 66 67 67 67 67 67
69 69 69 69 70 69 69 68 67 67 67 67 68 69 69 69 69 70 69 68 68 68 68 68 67 67 67 67 66 65 66 67 66 66 66 66 66 66 66 66 67 67
69 69 69 68 68 68 67 67 67 67 68 68 68 68 68 68 69 69 70 69 68 67 67 67 67 68 68 67 68 69 67 67 67 66 66 66 66 67 67 67 67 67
69 69 68 68 68 67 67 66 67 67 67 68 68 68 68 69 70 69 69 69 69 68 67 67 68 68 67 64 65 68 69 68 67 66 67 66 66 66 66 68 68 67
69 69 68 68 67 67 66 67 67 67 68 69 69 68 69 70 69 69 69 69 69 69 69 69 69 68 64 64 65 65 67 69 68 67 67 67 66 66 67 67 67 67
69 69 68 67 67 67 67 67 67 67 68 68 68 69 69 68 68 69 68 68 69 68 69 70 70 66 63 63 63 63 64 65 67 67 67 67 67 66 66 66 66 66
68 68 68 66 65 65 66 67 66 67 68 69 69 69 68 68 68 68 68 67 68 68 68 69 69 66 63 62 61 61 62 64 66 66 67 67 67 66 66 66 66 65
68 68 66 65 65 65 66 66 66 67 67 68 69 68 68 67 68 67 68 68 69 69 69 69 70 65 62 61 60 59 60 63 65 65 65 65 65 65 65 65 65 64
68 67 65 66 66 65 65 66 67 67 67 68 68 68 68 68 68 68 68 69 69 69 69 69 71 64 61 60 58 58 60 64 64 64 64 64 64 64 64 64 63 63
67 66 65 65 65 65 66 67 67 67 68 68 67 67 67 67 68 68 69 69 69 68 68 68 69 63 58 58 57 57 60 63 62 63 63 63 63 63 62 62 62 62
67 67 66 66 65 65 67 68 69 69 69 69 68 67 67 68 68 68 68 69 69 69 69 68 68 63 57 55 55 56 61 63 63 62 63 62 62 62 61 61 62 64
67 66 66 66 66 66 68 68 69 69 69 69 68 68 68 68 68 68 68 68 69 69 68 68 67 61 54 54 54 54 60 62 62 62 62 62 61 61 61 61 62 62
68 67 67 67 67 68 69 69 69 69 68 68 68 68 68 68 68 68 67 67 67 67 68 67 63 63 60 54 53 53 58 62 61 62 63 62 60 60 61 62 61 61

ECMWFNIL_sfc_temp_024.txt.gz
Temp
88 88 87 87 87 88 87 86 87 86 86 87 87 86 86 86 86 86 86 86 85 85 84 84 84 84 84 84 83 82 82 82 83 83 82 82 82 81 81 81 81 80
87 88 88 88 87 88 87 87 86 86 86 86 87 87 87 86 86 86 85 85 85 84 84 84 83 83 83 84 83 82 82 82 81 84 81 81 81 81 81 81 81 81
88 87 87 87 88 87 88 87 87 87 87 87 87 87 87 87 86 86 85 85 84 85 84 84 83 83 83 83 83 82 82 81 81 83 82 80 82 81 81 83 82 82
87 87 88 88 88 87 87 87 87 86 87 87 87 87 87 87 86 85 85 84 84 83 83 83 83 83 82 82 82 82 82 82 82 82 81 81 81 81 81 82 82 82
87 87 88 88 88 88 87 87 87 87 87 86 87 86 85 85 85 85 84 83 83 84 83 82 82 81 80 80 80 79 81 81 81 81 80 80 81 81 82 81 81 80
87 87 87 87 88 87 86 86 86 86 86 86 85 86 85 85 84 84 84 84 84 83 82 82 81 81 81 79 78 78 79 80 82 81 80 80 81 82 82 81 80 79
87 87 87 88 87 87 86 86 86 85 86 87 85 84 85 85 84 83 83 83 82 79 79 79 79 78 78 79 78 78 79 80 81 81 80 80 81 81 82 81 80 79
88 88 88 87 87 86 85 85 85 85 85 85 85 85 84 85 83 82 81 80 80 77 77 77 77 77 79 79 77 77 79 81 81 80 80 79 80 79 79 80 80 78
88 87 87 86 86 86 85 85 87 85 85 85 86 86 84 84 83 82 81 80 79 78 77 76 76 77 77 78 77 77 78 80 81 80 79 79 79 79 80 80 79 79
87 87 87 88 87 86 84 86 88 86 85 85 86 86 83 82 82 81 80 79 79 79 78 77 76 76 76 77 77 77 79 79 79 79 79 80 80 80 80 80 80 79
87 87 87 87 87 87 86 88 90 89 87 86 86 85 84 83 82 82 80 79 78 77 77 77 76 76 75 77 77 78 79 80 79 79 79 80 80 80 79 79 79 79
86 87 87 87 87 87 87 88 89 87 87 87 87 86 84 84 81 80 79 78 77 78 78 77 77 76 75 77 78 79 79 79 78 79 80 81 81 81 80 80 80 80
86 86 87 87 86 86 87 88 89 89 87 86 86 86 85 85 83 80 78 77 76 77 77 78 78 77 76 77 78 79 78 77 78 80 81 81 81 81 82 82 82 82
86 87 87 87 87 85 86 87 88 86 85 85 85 85 85 84 83 80 78 77 76 77 78 78 78 77 76 76 78 79 79 79 80 80 80 80 81 82 83 84 84 84
86 87 87 87 86 85 85 85 86 83 81 82 81 82 83 84 83 80 76 75 76 76 77 78 77 76 76 77 77 78 80 80 80 79 79 79 81 82 83 83 83 84
87 86 86 86 84 83 84 84 82 77 78 79 78 80 80 81 80 78 78 76 75 76 76 76 76 76 73 69 72 79 80 79 79 79 79 80 80 81 82 83 83 84
86 86 85 85 84 83 83 82 79 76 76 78 79 79 79 78 78 77 77 77 77 77 76 75 76 76 69 66 67 68 76 78 79 80 81 81 81 80 80 81 83 83
86 85 84 83 83 82 83 82 80 78 77 78 78 77 77 77 75 74 74 76 77 78 77 76 76 70 65 65 65 65 67 75 80 81 82 82 81 81 81 81 82 83
86 85 84 83 82 82 83 81 80 78 77 77 77 78 77 75 75 75 75 77 77 76 77 78 79 68 65 64 64 64 64 69 79 81 82 82 82 81 81 81 81 80
85 85 84 82 82 81 80 79 78 78 77 76 77 77 76 75 74 75 76 76 76 76 76 78 79 70 64 63 63 62 64 67 78 80 82 82 81 82 82 80 79 79
84 84 84 82 80 79 79 78 78 77 76 75 75 75 76 74 73 74 75 75 76 77 76 76 78 67 62 62 61 61 62 66 77 79 81 81 81 81 80 80 79 79
84 84 83 81 79 78 78 77 77 76 75 74 72 73 75 75 75 76 75 75 75 77 78 77 81 67 63 61 60 60 62 73 77 78 79 80 80 80 80 79 79 78
84 84 83 80 79 78 77 76 75 75 74 73 71 71 72 72 73 73 74 76 76 76 77 78 82 70 60 61 60 59 64 76 77 79 79 80 80 80 78 74 72 75
85 85 82 80 79 78 77 76 76 75 74 72 71 71 71 73 73 74 75 75 76 76 81 80 82 72 58 59 59 58 66 77 78 79 79 78 78 77 75 74 74 71
85 84 83 81 79 78 77 77 76 75 74 72 72 72 72 73 73 74 76 78 82 81 76 80 83 76 58 59 57 57 66 77 79 79 77 76 74 74 74 72 71 71
84 83 82 81 80 79 78 78 77 76 75 73 73 73 74 75 76 76 77 79 82 83 84 82 81 82 71 56 56 55 59 76 79 76 75 72 71 70 71 72 71 73

ECMWFNIL_sfc_temp_027.txt.gz
Temp
90 89 89 89 89 89 89 89 89 88 88 89 88 87 88 88 89 89 89 88 87 86 86 85 85 85 85 85 84 83 83 83 84 84 83 83 83 84 83 83 83 82
89 90 89 90 89 89 89 90 89 88 88 88 88 89 88 88 89 88 88 87 87 86 86 85 85 84 84 84 83 83 82 82 82 84 82 82 82 83 83 83 82 83
90 90 90 89 90 90 91 90 90 89 89 89 89 89 88 89 88 88 87 87 86 86 85 85 85 84 84 84 83 82 82 81 81 83 81 80 81 81 83 84 84 83
90 90 90 91 91 90 90 89 89 89 89 88 88 89 89 89 88 87 87 86 86 85 85 85 85 84 83 82 82 80 80 80 81 81 81 80 80 80 81 81 82 83
90 90 91 91 91 91 90 89 90 89 90 89 90 89 88 87 87 87 86 86 85 85 84 84 84 84 83 82 81 79 79 80 80 80 79 79 79 79 80 81 82 82
90 90 90 90 90 90 90 90 89 90 90 90 89 90 88 88 87 87 86 86 86 85 84 83 83 83 83 82 81 80 79 79 79 78 78 77 79 81 82 82 81 81
90 90 90 91 91 91 90 89 89 90 90 90 89 88 88 87 86 86 85 85 85 84 84 82 82 81 82 81 80 79 78 78 78 78 77 77 78 79 81 82 80 79
91 91 91 91 90 90 89 90 90 89 89 89 88 88 88 88 86 86 85 84 85 84 83 83 82 81 83 81 80 79 79 79 78 78 77 77 78 78 80 81 80 78
91 91 91 90 90 91 92 92 91 90 89 88 89 89 87 87 86 86 84 83 83 83 82 82 81 81 81 81 79 78 78 78 78 78 77 78 78 79 80 80 78 78
90 91 91 92 92 91 92 92 92 90 89 89 89 89 87 86 86 86 84 82 82 82 81 81 80 80 80 80 79 78 77 77 78 78 78 79 80 81 81 80 79 78
90 91 91 91 92 93 93 93 92 92 90 90 89 89 87 87 86 86 83 82 82 82 81 80 81 80 79 80 79 77 77 77 78 78 78 79 80 80 80 80 79 79
90 91 92 91 91 93 94 93 93 91 92 90 90 90 88 88 86 85 83 82 82 82 81 80 81 80 79 79 80 78 77 77 78 78 79 80 81 81 80 80 80 81
90 90 91 92 91 91 93 93 93 94 94 91 91 91 90 88 88 85 84 83 82 83 82 81 81 81 79 79 79 78 77 77 77 78 80 80 81 81 82 82 83 82
90 90 91 91 91 90 91 91 92 91 91 90 90 90 90 89 88 86 85 84 83 83 82 82 81 80 79 79 78 78 78 77 77 78 80 80 80 81 82 83 84 84
90 90 90 90 90 90 89 90 90 90 90 90 88 89 90 90 89 87 84 83 83 82 82 82 80 80 80 79 78 79 79 79 78 78 79 79 80 81 82 83 83 84
90 90 89 89 89 88 88 88 88 88 89 89 88 89 89 88 87 86 86 84 83 82 82 81 81 81 76 72 75 79 79 79 78 78 80 80 80 80 81 82 84 84
89 89 89 88 87 88 88 87 87 88 87 87 87 87 87 87 87 86 86 86 84 82 81 80 81 80 69 67 69 73 79 79 78 78 79 80 80 79 79 80 82 84
89 89 88 88 88 87 87 87 86 86 87 86 85 85 85 86 85 85 84 85 83 82 81 81 80 72 65 66 68 67 72 79 80 79 79 79 80 80 80 80 81 83
89 89 88 87 87 87 86 86 85 85 84 84 84 85 85 84 83 84 83 83 81 80 81 81 82 67 64 65 66 66 66 72 78 78 76 77 79 80 80 80 81 82
89 89 87 87 86 86 85 84 84 82 83 83 83 84 83 83 83 81 80 79 79 79 78 80 81 65 64 63 64 63 64 68 77 78 78 79 80 81 81 81 80 79
88 88 86 86 86 85 84 83 83 82 82 82 82 82 82 81 81 80 79 79 79 79 79 80 81 62 63 61 61 61 63 66 74 77 79 80 80 81 81 81 77 76
88 87 87 86 85 84 83 83 83 83 82 81 81 82 82 81 80 79 76 76 77 79 80 77 77 61 62 61 60 61 62 71 75 76 78 80 79 80 81 78 77 79
89 88 87 86 85 84 83 82 82 81 81 81 79 80 81 79 78 77 75 75 73 74 75 74 75 63 60 59 60 60 63 73 75 77 78 79 78 80 79 76 74 78
88 88 86 86 84 83 83 83 83 82 81 80 79 79 79 80 77 75 75 75 74 73 76 75 77 68 58 58 59 58 65 76 77 77 78 78 79 80 77 73 77 76
88 87 87 86 83 84 83 82 81 80 80 80 80 79 79 78 78 76 76 75 77 78 72 76 79 72 57 60 58 58 65 77 78 78 77 78 78 76 75 73 76 74
88 86 86 86 84 83 83 82 81 80 78 78 78 78 77 77 77 77 75 75 78 79 79 79 80 81 70 56 58 57 60 75 78 77 77 78 77 73 74 77 77 75

ECMWFNIL_sfc_temp_033.txt.gz
Temp
82 81 81 81 80 80 80 79 80 79 79 79 78 79 79 79 80 79 79 79 78 77 76 75 76 75 75 74 75 74 74 73 74 73 73 72 71 72 73 72 72 70
81 81 81 81 80 80 80 81 80 80 79 79 79 79 79 79 80 80 80 78 78 77 76 76 75 75 74 74 74 74 73 73 73 75 73 72 72 73 72 71 71 70
82 81 81 81 81 81 82 81 81 81 80 80 80 80 80 80 80 79 80 78 77 77 76 76 76 75 75 74 74 74 74 73 72 74 73 72 71 72 71 72 71 70
81 82 82 82 82 81 82 81 80 80 81 79 80 81 81 81 79 79 79 79 77 76 76 76 76 76 75 74 74 73 73 73 73 72 73 72 72 72 71 70 71 71
82 82 82 82 82 82 82 81 81 80 81 80 81 81 80 80 78 79 79 78 77 76 76 76 75 76 75 74 74 73 73 72 72 72 71 71 72 73 72 72 70 70
82 82 82 82 82 82 82 81 81 81 81 81 81 81 81 80 80 79 78 78 78 77 76 76 76 75 75 74 73 73 73 72 73 72 71 71 71 72 73 72 70 70
82 82 82 83 83 82 82 82 82 81 82 82 81 80 81 80 80 79 78 78 78 77 77 76 75 75 75 74 73 73 73 73 72 72 71 70 71 71 72 72 71 70
82 83 83 83 83 82 82 82 82 81 82 81 81 81 81 81 80 80 79 78 78 77 77 76 75 75 75 75 73 73 73 73 73 72 72 70 70 70 70 72 72 71
83 83 83 83 83 83 83 83 83 82 82 81 81 81 81 81 80 80 79 78 78 77 76 76 75 75 75 75 74 73 73 73 73 73 72 71 70 70 71 71 71 71
83 83 83 83 83 83 83 83 84 83 82 82 82 82 81 81 81 80 79 78 78 77 76 76 75 75 75 75 74 74 73 73 73 72 72 72 72 71 71 71 71 71
83 83 83 83 83 84 84 85 85 84 83 83 82 82 81 81 80 80 79 78 77 77 76 76 75 75 75 75 75 75 74 73 73 72 72 72 72 72 73 71 71 72
83 83 83 83 84 84 84 85 85 84 84 83 83 82 81 81 80 80 79 78 78 77 77 76 76 75 75 75 75 75 74 74 73 73 73 72 72 72 72 72 72 72
83 83 84 84 83 84 85 85 86 86 85 84 84 84 83 81 81 80 79 78 78 77 77 76 75 75 75 74 74 74 73 73 73 73 73 72 73 73 73 72 73 72
83 84 84 84 84 84 84 85 85 85 84 84 84 83 83 82 81 80 80 79 78 78 77 76 75 75 74 74 74 74 74 73 74 73 72 72 72 72 73 73 73 74
83 84 84 84 84 83 83 84 84 84 84 84 83 83 84 83 82 81 79 78 78 77 77 76 75 75 75 75 74 73 74 73 73 73 72 71 71 71 72 73 74 74
83 83 83 83 83 83 83 83 84 84 84 83 83 83 83 83 82 81 80 79 77 77 77 76 75 75 72 69 71 74 73 74 73 72 72 71 70 71 72 73 74 74
83 83 83 82 83 83 83 83 83 83 83 82 82 82 82 82 81 80 80 80 78 77 76 76 76 75 67 66 68 70 73 74 73 72 72 71 71 70 71 72 73 73
83 83 82 82 82 82 82 83 83 82 82 82 81 81 81 82 80 80 80 79 78 78 77 76 76 70 65 66 67 67 70 74 73 72 72 71 71 71 71 71 71 71
83 83 82 82 82 82 82 82 82 81 81 80 80 81 81 80 80 79 79 78 78 77 76 77 77 68 65 65 66 66 68 72 73 72 71 71 71 71 71 72 70 71
83 83 82 82 82 82 82 81 81 81 80 80 80 79 80 80 80 78 78 77 77 77 76 77 77 66 64 63 64 65 66 70 73 72 72 72 72 72 73 72 71 71
83 82 82 82 82 82 81 81 81 80 79 79 79 79 78 78 78 77 77 77 77 77 76 76 77 63 62 62 62 63 65 68 73 73 73 73 73 73 72 71 71 71
83 82 82 82 82 81 80 80 80 79 79 78 78 77 77 77 77 77 76 76 76 77 76 75 76 61 62 61 60 62 64 70 73 72 72 72 72 72 71 71 71 70
84 83 82 81 81 81 80 79 79 78 77 77 77 76 75 75 75 74 74 75 75 76 75 74 70 61 59 58 59 60 63 71 72 71 70 69 70 71 71 70 71 70
84 83 82 81 81 80 80 79 78 78 77 77 77 75 74 74 73 73 73 74 74 74 74 72 69 61 57 57 58 59 64 70 71 69 68 69 69 70 69 69 71 76
84 83 82 81 80 80 79 78 77 77 76 77 77 76 74 73 73 73 72 73 75 75 72 72 71 63 55 57 57 57 64 71 70 70 69 68 69 68 68 69 69 74
84 82 81 81 80 79 78 78 77 76 76 76 75 74 72 72 72 72 71 71 72 73 73 73 72 67 59 55 56 56 61 72 71 69 69 69 69 68 68 67 68 69

ECMWFNIL_sfc_temp_036.txt.gz
Temp
80 79 79 79 79 79 79 78 77 77 77 77 76 76 76 77 78 77 77 77 77 76 75 74 73 73 73 73 72 72 71 71 71 70 70 69 69 69 70 69 67 67
79 80 80 79 79 79 79 79 78 77 77 77 77 77 77 77 77 78 77 77 77 76 75 74 73 73 73 72 72 71 70 71 71 72 70 69 69 69 70 69 68 68
80 79 79 79 79 79 79 79 79 78 78 78 78 78 77 78 77 78 77 77 76 76 75 75 74 73 73 73 72 72 71 70 71 71 70 69 69 69 70 70 68 68
79 80 80 80 80 79 79 79 78 78 78 77 77 78 78 78 78 77 77 78 76 76 75 75 75 74 73 73 72 71 71 71 72 71 70 70 70 70 70 69 70 68
80 80 80 80 80 80 79 79 79 78 78 78 78 78 78 77 77 77 77 77 76 75 75 75 75 74 73 72 72 71 71 71 71 70 70 69 69 70 71 70 69 68
80 80 80 80 80 80 79 79 79 79 78 78 78 79 78 78 77 77 77 77 76 76 75 75 75 74 73 72 71 71 71 71 71 70 70 70 70 70 71 70 69 68
80 80 80 80 80 80 80 79 79 79 79 79 79 78 78 78 77 77 77 77 76 75 75 74 74 74 73 72 71 71 71 71 71 70 70 70 70 69 70 70 69 69
80 80 80 80 80 80 80 80 80 79 79 79 79 79 79 78 78 78 77 77 76 75 75 75 74 74 74 73 72 71 70 71 71 70 70 69 69 69 69 71 70 69
80 80 80 80 80 80 80 80 80 80 80 79 79 79 79 79 78 78 77 77 76 75 74 74 74 74 74 73 72 72 71 71 71 71 70 69 69 69 69 69 69 69
80 80 80 80 80 80 80 81 81 80 80 80 80 80 79 79 79 78 77 76 76 75 75 74 74 74 74 73 73 72 72 71 71 71 71 71 70 70 69 69 69 68
80 80 80 80 80 81 81 81 81 81 81 80 80 79 79 79 78 78 77 76 76 75 75 74 74 74 73 73 73 73 72 72 71 71 71 71 71 70 71 69 69 69
80 80 80 80 80 81 81 81 82 81 81 81 80 80 79 79 78 78 78 76 76 76 75 75 74 74 74 73 73 73 72 71 71 70 71 71 71 70 70 69 69 69
80 80 80 81 80 81 81 82 82 82 82 81 81 81 80 79 79 78 78 77 76 76 76 75 74 74 73 73 73 72 72 71 71 71 71 71 71 71 71 70 70 69
80 81 81 81 81 81 81 81 82 81 81 81 81 80 80 80 79 78 78 77 77 76 76 75 74 73 73 73 72 72 72 71 71 71 72 71 70 71 71 71 70 70
80 81 81 81 81 81 81 81 81 81 81 81 80 80 81 81 80 79 78 77 77 76 75 75 74 73 73 73 72 72 72 72 72 72 72 70 69 70 71 71 70 71
81 81 81 81 80 80 80 81 81 81 81 80 80 80 80 80 80 79 79 77 76 76 75 75 74 74 72 68 70 74 72 73 72 72 72 71 70 69 70 70 71 71
81 80 80 80 80 80 80 80 80 81 80 80 80 80 80 79 79 79 79 78 77 76 75 75 75 74 66 65 67 69 73 73 73 72 72 71 70 70 70 70 70 70
81 80 80 80 80 80 80 80 80 80 80 80 80 79 79 80 79 78 78 78 77 77 76 75 75 69 63 65 66 67 69 74 73 72 72 71 71 71 71 70 70 70
81 80 80 80 80 80 80 80 80 79 79 79 79 80 79 79 78 78 78 78 77 76 76 76 76 67 63 64 66 66 66 71 74 73 72 71 71 71 70 70 69 69
81 80 80 80 80 80 80 80 79 79 79 80 80 79 79 79 79 78 78 77 77 76 76 76 76 65 62 63 64 64 65 68 73 72 72 71 71 71 71 70 69 69
81 80 80 80 80 80 79 79 79 79 79 80 80 79 79 78 79 78 78 77 77 77 76 75 77 62 61 62 62 62 64 66 73 72 72 71 71 71 70 69 69 70
81 80 80 80 79 79 79 79 79 79 79 79 79 79 79 79 79 79 78 77 77 76 76 74 74 60 61 61 61 61 63 68 71 71 71 70 70 70 70 69 70 69
82 81 80 80 79 79 79 79 79 79 79 79 78 78 78 78 78 78 78 77 76 76 75 74 73 61 60 60 60 60 62 68 70 71 71 70 69 69 69 69 69 69
82 82 80 80 79 79 79 79 80 80 79 78 78 78 77 78 78 77 76 76 76 75 75 74 73 64 58 59 59 59 63 69 70 70 70 70 69 70 69 68 70 74
83 82 81 80 80 80 80 80 79 79 79 78 79 78 77 76 75 75 73 73 75 76 73 74 73 66 57 59 58 57 64 70 70 70 69 69 68 67 67 67 68 73
83 82 81 81 80 80 80 80 80 78 77 77 77 77 74 73 73 73 72 72 73 74 74 74 71 67 60 56 55 55 60 71 70 70 69 68 68 67 65 65 66 68

ECMWFNIL_sfc_temp_039.txt.gz
Temp
79 78 78 77 77 77 76 76 76 76 76 76 75 75 75 76 76 76 76 75 75 75 74 74 73 72 72 71 70 70 69 69 69 68 68 68 67 67 68 67 65 65
78 78 78 78 77 77 77 77 77 77 76 76 76 76 76 76 76 76 76 75 75 75 75 74 73 72 71 70 70 69 68 69 69 70 68 67 67 67 68 67 66 65
78 78 78 77 77 77 77 77 77 77 77 77 77 76 76 76 76 76 76 76 75 75 74 74 73 72 72 71 70 70 69 68 69 69 69 68 67 67 67 68 66 66
78 78 78 78 78 77 78 77 77 76 77 76 76 77 77 77 76 76 76 77 75 75 74 74 73 72 72 71 70 70 70 69 70 69 68 68 68 68 68 67 67 66
78 78 79 79 79 78 78 77 77 77 76 77 77 76 76 76 76 75 75 75 75 75 74 73 73 72 71 71 70 70 69 69 68 68 68 68 68 68 68 68 67 66
79 79 79 78 78 78 77 77 78 77 77 77 76 77 76 76 76 76 75 75 75 75 74 74 73 72 72 71 70 70 70 69 69 68 68 68 68 68 69 68 67 66
78 78 78 79 78 78 78 78 78 78 78 78 77 76 76 76 76 76 76 76 75 75 74 73 73 72 72 71 70 70 70 70 69 68 68 68 68 67 68 68 68 67
79 79 79 79 78 78 78 78 78 78 78 77 77 77 77 76 76 76 76 76 75 75 74 74 73 72 72 71 71 70 70 70 69 68 68 68 67 67 67 68 68 67
79 79 78 78 78 78 78 78 78 78 78 77 77 77 77 77 76 76 76 76 75 75 74 74 73 72 72 72 71 71 70 70 70 69 69 68 67 68 67 67 67 67
79 79 78 78 78 78 78 79 79 79 79 78 78 78 77 77 77 76 76 75 75 75 74 74 73 73 72 72 72 71 71 70 70 69 69 69 69 68 67 67 68 67
78 79 78 78 78 79 79 79 79 80 79 78 78 77 77 77 76 76 76 75 75 75 74 73 73 73 72 72 72 72 72 71 70 69 69 69 69 68 70 68 68 68
78 78 78 78 78 79 79 79 80 79 79 79 78 78 77 77 77 76 76 75 75 75 75 74 73 73 72 72 73 72 71 71 71 70 70 69 69 68 69 68 68 68
78 78 79 79 79 79 79 79 80 80 80 79 79 79 78 77 77 76 76 76 75 75 75 74 74 73 72 72 72 72 71 71 70 70 70 69 69 69 69 68 68 68
79 79 79 79 79 79 79 79 79 79 79 79 79 78 78 78 77 76 77 76 76 75 75 75 74 73 73 72 72 72 71 71 70 70 70 69 69 69 69 69 69 69
79 79 79 79 79 79 78 78 79 79 79 79 78 78 79 79 78 78 76 75 75 75 75 75 74 73 73 73 72 71 71 71 71 70 70 69 69 69 69 69 69 69
79 79 79 79 78 78 78 78 78 78 78 78 78 78 78 78 78 78 77 76 75 74 74 74 74 74 71 67 69 73 72 72 71 71 70 70 70 69 69 69 70 69
79 79 79 78 78 78 78 78 78 78 78 78 78 78 78 77 78 77 77 77 76 75 74 74 74 74 67 64 65 68 72 72 72 71 71 71 70 70 69 69 69 69
79 79 78 78 78 78 78 78 78 77 77 77 77 77 77 78 77 77 77 77 76 76 75 74 74 69 64 63 65 65 68 73 73 72 71 70 70 70 70 70 69 69
79 78 78 78 78 78 78 78 77 77 77 77 77 78 77 77 77 77 76 76 76 75 75 75 75 67 63 62 64 64 65 69 74 73 72 71 71 70 70 70 69 69
79 79 78 78 78 78 78 77 77 77 77 78 78 77 77 77 77 77 77 76 76 76 75 76 75 66 62 61 62 63 64 66 74 73 72 72 71 70 71 70 69 69
79 79 78 78 78 78 77 77 77 77 77 77 78 77 77 77 77 76 77 76 76 77 76 75 77 64 60 60 61 61 63 65 71 72 72 71 71 70 70 70 70 69
79 79 78 78 78 77 77 77 77 77 77 77 78 78 78 78 77 77 77 76 76 77 76 75 76 62 59 59 60 61 62 67 70 71 71 71 70 69 69 69 69 69
80 79 78 78 78 77 77 77 77 77 77 78 77 77 77 77 77 77 77 77 76 76 75 75 75 63 58 58 59 60 62 68 68 68 69 69 69 68 68 68 69 69
80 80 79 78 78 77 77 78 78 78 78 78 77 77 77 77 78 77 77 77 77 76 76 75 76 64 56 57 59 59 62 67 68 68 69 68 68 68 67 68 69 72
81 80 80 79 78 78 78 78 78 78 78 78 78 78 78 78 77 77 77 77 77 77 72 74 76 64 55 58 58 58 62 68 68 68 68 67 67 67 67 68 67 71
82 81 80 80 79 79 79 79 79 78 78 78 78 78 78 78 77 77 76 76 76 76 76 75 74 67 60 57 57 56 58 67 68 67 67 67 68 67 66 66 66 67

ECMWFNIL_sfc_temp_042.txt.gz
Temp
78 78 77 77 77 77 77 76 76 76 76 76 76 76 76 77 77 76 77 77 77 76 76 75 75 74 74 73 72 72 71 71 71 71 70 70 71 71 70 70 69 70
78 78 78 78 77 77 77 77 77 76 76 76 77 77 77 77 77 77 76 76 77 76 76 75 74 74 73 73 72 71 70 71 71 71 70 70 71 70 71 71 70 69
78 78 78 77 77 77 78 77 77 77 77 77 77 77 77 78 77 77 77 77 76 76 76 75 74 74 74 73 72 72 71 70 70 71 70 70 70 70 71 72 70 69
78 78 78 78 78 78 78 77 77 77 77 77 77 78 78 78 77 77 76 77 76 76 76 75 75 74 74 73 72 71 71 71 71 71 70 70 70 71 71 70 71 70
78 78 79 79 79 78 78 77 77 77 77 77 78 77 77 77 76 76 76 76 76 76 76 75 75 74 73 73 72 71 71 71 71 70 70 70 70 70 71 70 70 70
78 78 78 78 78 78 77 77 77 77 77 77 77 78 77 77 77 77 76 76 77 76 76 75 75 74 74 73 72 72 72 71 71 70 70 70 70 70 71 70 70 70
78 78 78 79 79 78 78 77 77 77 78 78 77 77 77 77 77 77 76 76 76 76 76 75 74 74 73 73 72 71 71 71 71 70 70 70 70 69 70 70 70 70
79 79 79 79 78 78 78 78 78 77 78 77 77 77 77 77 77 77 77 76 76 76 75 75 74 74 74 73 72 72 71 72 71 70 70 70 70 70 69 70 70 70
79 79 79 78 78 78 79 79 79 78 78 77 77 78 77 77 77 77 76 76 76 76 75 75 75 74 74 73 72 72 72 72 72 71 70 70 69 70 70 70 70 70
78 79 79 79 79 79 79 79 80 79 79 78 78 78 77 77 77 77 77 76 76 76 75 75 75 74 74 73 73 72 72 72 72 71 71 71 71 71 70 70 70 70
78 79 78 78 79 80 79 80 80 80 79 79 78 78 78 77 77 77 76 76 76 76 75 75 75 75 74 74 73 73 73 73 72 72 71 72 72 71 71 70 70 71
78 78 79 78 79 79 80 80 80 80 79 79 79 78 78 78 77 77 76 76 76 76 76 76 75 75 74 74 74 74 73 73 73 72 72 72 72 72 72 71 71 71
78 78 79 79 78 79 80 80 80 80 80 79 79 79 78 78 78 77 77 77 76 76 76 76 76 75 74 74 74 73 73 72 73 72 72 72 72 72 72 72 72 72
78 79 79 79 79 79 79 79 80 79 79 79 79 78 79 78 78 77 77 77 77 77 77 76 76 75 74 74 74 74 73 73 73 72 72 72 72 72 72 72 72 72
78 79 79 79 79 78 78 78 79 78 79 79 78 78 79 79 79 78 77 76 77 76 76 76 76 75 75 75 74 73 73 73 73 72 72 72 72 72 72 72 72 72
79 78 78 78 78 78 78 78 78 78 78 78 78 78 78 78 78 78 78 77 76 76 76 76 76 76 72 67 69 74 73 73 73 72 72 72 72 71 71 71 72 72
78 78 78 77 78 78 78 78 78 78 78 77 78 78 78 77 78 77 78 78 77 76 76 75 76 76 67 64 65 67 73 73 73 72 72 72 72 71 70 71 71 71
78 78 78 78 78 77 78 78 78 77 77 77 77 77 77 78 77 77 77 77 77 77 76 76 76 69 65 64 64 64 67 74 74 73 73 72 72 72 71 71 71 71
78 78 78 77 77 78 78 78 77 77 77 77 77 77 78 77 77 77 77 77 77 76 76 77 77 68 64 63 63 63 64 69 75 74 73 73 72 71 71 71 70 70
78 78 78 78 78 78 78 77 77 77 77 78 78 77 77 77 77 77 77 76 77 76 76 77 77 68 63 61 62 62 63 66 75 74 74 73 72 72 71 69 69 69
78 78 78 78 78 78 77 77 77 77 77 77 78 77 77 76 76 76 77 77 77 77 77 77 78 66 61 60 60 60 61 64 73 74 73 73 72 71 70 70 70 71
79 78 78 78 78 77 77 77 77 77 77 77 77 78 78 78 77 78 77 77 77 77 77 76 78 64 60 59 59 59 61 68 71 71 71 72 71 70 70 71 72 72
79 78 78 77 77 77 77 77 77 77 77 78 77 77 77 77 77 78 77 78 77 77 76 76 77 66 59 58 58 58 62 70 69 70 71 71 71 69 71 71 72 72
79 79 78 78 77 77 77 77 78 78 78 78 77 77 77 78 78 78 78 78 77 77 77 77 78 68 57 57 56 57 64 69 69 69 70 70 70 71 71 71 72 72
80 79 79 78 78 78 78 78 78 78 78 78 78 78 78 78 78 77 78 78 79 79 71 75 78 70 56 57 55 57 65 70 70 69 69 69 70 70 71 71 70 72
80 79 79 79 78 78 78 78 78 78 78 78 78 79 78 78 78 78 77 78 79 78 78 77 77 76 62 55 55 56 60 70 70 68 68 69 69 70 69 69 70 70

ECMWFNIL_sfc_temp_045.txt.gz
Temp
82 82 82 82 83 83 83 82 83 83 83 84 84 84 84 84 85 84 84 84 84 84 84 84 84 83 83 82 81 81 81 81 82 81 81 81 81 81 81 80 81 80
82 82 82 83 83 83 83 84 83 83 83 83 84 85 85 85 85 85 84 84 84 84 84 84 84 83 82 82 81 81 80 80 80 82 80 80 80 81 81 81 81 81
83 82 83 82 83 83 85 84 84 83 84 84 84 84 85 85 85 84 84 84 84 85 84 84 84 83 83 82 81 80 80 79 79 81 80 79 81 80 81 83 82 80
82 83 83 84 84 84 84 84 83 83 84 84 84 85 85 86 85 84 84 83 84 83 84 84 84 84 83 82 81 81 81 80 81 80 79 80 80 80 80 81 81 81
83 83 84 84 84 84 84 83 84 84 84 84 85 85 84 84 84 84 84 83 83 84 83 83 84 83 82 81 81 80 80 80 80 80 79 79 79 79 80 80 80 80
83 83 83 84 84 83 83 84 84 85 85 85 84 85 85 84 84 84 84 84 84 85 84 84 84 84 84 81 80 80 81 81 81 79 79 79 80 80 80 79 79 79
83 83 83 84 84 84 84 83 84 84 85 85 85 84 85 84 84 83 84 84 84 84 84 83 83 83 82 81 80 80 80 80 80 79 78 79 79 79 80 79 79 79
84 84 84 84 84 84 83 84 84 84 84 84 84 84 84 85 84 85 84 84 84 83 83 83 82 82 83 82 80 80 80 80 80 78 78 78 79 78 78 79 78 78
84 84 84 84 84 84 85 86 85 84 85 84 84 85 84 84 84 85 83 83 83 83 82 83 82 82 82 81 81 80 79 80 80 79 78 78 78 78 79 79 78 78
83 84 85 86 85 85 86 86 87 86 85 84 85 86 85 84 85 84 84 82 82 82 82 82 82 82 82 82 81 80 80 79 79 79 79 79 79 79 80 79 79 78
83 84 84 85 85 87 87 88 88 88 86 85 85 85 85 84 83 84 83 83 82 82 82 82 82 82 82 82 82 81 81 81 80 79 80 80 80 80 79 79 79 79
83 84 85 85 85 87 87 88 88 87 87 86 86 85 85 86 84 84 83 82 83 83 83 82 82 82 82 82 83 82 81 81 81 80 80 80 80 81 80 80 79 79
83 84 84 85 84 85 87 87 88 89 88 87 87 86 86 86 86 84 83 83 83 83 83 83 82 82 82 82 82 81 81 80 81 81 80 80 81 81 82 81 81 81
83 84 85 85 85 84 85 86 87 86 86 86 86 86 87 86 86 85 84 84 84 83 83 83 83 82 82 82 81 81 81 80 80 81 81 80 80 81 82 82 81 81
83 84 84 84 84 83 84 84 85 85 85 85 85 85 86 87 87 86 84 83 84 83 83 83 83 82 82 82 81 81 81 81 80 80 80 80 80 81 81 81 81 82
83 83 83 83 83 82 82 83 84 84 84 84 84 85 85 85 85 85 86 84 83 83 83 83 83 83 76 69 72 81 81 81 80 80 80 80 79 79 80 80 81 82
83 83 83 82 82 83 83 83 83 83 83 83 83 83 84 83 84 84 85 85 84 84 83 82 83 82 68 65 67 69 79 81 80 79 80 79 80 78 78 79 80 80
83 83 82 82 82 82 82 82 83 83 82 82 83 83 82 84 83 83 83 84 84 85 84 83 83 72 65 64 65 65 69 81 82 81 80 80 80 80 79 80 79 80
83 83 82 82 82 82 83 82 82 82 82 82 82 83 83 82 82 83 82 83 84 83 84 84 84 70 64 63 64 64 64 72 82 82 81 80 80 80 80 79 79 78
83 83 82 82 82 82 82 82 82 81 82 83 83 82 82 82 82 82 82 82 82 82 82 84 84 69 62 61 62 62 63 68 82 82 81 81 80 80 80 80 79 78
83 83 82 82 82 82 82 82 81 82 82 82 83 83 82 81 82 82 82 83 83 84 83 83 85 65 61 60 60 60 62 65 80 81 81 81 80 81 80 80 79 78
83 83 82 83 82 82 82 81 81 81 81 82 83 84 84 84 83 84 83 83 83 84 84 83 86 64 60 59 59 59 60 72 78 79 80 80 80 80 80 80 79 78
84 83 82 82 82 82 82 81 81 81 82 83 82 83 83 83 83 84 83 84 84 84 82 83 86 68 59 58 58 57 62 75 76 78 80 80 80 80 80 80 79 79
84 83 82 82 82 82 82 82 83 83 83 83 82 83 83 85 85 84 85 84 84 84 85 84 85 71 57 57 58 56 64 75 77 78 78 79 80 80 80 79 79 73
84 83 83 83 82 82 83 83 83 83 84 83 84 84 83 84 84 84 84 84 87 86 75 81 86 75 56 58 57 56 65 76 77 78 77 78 79 79 79 79 78 74
85 83 83 84 83 83 83 83 84 84 84 83 83 83 82 83 83 83 83 83 85 85 85 84 84 83 65 56 56 55 59 75 79 77 78 77 78 78 77 76 76 77

ECMWFNIL_sfc_temp_048.txt.gz
Temp
87 87 87 87 88 89 88 88 89 88 88 90 90 90 90 90 91 91 91 90 89 90 89 89 89 88 89 89 88 87 86 86 87 87 86 86 86 86 86 86 86 86
87 87 87 88 88 88 89 89 89 88 88 89 90 91 91 91 91 91 90 90 90 89 89 90 89 88 88 88 87 86 85 85 85 89 86 85 86 86 87 86 86 86
87 87 88 88 89 89 91 90 89 89 90 90 90 90 91 92 91 90 90 90 90 90 89 89 89 88 88 88 87 87 86 85 85 88 86 85 86 86 86 89 87 86
87 87 89 89 89 89 89 89 89 89 90 90 90 92 92 92 91 91 90 89 89 89 90 90 89 90 88 88 87 87 87 86 87 87 86 86 85 86 86 87 87 87
87 88 89 89 90 89 89 89 90 90 90 90 91 91 90 89 90 91 90 89 89 90 90 89 89 89 88 87 87 86 86 87 87 86 85 85 85 85 87 86 85 86
88 88 88 88 89 89 89 89 89 91 91 92 90 92 91 90 90 90 90 90 91 91 91 90 89 89 89 88 87 86 87 88 88 86 85 85 86 86 87 86 85 84
88 88 88 89 89 89 89 89 89 89 91 91 91 90 91 90 89 89 90 90 91 89 90 89 88 88 89 87 86 86 86 87 88 86 85 85 85 85 87 86 84 84
89 90 89 89 89 89 89 90 90 89 90 90 91 90 91 92 90 91 90 90 91 89 89 90 88 88 90 88 86 86 86 87 87 85 84 84 85 84 85 86 84 83
89 90 89 89 90 90 92 92 92 90 91 90 91 92 91 90 91 91 89 89 89 89 88 88 88 88 88 88 87 86 86 87 87 86 84 84 84 84 85 85 84 83
88 89 91 92 91 91 92 93 94 92 91 91 91 93 92 90 91 91 90 88 88 88 88 88 88 88 88 88 87 87 86 86 86 86 86 86 85 85 86 85 85 84
89 90 90 91 92 93 93 94 95 95 93 92 92 92 92 91 90 90 89 88 88 88 88 88 88 88 87 88 88 88 87 88 87 86 86 86 86 86 84 85 85 85
88 90 91 91 91 93 94 95 96 95 95 93 93 92 92 93 91 90 90 88 88 89 88 88 88 88 87 88 89 89 88 88 88 87 87 87 87 87 86 86 86 85
89 89 90 92 90 92 94 95 96 97 96 95 94 93 93 93 94 91 90 89 89 89 89 88 88 88 88 87 88 88 88 87 88 87 87 87 88 88 89 88 88 87
88 89 91 90 91 90 91 93 94 94 93 94 94 93 94 94 94 92 92 91 90 89 89 89 88 88 88 87 87 88 88 87 88 88 88 87 88 88 89 89 89 89
88 89 90 90 90 90 89 90 92 92 92 92 92 93 93 95 94 94 92 90 90 89 89 89 89 88 88 88 87 87 88 88 87 87 87 87 87 88 88 89 89 90
88 88 88 89 89 88 88 89 90 90 91 91 91 92 92 91 92 92 94 92 90 89 89 89 89 89 81 73 76 87 87 88 87 87 87 87 86 86 88 88 89 90
88 88 88 87 88 88 88 88 88 89 89 89 89 90 90 89 90 91 93 93 92 91 89 89 89 88 72 68 69 72 84 87 87 86 86 86 87 85 85 86 88 88
88 88 87 87 87 87 87 88 88 88 88 88 88 89 88 90 89 89 90 92 92 92 91 90 90 76 67 66 67 68 73 87 88 87 87 86 87 86 86 86 87 88
88 88 87 87 87 87 87 87 87 87 87 87 88 88 89 87 88 89 89 89 90 89 91 91 92 73 66 64 66 66 67 77 89 88 87 87 87 86 86 86 86 86
88 88 87 87 87 87 87 87 86 86 87 88 88 88 87 87 88 88 88 87 88 89 88 91 92 72 64 62 64 64 66 72 88 88 88 88 87 87 87 86 85 85
88 88 87 87 87 87 87 86 86 86 87 87 89 88 87 86 87 87 87 88 89 90 89 90 93 69 62 61 61 61 63 69 85 87 87 87 87 87 86 86 86 86
88 88 87 87 87 87 86 86 86 86 86 87 88 89 89 89 88 89 88 88 88 89 89 88 92 67 60 60 60 60 62 77 83 84 85 86 86 86 87 86 86 86
89 89 87 87 87 86 86 86 85 86 86 88 87 88 89 89 88 89 88 90 90 88 87 88 92 73 59 59 59 58 65 81 82 84 84 85 86 86 86 86 85 86
90 89 88 87 87 86 87 87 88 88 88 88 88 88 89 91 90 90 90 90 90 89 91 90 91 76 57 58 58 57 67 80 82 83 83 83 84 86 86 85 85 76
91 89 89 88 87 87 87 87 87 87 89 89 89 89 89 90 90 90 91 90 93 93 77 86 92 79 56 58 56 56 68 81 83 83 82 83 84 84 85 85 85 79
91 89 88 89 88 88 88 88 88 89 89 89 89 90 90 90 91 90 90 91 93 93 93 92 90 90 69 56 56 55 60 80 84 82 82 82 84 84 84 84 83 84

ECMWFNIL_sfc_temp_051.txt.gz
Temp
89 89 89 89 89 90 90 90 91 90 89 92 92 91 91 92 92 93 93 92 91 91 91 90 90 89 90 89 89 89 89 88 88 88 87 87 86 87 87 87 87 87
88 89 89 89 89 90 90 91 90 90 90 90 92 93 92 92 93 93 93 92 92 91 91 91 90 89 89 90 89 88 87 88 87 90 87 87 86 87 88 87 88 87
89 89 89 89 91 91 93 92 91 91 92 92 92 92 94 94 93 92 92 93 92 92 91 91 90 89 90 90 89 88 88 87 87 89 87 86 87 86 87 90 88 87
88 89 90 91 91 91 91 91 91 91 92 92 92 94 94 95 93 93 92 91 92 91 91 91 90 91 89 89 89 89 88 87 88 88 87 87 87 87 87 88 88 88
89 89 90 91 91 91 91 91 92 92 92 92 94 93 92 92 92 93 92 92 91 92 91 91 91 90 89 89 89 88 88 88 88 87 87 86 86 86 88 87 87 87
89 89 89 90 91 90 91 91 91 93 93 94 93 94 93 93 93 93 93 93 93 93 93 92 91 91 91 89 88 88 89 89 89 87 87 86 87 88 88 87 86 86
90 90 90 91 92 91 91 91 91 92 94 94 93 93 93 93 92 92 92 92 93 91 93 91 90 90 90 89 88 87 88 88 89 87 86 86 86 86 88 87 86 85
91 92 91 91 91 92 91 92 92 92 92 93 93 93 93 94 92 93 92 93 93 92 91 92 90 89 92 90 88 87 87 89 89 87 86 86 86 85 86 87 86 85
92 92 91 91 92 93 94 94 94 93 93 92 94 95 93 93 93 93 91 91 91 91 91 91 90 90 90 90 88 87 87 88 89 88 87 86 86 86 87 87 86 85
91 92 93 94 93 94 94 95 96 95 94 93 94 96 95 93 93 93 92 90 91 90 91 90 90 90 90 90 89 88 87 87 88 88 88 88 87 87 88 87 86 85
91 93 93 93 94 95 95 96 97 97 96 95 95 95 96 94 92 93 91 90 90 90 90 90 90 90 89 90 90 89 89 89 88 88 88 88 87 87 86 87 86 86
91 92 94 93 94 96 96 97 98 98 98 96 96 95 95 97 94 93 92 91 90 91 90 90 90 90 89 89 91 91 89 89 89 89 89 88 88 89 88 88 87 87
91 92 93 94 93 95 97 97 99 100 100 98 97 96 96 97 97 93 92 92 91 91 91 90 90 90 89 89 90 90 89 89 89 89 89 89 89 90 91 90 89 89
91 92 93 93 94 92 94 96 98 98 97 97 97 95 96 96 97 95 94 93 92 91 91 91 90 90 89 89 89 90 90 89 89 89 89 89 89 90 91 91 90 90
91 91 92 93 93 92 92 94 95 95 95 96 95 96 96 97 97 97 94 92 92 91 91 92 91 90 90 90 89 89 90 90 89 89 89 88 89 90 91 91 91 92
91 91 91 91 91 91 91 92 94 94 95 95 95 96 95 94 94 95 97 94 92 91 91 91 91 91 83 75 78 89 89 90 89 88 89 89 88 88 90 91 92 93
90 90 90 90 90 91 91 91 91 92 92 93 93 94 93 92 93 95 96 96 94 93 92 91 92 91 73 69 71 75 87 89 89 88 88 88 89 87 87 89 90 91
91 90 89 89 90 90 90 90 91 91 91 91 92 93 92 94 93 93 93 95 95 94 94 92 92 79 68 68 69 70 76 89 91 89 89 88 89 89 88 89 89 91
90 90 89 89 89 90 90 90 89 90 90 90 91 92 92 91 91 92 92 93 94 92 93 94 94 75 66 67 68 68 69 80 92 90 90 89 89 88 89 88 88 89
90 90 89 89 89 89 90 89 89 89 89 91 91 91 90 91 91 91 91 90 91 92 91 94 94 74 65 65 66 66 68 74 91 91 90 90 89 89 90 89 88 88
90 90 89 89 89 89 89 89 88 89 89 90 92 91 90 89 90 90 90 90 92 93 93 94 97 70 63 63 63 63 65 70 88 90 90 89 89 89 88 89 89 88
90 90 89 89 89 89 88 88 88 88 88 89 91 92 92 92 91 92 91 91 91 92 93 92 96 68 61 62 62 62 64 78 86 87 88 89 89 89 89 89 89 88
92 91 89 89 89 89 88 88 88 88 89 90 89 91 92 92 91 92 91 92 91 91 90 90 94 73 59 60 61 60 66 82 84 86 87 87 88 89 89 89 88 88
92 91 90 89 89 89 89 89 90 90 90 90 90 91 92 93 93 92 92 92 92 92 92 91 93 76 56 59 59 58 68 82 84 85 85 85 87 88 88 88 87 78
93 92 91 91 89 90 90 90 90 90 91 91 92 91 91 92 92 92 93 92 95 94 81 89 93 80 56 59 57 57 69 83 84 85 84 85 85 86 87 88 88 80
93 91 90 91 90 90 90 90 91 92 92 92 91 92 92 93 93 92 92 93 95 95 95 93 92 92 70 57 56 56 61 82 85 83 83 84 85 85 86 86 87 88

ECMWFNIL_sfc_temp_054.txt.gz
Temp
85 85 85 85 85 86 86 86 87 86 86 87 87 86 86 87 88 88 88 87 87 87 87 86 86 86 87 86 86 86 84 84 85 84 84 83 82 83 83 82 82 80
85 86 85 86 85 85 86 87 87 86 86 86 87 87 87 88 89 89 88 88 87 87 87 88 87 86 86 86 86 85 84 84 84 86 83 83 82 83 84 83 83 82
86 86 86 86 87 87 89 88 87 88 88 88 88 88 89 90 89 88 88 88 87 88 87 87 87 86 86 86 85 85 85 84 83 86 83 82 83 82 83 86 83 83
85 86 87 88 88 87 88 87 87 87 89 88 88 90 91 91 89 89 88 88 87 87 88 88 87 88 86 86 85 85 85 84 85 84 83 83 83 83 83 83 84 83
86 86 87 88 88 88 88 87 89 89 89 89 90 89 88 87 88 89 88 88 87 88 87 87 87 87 86 86 86 84 85 84 85 84 82 82 82 83 84 83 82 83
86 86 86 87 87 87 88 88 88 90 89 90 89 90 90 89 89 90 89 89 90 90 89 89 88 88 87 86 85 84 85 85 85 84 83 82 83 84 85 83 82 81
87 86 87 88 89 88 88 88 88 88 90 90 89 89 90 90 89 89 89 89 90 88 89 87 86 86 86 85 84 84 84 84 85 84 83 83 82 83 84 83 81 81
87 88 88 88 89 89 88 89 89 88 89 89 90 89 90 91 89 90 89 89 90 88 87 88 87 86 88 86 84 84 84 86 85 84 83 83 83 82 82 84 82 81
88 88 88 88 89 89 90 91 91 90 90 89 90 91 90 90 90 90 88 88 88 88 87 87 86 87 87 86 85 84 84 85 86 84 83 83 83 82 83 83 82 81
87 88 89 89 89 90 90 91 92 91 90 90 91 92 91 89 90 90 89 87 88 87 87 87 87 87 87 87 85 85 84 84 84 84 84 84 83 83 84 83 83 82
88 89 89 89 90 91 91 92 93 93 92 91 92 92 92 91 89 90 88 87 88 87 87 87 87 87 86 87 87 86 86 85 85 84 84 84 84 84 84 83 83 82
88 89 90 90 90 92 92 93 94 93 93 92 92 92 92 93 90 90 89 88 87 88 88 87 87 87 86 87 88 88 86 86 86 85 85 85 85 85 85 84 84 83
89 89 90 91 90 91 93 93 94 95 95 93 93 93 92 93 93 90 89 89 88 88 88 88 87 87 86 86 87 87 86 85 86 85 85 86 86 86 87 86 86 85
88 89 91 90 90 89 90 92 94 93 93 92 92 92 93 93 94 92 91 90 89 89 88 88 87 87 87 86 86 87 87 86 86 86 86 86 86 86 87 87 87 87
88 89 89 89 90 89 89 90 91 91 91 91 91 92 93 94 94 94 91 89 90 89 88 89 88 87 88 87 86 86 87 87 86 85 85 85 85 87 87 86 87 88
88 88 88 88 88 88 87 89 90 90 91 91 91 92 91 91 91 91 94 91 89 89 88 88 88 88 82 75 78 86 86 87 86 85 85 85 84 85 86 87 88 89
88 87 88 87 87 88 88 88 88 89 89 89 89 90 90 89 90 91 93 94 91 90 89 88 89 88 74 70 72 75 84 86 86 85 85 85 85 84 84 85 87 87
88 88 87 87 87 87 87 88 88 88 88 88 89 90 89 91 90 90 90 92 92 91 90 89 89 78 69 68 69 70 75 86 87 86 86 85 85 85 85 85 85 87
88 88 87 87 87 87 88 88 87 87 87 88 89 89 90 88 88 90 89 90 91 89 90 90 90 76 67 67 68 68 69 79 88 87 86 86 85 85 85 85 85 85
88 88 87 87 87 87 87 87 87 87 87 89 89 89 88 89 90 89 89 88 89 89 89 91 90 76 66 65 66 66 67 73 88 87 87 87 86 86 86 85 85 84
89 88 87 87 87 87 87 87 87 87 87 88 90 90 89 87 89 89 88 89 90 91 90 91 93 73 64 63 63 64 66 68 85 88 87 86 86 86 85 86 86 85
89 88 87 87 87 87 87 87 87 86 86 87 89 91 91 90 89 90 90 89 90 91 91 90 94 72 63 62 62 63 64 73 82 85 85 86 86 86 86 85 86 85
90 89 87 87 87 87 87 87 86 86 87 88 88 89 90 90 89 91 89 90 90 89 88 89 91 77 61 60 61 61 64 76 80 83 84 85 86 86 86 86 86 86
90 89 88 87 87 87 87 87 89 89 89 88 88 89 90 91 91 90 90 90 91 90 91 90 90 79 58 59 59 59 66 77 80 82 83 84 84 86 86 85 86 78
91 90 89 88 87 87 88 88 88 88 89 88 90 89 90 90 90 90 90 90 93 92 81 87 91 82 58 59 57 58 65 78 81 81 82 83 83 84 85 86 86 80
91 89 88 89 88 88 88 88 88 89 89 89 89 90 89 90 91 90 90 90 92 92 93 91 90 90 72 56 56 56 59 77 82 81 81 82 83 83 83 84 85 85

ECMWFNIL_sfc_temp_057.txt.gz
Temp
81 81 81 81 81 81 81 81 81 81 80 81 81 81 81 82 83 83 82 82 82 82 81 81 81 81 82 81 80 80 79 79 80 78 78 77 76 76 76 74 74 73
81 81 82 82 81 81 81 82 82 82 81 80 82 81 81 82 83 84 82 82 82 83 82 81 81 81 81 81 80 80 79 79 79 80 78 77 77 77 77 75 76 74
82 81 81 81 82 81 83 82 82 82 82 82 81 82 82 83 83 83 83 82 82 83 82 82 81 81 81 81 80 80 79 79 78 80 78 77 77 77 77 77 76 75
81 82 82 82 83 82 83 82 81 82 83 82 82 83 84 85 83 83 83 83 82 82 83 83 82 82 81 81 81 79 80 79 80 79 79 77 77 78 77 77 77 76
82 82 82 83 83 83 83 82 82 82 83 83 84 83 83 83 83 83 83 83 82 82 82 82 82 82 82 81 81 80 79 79 79 78 78 77 77 77 78 77 76 77
82 82 82 82 83 82 82 82 83 83 83 83 84 85 84 84 84 84 84 83 83 83 83 83 82 82 82 81 81 80 80 80 80 79 78 78 78 78 79 78 76 76
82 82 82 83 83 83 82 83 83 83 84 85 84 84 84 83 83 84 84 84 83 83 83 82 82 82 82 81 81 80 80 80 80 79 78 78 78 77 79 78 77 76
82 83 83 83 83 83 83 83 83 83 84 84 83 84 85 85 83 84 84 84 84 83 83 83 82 82 82 82 81 80 80 81 80 79 79 78 77 77 77 79 77 76
83 83 82 82 83 83 83 84 84 84 84 84 84 85 84 85 85 84 83 84 84 83 82 83 82 82 83 82 81 80 80 80 80 80 79 79 77 78 78 78 77 77
82 83 83 83 83 84 84 84 85 85 85 84 85 85 84 84 85 85 83 82 83 83 83 83 82 83 82 82 81 81 80 80 80 80 80 80 79 79 79 78 78 77
82 83 83 83 83 84 85 85 86 86 85 85 85 85 85 85 84 85 84 82 83 83 83 83 83 83 82 83 82 82 81 81 80 80 80 80 80 80 80 79 78 78
82 83 83 83 84 85 85 86 87 86 86 86 86 85 86 86 85 85 85 84 83 83 83 83 83 83 83 83 83 82 82 82 81 81 81 80 80 80 80 80 79 79
83 83 84 84 84 85 86 86 87 87 87 86 86 87 86 86 86 85 84 84 84 84 84 83 83 84 83 83 83 82 82 81 81 81 81 81 81 81 81 81 81 80
83 84 84 84 85 84 85 86 86 87 87 86 86 86 87 87 86 85 85 85 85 85 85 84 84 83 83 83 83 83 82 81 81 81 81 81 81 81 82 82 81 81
84 84 84 84 84 84 84 85 85 86 86 86 86 86 87 88 88 87 85 84 85 84 84 85 84 83 84 84 83 82 83 82 82 81 81 81 81 81 81 82 82 82
84 84 84 84 84 83 83 84 85 85 86 86 86 86 86 86 87 87 87 85 84 84 84 84 84 84 79 73 75 83 83 83 82 82 81 81 80 80 81 81 82 83
84 83 84 83 83 83 83 84 84 85 85 85 85 85 85 85 86 86 87 87 86 85 84 84 84 84 73 68 69 72 81 83 82 81 82 81 81 80 80 81 82 82
84 84 83 83 83 83 83 83 84 84 84 84 84 84 84 85 85 85 86 87 86 86 85 85 85 76 70 67 68 68 73 83 83 82 82 81 82 81 81 81 81 82
84 84 83 83 83 83 83 83 83 83 83 83 84 85 85 84 84 85 85 86 86 85 85 86 85 75 68 67 67 67 68 75 84 83 82 82 82 82 82 81 81 81
84 84 83 83 83 83 83 83 82 83 83 84 84 84 84 84 84 85 85 85 86 85 84 86 85 75 67 65 65 65 67 70 84 84 83 83 82 82 82 82 81 81
84 84 83 83 83 83 83 83 83 83 83 84 85 85 84 84 84 84 85 85 86 86 85 86 87 72 65 64 63 63 65 67 81 83 83 83 83 83 82 82 82 82
85 84 84 83 83 83 83 82 83 82 82 84 84 86 86 86 85 86 85 85 85 86 86 85 88 70 64 63 62 62 64 72 79 81 82 83 83 83 83 83 83 82
86 85 84 83 83 83 83 83 82 83 83 84 84 85 85 85 85 86 86 86 85 85 85 85 86 73 62 61 61 61 63 75 78 80 81 82 83 83 83 83 83 83
86 86 84 84 83 83 83 83 84 84 84 84 84 84 85 86 86 86 86 86 86 85 86 85 86 77 60 59 59 59 65 77 78 79 80 81 82 83 83 82 83 77
87 86 85 84 84 84 84 84 84 84 84 84 85 85 85 86 85 85 85 86 87 87 81 84 86 80 59 57 57 58 65 77 79 79 79 80 80 81 82 82 83 79
87 85 85 85 84 84 84 84 84 84 84 84 84 85 84 85 85 84 84 85 86 85 87 85 84 85 71 55 55 56 59 74 78 78 78 79 80 80 80 81 82 82

ECMWFNIL_sfc_temp_060.txt.gz
Temp
79 79 79 79 78 78 79 78 78 79 78 78 78 78 78 79 80 80 80 80 80 80 79 79 79 78 79 78 78 77 77 77 77 76 75 75 73 73 73 71 69 71
79 79 80 79 78 78 78 79 79 79 78 78 79 79 79 79 80 80 80 79 80 80 79 80 79 79 78 78 77 77 76 77 76 77 76 75 75 73 74 72 71 70
79 79 79 79 79 79 80 79 80 80 79 79 79 79 79 80 80 80 80 80 80 80 79 80 79 79 79 78 77 77 77 76 76 77 76 75 75 74 74 74 72 71
79 79 80 80 80 80 80 79 79 79 80 78 79 80 80 81 80 80 79 80 79 80 80 80 80 80 79 79 78 77 77 76 77 77 76 75 75 75 75 74 74 73
79 79 80 80 80 80 80 79 79 80 80 80 80 79 79 80 80 80 80 79 79 79 79 79 79 80 79 79 78 77 76 76 76 76 76 75 75 75 75 74 73 73
79 79 79 80 80 79 80 79 80 80 80 81 81 81 80 80 80 80 80 80 80 80 80 80 79 80 80 79 78 78 77 76 77 76 76 76 75 75 76 75 74 73
79 79 79 80 80 80 79 80 80 80 81 82 81 81 81 80 80 80 80 80 80 80 80 79 79 79 79 79 78 78 78 77 77 76 76 76 75 75 76 75 74 74
80 80 80 80 80 80 80 80 80 80 81 81 81 81 81 81 81 81 81 81 81 80 80 80 79 79 80 79 78 78 78 79 78 76 76 76 75 75 75 76 75 74
80 80 80 80 80 80 80 80 81 81 81 80 81 82 82 82 82 82 81 81 80 80 80 80 80 80 80 79 79 78 78 79 79 77 76 76 75 75 75 76 75 75
80 80 80 80 80 81 80 81 82 81 81 81 81 82 81 82 82 82 81 80 80 80 80 80 80 80 80 80 79 79 79 78 78 78 78 77 77 76 76 76 75 75
80 80 80 80 80 81 81 82 82 82 82 81 81 81 82 82 81 82 81 81 81 80 80 80 80 80 80 80 80 80 80 79 79 79 78 78 78 78 78 77 76 76
80 80 80 80 80 81 82 82 83 82 82 82 82 82 82 82 82 82 81 81 81 81 81 81 81 80 80 80 80 80 80 80 79 79 79 79 79 78 78 78 77 77
80 80 81 81 81 81 82 82 83 83 83 82 83 83 83 82 82 82 82 81 81 81 81 81 81 81 80 80 80 80 80 79 79 79 79 79 79 79 79 79 78 78
80 81 81 81 81 81 81 82 83 83 83 83 83 82 83 83 83 82 82 82 82 82 82 82 81 81 80 80 80 80 80 79 79 79 79 79 79 79 79 79 79 79
81 81 81 81 81 81 81 81 82 82 82 82 82 83 83 84 84 83 82 81 82 82 82 82 81 81 81 81 80 80 80 80 79 79 79 78 78 79 79 79 80 80
81 81 81 81 80 80 80 81 81 82 82 82 82 82 83 83 83 83 83 82 81 82 82 81 81 82 78 72 74 81 80 81 80 79 79 79 78 78 79 79 80 80
81 81 81 80 80 80 80 80 80 81 81 81 81 82 82 82 82 82 83 83 82 82 81 81 82 82 72 68 68 71 79 80 80 79 79 79 78 78 77 79 79 80
81 81 80 80 80 80 80 80 80 80 80 80 81 81 81 82 82 82 82 83 83 83 82 82 82 75 69 67 67 67 71 81 81 80 80 79 79 79 79 79 79 79
81 81 80 80 80 80 80 80 80 80 80 80 80 81 82 81 81 82 82 82 82 82 82 83 83 74 68 66 66 66 66 73 82 81 80 80 80 79 79 79 79 79
82 81 80 80 80 80 80 80 80 79 80 81 81 81 81 81 81 81 82 81 82 82 82 83 83 75 67 65 64 64 65 68 81 82 81 81 80 80 80 79 79 79
82 81 81 81 80 80 80 80 80 80 80 81 82 81 81 81 81 81 81 82 82 83 83 83 84 73 65 63 63 62 64 66 78 81 81 81 81 81 80 80 80 80
82 81 81 81 80 80 80 80 80 80 80 81 81 82 82 82 82 82 82 82 82 83 83 82 85 71 65 63 62 62 63 70 76 79 80 81 81 81 81 81 81 81
83 82 81 81 81 80 80 80 80 80 80 81 81 81 82 82 82 82 82 83 82 82 82 82 84 74 63 61 60 60 62 73 75 77 79 80 81 81 81 81 81 81
83 83 82 81 81 80 80 81 82 82 82 82 81 81 82 83 83 82 83 83 82 82 83 83 83 76 61 59 59 59 64 75 76 77 78 79 79 81 81 81 81 77
84 84 83 82 81 81 82 81 81 82 82 82 82 82 83 83 83 83 83 83 84 83 79 82 83 77 58 59 58 58 64 75 77 77 77 78 79 79 80 81 81 79
85 83 83 83 82 82 82 82 83 83 82 82 82 83 82 83 83 83 82 83 83 83 84 83 82 82 68 57 57 57 59 74 78 77 77 78 79 79 79 80 80 80

ECMWFNIL_sfc_temp_063.txt.gz
Temp
78 78 77 77 77 77 77 76 76 76 75 76 75 76 76 77 77 77 78 77 77 77 77 77 77 77 77 76 76 76 76 75 75 74 73 73 72 71 71 70 68 68
78 78 78 77 76 76 76 77 76 76 76 76 76 76 76 77 77 78 77 77 77 77 77 77 77 77 76 76 76 75 75 75 75 76 74 73 73 72 72 71 71 69
78 78 77 77 77 77 77 77 77 77 77 77 76 76 77 77 77 77 77 78 77 78 77 77 77 77 76 76 76 75 75 75 75 75 75 74 73 72 73 73 71 70
78 78 78 78 78 77 77 77 77 77 77 76 76 78 78 78 77 77 77 78 77 77 78 77 77 77 77 76 76 75 75 75 76 75 75 74 74 74 73 72 72 71
78 78 78 78 78 78 77 77 77 77 77 78 78 77 77 77 77 77 77 77 77 77 77 77 77 77 77 76 76 75 75 75 75 75 74 74 74 74 74 73 72 72
78 78 78 78 78 78 77 77 77 77 78 77 77 78 77 77 77 77 77 77 77 78 77 77 77 77 77 77 76 76 75 75 75 75 74 74 74 74 75 73 73 72
78 78 78 79 78 78 78 77 78 78 78 79 77 77 77 77 77 77 77 78 78 77 77 77 77 77 77 77 76 76 76 75 75 74 74 74 74 74 74 74 73 73
78 78 78 78 78 78 78 78 78 78 78 77 77 77 77 78 78 78 78 78 78 77 77 77 77 77 77 77 76 76 76 77 76 74 74 74 74 74 73 74 74 72
78 78 78 78 78 78 78 78 78 78 78 78 78 78 78 78 78 78 78 77 77 77 77 77 77 77 78 77 77 76 76 76 76 75 75 74 74 74 74 74 73 73
78 78 78 78 78 78 78 79 79 79 79 78 79 79 78 78 78 78 78 77 77 77 77 77 77 77 77 77 77 77 76 76 76 76 76 75 75 75 75 74 73 73
78 78 78 78 78 79 79 79 80 80 79 79 79 79 79 79 78 78 78 77 77 77 77 77 78 78 77 77 78 78 77 77 77 76 76 76 76 76 76 75 74 73
78 78 78 78 78 79 79 80 80 80 79 79 79 79 79 80 79 79 79 78 78 78 78 78 78 78 77 78 78 78 77 77 77 77 77 77 77 76 76 76 75 75
78 78 79 79 79 79 80 80 80 80 80 80 80 80 80 79 80 79 79 79 79 79 79 78 78 78 78 78 78 78 78 77 77 77 77 77 77 77 77 77 76 76
78 79 79 79 79 79 79 80 80 80 80 80 80 80 80 80 80 79 80 80 80 79 79 79 78 78 78 78 78 78 78 77 77 77 77 77 77 77 77 77 77 77
79 79 79 79 79 78 78 79 79 79 80 80 80 80 80 81 81 80 79 79 79 79 79 79 79 79 79 79 78 78 78 78 78 77 77 77 77 77 77 77 78 78
79 79 79 79 78 78 78 78 79 79 79 79 79 80 80 80 80 80 80 80 79 79 79 79 79 80 76 70 72 79 78 78 78 78 77 77 77 76 77 77 78 78
79 78 78 78 78 78 78 78 78 78 78 78 78 79 79 79 79 79 80 80 80 79 79 79 79 80 71 67 67 69 77 78 78 77 77 77 77 76 76 77 77 78
79 78 78 78 78 78 78 78 78 78 77 78 78 78 78 79 79 79 79 80 80 80 80 80 80 73 68 66 66 65 69 78 79 78 78 77 77 77 77 77 77 78
79 78 78 78 78 78 78 78 77 77 77 77 77 78 79 78 78 79 79 79 80 79 79 80 80 72 67 66 65 65 64 69 79 79 78 78 77 77 77 77 77 77
79 79 78 78 78 78 78 78 77 77 77 78 78 78 78 78 78 78 79 78 79 79 79 80 80 73 67 64 64 63 64 66 76 79 79 79 79 78 78 78 78 77
79 79 78 78 78 78 78 78 77 77 77 78 79 78 78 78 78 78 78 79 79 80 80 80 81 71 65 63 62 61 62 64 74 77 79 79 80 79 79 79 79 78
80 79 79 79 78 78 78 77 77 77 77 78 78 79 79 79 79 79 79 79 79 80 79 79 82 70 64 62 61 61 62 68 72 75 77 78 79 79 80 80 79 79
81 80 79 79 79 78 77 78 77 77 78 79 78 79 79 79 79 79 79 79 79 79 79 79 80 73 64 61 60 59 61 70 72 74 76 77 78 79 80 80 80 80
81 81 80 79 79 78 78 79 79 79 79 79 79 78 79 80 80 80 80 80 80 79 80 79 80 75 64 60 58 58 63 72 73 74 75 76 77 79 79 79 80 76
82 81 81 80 79 79 79 79 79 79 80 80 80 80 80 80 80 80 80 80 81 81 77 79 80 76 64 61 59 57 63 73 74 74 75 75 76 77 78 79 79 78
83 81 81 81 80 80 80 80 80 80 80 80 79 80 80 80 80 80 80 80 81 81 81 80 80 81 75 61 59 56 58 72 74 74 74 75 76 76 77 77 78 79

ECMWFNIL_sfc_temp_066.txt.gz
Temp
77 77 77 76 76 76 76 75 75 75 75 76 76 76 76 77 78 78 78 78 78 78 78 77 78 77 78 78 78 78 77 77 77 77 76 76 75 75 74 73 73 73
77 78 78 77 76 76 76 76 76 76 75 75 76 77 77 77 78 78 78 77 78 78 78 78 78 78 78 78 77 77 77 77 77 78 76 75 75 75 75 75 74 73
78 78 78 77 77 77 78 77 76 76 76 77 77 77 77 78 77 77 78 78 78 78 78 78 78 78 78 77 77 77 77 77 77 78 77 76 76 75 75 76 75 74
77 78 78 78 78 77 77 76 76 76 77 76 76 78 78 78 78 77 77 78 78 78 78 78 78 78 78 77 77 77 77 77 78 77 77 76 76 76 76 75 75 75
77 78 78 79 78 78 77 77 77 76 77 77 77 77 77 77 77 77 77 77 78 78 78 78 78 78 78 77 77 77 77 77 77 77 77 76 76 76 76 75 75 75
78 78 78 78 78 77 77 77 77 77 77 77 77 78 77 77 77 77 77 78 78 78 78 78 78 78 78 78 77 77 77 77 77 76 76 76 77 76 77 76 75 75
78 78 78 78 78 78 77 77 77 77 78 78 77 77 77 77 77 77 77 78 78 78 78 78 77 78 78 78 77 76 77 77 77 76 76 76 76 76 76 76 75 75
78 78 78 78 78 78 77 77 77 77 78 77 77 77 77 78 77 78 78 78 78 78 78 78 78 78 78 78 77 77 77 77 77 76 76 76 76 76 76 76 76 75
78 78 78 78 78 78 78 78 78 78 78 77 78 78 78 78 78 78 77 77 77 78 77 78 78 78 78 78 77 77 77 77 77 77 76 76 76 76 77 76 75 75
78 78 79 78 78 78 78 79 79 79 78 78 79 79 78 78 78 78 78 77 77 77 77 77 78 78 78 78 78 77 77 77 77 77 77 77 77 77 77 77 77 76
78 78 78 78 78 79 79 80 80 80 79 79 79 79 79 78 78 78 78 77 77 77 77 77 78 78 78 78 78 78 78 78 78 77 77 77 77 77 77 77 76 76
77 78 78 78 78 79 79 80 80 80 79 79 79 79 79 79 78 78 78 78 78 78 78 78 78 78 78 78 79 79 78 78 78 78 78 78 78 78 78 78 77 77
78 78 78 79 78 79 80 80 80 81 80 80 80 80 80 79 79 78 78 78 78 79 79 78 78 78 78 78 78 78 78 78 78 78 78 78 78 79 79 79 78 78
78 78 79 78 79 78 78 79 80 80 79 80 80 79 80 80 80 79 79 79 79 79 79 79 78 78 78 78 78 78 78 78 78 78 78 78 78 79 79 79 79 79
78 78 78 78 78 78 78 78 78 79 79 79 79 79 80 81 81 81 79 79 79 79 79 79 79 78 79 79 78 78 79 78 78 78 78 78 78 79 79 79 79 80
77 78 78 77 77 77 77 78 78 78 79 78 79 79 79 79 79 79 80 79 79 79 79 79 79 79 75 69 71 79 79 79 79 78 78 78 78 78 79 79 79 80
77 77 77 77 77 77 77 77 77 78 77 77 78 78 78 78 79 79 80 80 80 80 79 79 79 79 70 66 66 68 77 79 78 78 78 78 78 78 77 78 79 80
77 77 77 77 77 77 77 77 77 77 77 77 77 78 77 79 78 78 78 79 80 80 80 80 80 72 67 65 65 65 68 78 80 79 79 78 78 78 78 79 79 80
78 77 77 77 77 77 77 77 77 77 77 77 77 78 78 77 77 78 78 78 79 78 79 80 80 71 66 65 64 64 63 69 79 80 79 79 79 79 79 78 79 79
78 77 77 77 77 77 77 77 76 76 77 78 78 78 77 77 78 78 78 77 78 78 78 80 80 72 65 63 63 63 63 65 77 79 79 80 79 79 79 79 79 78
78 78 77 77 77 77 77 77 77 77 77 77 78 78 77 77 77 77 78 78 79 79 79 80 81 69 64 62 61 60 61 64 74 77 78 79 80 80 79 80 80 80
79 78 77 78 77 77 77 76 77 76 76 77 78 79 79 79 78 79 78 78 79 79 79 79 81 69 64 62 60 59 61 69 73 75 76 78 79 79 80 80 80 80
79 79 78 78 78 77 77 77 77 77 77 78 77 78 78 78 78 79 79 79 79 79 78 78 80 72 63 61 60 59 61 71 73 74 75 76 77 79 79 80 80 81
80 80 78 78 78 77 77 78 79 79 79 79 78 78 78 79 80 79 79 80 80 79 80 79 80 74 63 60 59 58 64 73 73 74 75 75 77 78 79 79 80 76
81 80 79 79 78 78 79 78 78 78 79 79 79 79 79 79 80 79 79 80 81 81 76 78 80 76 63 60 58 57 64 74 75 75 75 75 76 77 78 79 79 77
81 80 80 80 79 79 79 79 80 80 80 79 79 80 80 80 80 80 79 80 81 81 81 80 80 81 75 59 58 56 58 73 75 75 75 75 77 77 77 78 78 79

ECMWFNIL_sfc_temp_069.txt.gz
Temp
82 82 82 82 83 83 83 83 84 84 83 85 85 85 85 85 86 85 86 85 85 85 85 84 84 84 85 84 84 84 84 84 85 85 85 84 84 85 85 84 84 84
82 82 82 83 82 83 83 84 83 83 83 84 85 86 85 85 86 86 85 85 85 85 85 85 84 84 84 85 84 84 83 84 84 86 84 84 84 85 85 84 85 85
82 82 83 83 84 83 85 84 84 84 85 85 85 85 86 86 86 85 85 85 85 86 85 85 85 84 84 85 84 84 84 83 83 86 84 83 85 84 85 87 86 85
82 83 84 84 84 84 84 84 83 84 85 84 85 86 86 87 85 85 85 84 85 85 86 85 85 86 85 85 84 84 84 84 85 85 84 84 84 85 85 85 85 85
82 83 84 85 85 84 84 83 85 84 85 85 86 85 84 84 84 86 85 85 84 85 85 85 85 85 84 84 84 84 84 85 85 84 83 83 84 84 85 85 84 84
83 83 83 84 84 84 84 84 84 85 85 86 85 86 86 85 85 85 85 86 86 86 87 87 86 86 86 84 84 84 85 86 86 84 83 83 85 86 86 84 84 83
83 83 83 84 85 84 84 84 84 84 86 86 85 85 86 85 84 85 85 85 86 85 86 85 85 85 85 84 83 83 83 84 84 84 83 84 84 84 86 85 83 83
84 85 84 84 85 84 84 85 85 84 85 85 85 85 85 86 85 86 85 85 86 85 85 86 85 84 86 85 84 83 84 85 84 83 82 83 83 83 84 85 84 83
84 84 84 84 85 85 86 86 86 85 85 84 86 87 86 86 86 86 85 84 84 84 84 84 84 85 85 85 84 83 83 84 85 84 83 83 83 83 84 84 84 83
84 84 85 86 85 86 86 87 88 87 86 85 86 87 86 85 86 86 85 83 84 84 84 84 84 84 85 85 84 84 84 83 84 84 84 84 84 84 85 84 84 83
84 85 85 85 86 87 87 88 88 88 87 86 87 87 87 86 85 85 84 84 84 84 84 84 84 85 84 85 86 85 85 85 84 84 84 84 84 84 84 84 84 84
83 85 85 85 86 87 88 88 88 88 88 87 87 87 87 87 86 86 85 84 84 85 84 84 84 84 84 84 86 86 85 85 85 85 85 85 85 85 85 85 85 84
84 84 85 86 85 86 88 88 88 89 88 88 88 87 87 87 88 86 85 85 84 85 85 84 84 85 84 84 84 85 85 84 85 85 85 85 86 86 87 87 86 86
83 84 86 85 86 84 86 87 88 88 87 87 87 86 87 88 88 87 87 86 86 85 85 85 85 84 84 84 84 85 85 85 85 85 86 86 86 86 87 88 87 87
83 84 85 85 85 84 84 85 85 86 86 86 85 86 88 88 88 88 86 85 86 85 85 86 85 85 85 85 84 84 85 85 85 85 85 84 85 86 87 86 87 88
83 83 83 83 83 82 82 83 84 84 85 85 85 85 86 86 86 86 88 86 85 85 85 85 85 85 80 72 74 84 85 85 85 84 84 85 84 84 86 87 88 89
82 82 83 82 82 83 82 83 83 83 83 83 84 84 84 84 84 85 86 87 87 86 86 85 85 85 72 67 67 69 82 85 84 84 84 84 84 83 83 85 87 87
82 82 82 82 82 82 82 82 83 82 82 82 83 83 83 85 84 84 84 86 87 87 87 86 86 75 67 66 66 65 70 83 86 85 85 85 85 85 85 85 85 87
82 82 81 82 81 82 82 82 82 82 82 82 83 83 84 82 83 84 84 84 85 85 86 87 88 73 66 65 65 64 64 73 85 86 85 85 85 85 85 85 85 85
82 82 81 82 82 82 82 82 81 81 82 83 83 83 82 82 83 83 83 83 84 84 84 87 87 75 65 64 63 63 63 67 83 85 85 86 85 85 86 85 85 84
82 82 81 82 82 82 81 81 81 81 82 83 84 84 83 82 83 83 83 83 85 85 85 86 88 71 63 62 61 61 62 66 82 83 84 85 85 86 85 86 85 85
83 82 82 82 82 82 81 81 81 81 81 82 83 85 85 85 84 85 84 84 84 85 85 85 88 69 63 61 60 60 61 74 80 81 82 84 84 85 85 85 85 85
84 83 82 82 82 82 81 81 81 81 82 83 82 84 85 84 84 85 84 85 85 84 84 84 87 74 62 60 59 58 63 78 80 81 82 82 83 84 85 85 85 85
84 84 82 82 82 82 82 83 83 84 83 83 83 83 84 86 86 85 85 85 86 85 86 85 86 76 60 59 58 57 66 79 80 81 81 82 82 84 84 84 85 79
85 84 84 83 82 83 83 83 83 83 84 84 85 85 85 85 85 85 86 86 88 88 79 83 87 80 61 59 57 56 66 80 81 82 81 82 82 83 84 84 84 81
86 84 84 84 83 83 83 84 84 85 85 85 85 85 85 86 86 85 85 86 88 88 88 87 86 87 77 57 57 55 59 78 82 81 80 81 82 82 83 83 84 85

ECMWFNIL_sfc_temp_072.txt.gz
Temp
87 87 87 87 88 89 88 88 90 89 89 91 91 91 91 91 91 91 92 91 91 91 90 89 89 89 90 89 89 89 89 89 90 90 89 89 90 90 90 90 90 89
87 87 87 88 87 88 88 90 89 89 89 89 91 92 91 91 92 92 91 91 91 91 90 91 90 89 89 90 89 88 88 88 88 91 89 88 89 90 90 90 90 90
88 88 88 88 89 89 91 90 89 90 91 91 91 91 92 92 92 91 91 91 91 92 90 90 90 89 89 89 89 89 89 87 88 91 89 88 90 89 90 93 92 90
87 87 89 90 90 89 90 89 89 89 91 91 91 93 93 94 92 92 91 90 90 90 91 91 90 91 90 90 89 89 89 88 89 89 88 89 89 90 90 90 91 92
88 88 89 90 90 89 89 89 91 91 91 91 92 92 91 90 91 92 91 90 89 91 90 90 90 90 90 89 89 88 89 89 89 88 88 88 88 88 90 91 89 90
88 88 88 89 90 89 90 90 90 91 91 93 91 93 92 91 91 92 92 92 92 92 92 93 91 91 91 90 89 88 89 90 91 88 88 87 89 90 91 90 89 89
89 88 89 90 91 90 89 89 90 90 92 93 92 91 92 92 90 90 91 91 92 92 93 91 90 91 91 90 88 88 89 88 90 88 87 88 88 88 91 90 88 88
90 91 90 90 90 90 89 90 90 90 91 91 92 91 92 93 91 92 91 91 92 91 91 91 90 89 92 91 89 88 88 90 89 88 87 88 88 87 88 90 89 87
90 90 90 90 90 91 92 92 92 91 91 91 92 93 92 92 92 93 90 90 90 90 90 90 89 90 91 90 89 88 88 90 90 89 88 88 88 87 88 89 88 88
89 90 91 91 92 92 92 93 94 93 92 91 92 94 93 91 92 92 91 89 89 89 89 89 89 90 90 91 89 89 89 88 89 89 89 89 89 89 90 89 89 88
90 91 91 91 92 94 94 95 95 96 93 92 93 93 94 93 91 91 90 89 89 89 89 89 89 90 89 91 91 91 90 90 89 89 89 89 89 89 89 89 89 90
89 91 92 92 92 94 95 96 96 96 95 93 94 93 93 95 92 92 91 89 89 90 90 89 89 89 89 90 92 92 91 91 91 90 90 90 90 91 91 90 90 90
90 91 91 93 92 94 95 95 96 97 96 95 94 94 94 95 95 92 91 91 89 90 91 89 89 90 89 89 90 91 91 90 91 91 90 91 91 92 93 93 92 92
89 90 93 92 92 91 93 95 96 96 95 94 94 93 95 95 95 94 93 92 91 91 90 90 89 89 89 89 89 90 91 90 90 91 92 91 91 92 93 94 94 94
89 90 91 91 91 90 91 92 93 93 93 93 92 93 95 96 96 96 93 92 92 91 91 91 91 90 90 90 89 89 90 91 90 90 90 90 91 93 93 92 94 96
88 89 89 89 89 89 89 90 92 92 93 92 92 92 93 92 93 93 95 93 91 91 91 91 91 91 85 77 80 89 90 91 91 90 90 90 90 90 92 93 94 96
88 88 88 88 88 89 88 89 89 90 90 90 90 91 91 90 91 92 94 95 93 92 91 91 91 91 76 69 70 74 88 90 90 89 89 89 90 89 89 91 93 93
88 87 87 87 87 87 87 88 89 89 88 88 89 90 89 91 91 91 91 93 94 94 93 92 92 80 69 67 68 69 75 89 92 90 91 90 90 90 90 91 91 93
87 87 87 87 87 87 87 87 87 87 87 88 89 89 89 88 88 90 89 90 92 91 93 94 94 76 66 66 67 67 67 78 91 91 91 91 90 90 90 90 90 90
87 87 86 86 87 87 87 87 86 86 87 89 89 88 87 88 89 88 89 88 89 90 89 93 94 77 65 64 65 64 65 71 89 90 90 91 91 91 91 90 89 89
87 87 86 87 87 86 86 86 86 86 87 88 90 89 88 87 88 88 88 88 90 91 90 92 96 71 63 63 62 62 63 69 86 88 89 89 90 90 89 91 90 90
88 87 86 87 86 86 86 86 86 86 86 87 89 91 91 91 89 90 90 89 90 91 91 90 94 71 62 61 60 61 62 78 85 85 86 88 89 89 89 89 90 89
89 88 87 86 86 86 86 86 85 86 87 88 88 90 91 91 90 91 90 91 90 89 89 90 93 76 61 59 59 59 65 83 84 85 85 86 87 88 89 89 89 89
89 89 87 86 86 86 86 87 88 88 88 88 88 89 91 92 92 91 91 91 92 91 92 90 92 79 60 59 58 57 70 83 84 85 85 85 86 88 88 88 89 84
90 89 88 88 87 87 88 88 88 88 89 89 91 91 91 91 91 91 92 91 95 94 83 88 93 83 59 60 57 57 70 84 85 85 85 85 86 87 88 89 89 85
90 88 88 89 88 88 88 88 89 90 90 90 90 91 91 92 93 92 91 92 94 94 94 92 91 93 75 58 57 55 61 83 86 85 85 85 86 87 88 88 88 89

ECMWFNIL_sfc_temp_075.txt.gz
Temp
89 89 89 89 89 90 90 90 91 91 90 93 92 91 92 92 93 93 93 93 91 91 91 90 90 90 91 90 90 89 90 90 91 92 90 91 91 91 92 92 92 91
89 89 89 89 89 89 90 92 91 91 90 91 93 93 92 93 93 93 93 92 92 91 91 91 90 90 90 90 90 89 89 89 89 93 90 90 90 91 92 92 92 92
89 89 90 89 91 90 93 92 91 92 92 93 93 93 94 94 93 93 92 92 92 92 91 91 91 90 90 90 90 90 90 88 88 92 90 89 91 90 91 94 93 92
89 89 90 91 91 91 92 91 92 91 93 93 93 96 95 96 94 93 92 92 91 91 92 91 91 92 90 90 90 89 90 89 90 90 90 90 89 91 91 92 93 94
89 89 91 91 92 91 91 91 93 93 93 93 95 94 93 93 92 93 92 92 91 92 92 91 91 91 90 89 89 88 90 90 90 89 88 88 89 90 91 92 91 91
90 89 90 91 91 91 92 92 92 94 93 95 94 95 95 94 94 93 93 93 93 94 94 93 92 92 92 90 89 89 90 91 91 89 88 88 90 92 93 91 91 90
90 90 91 92 93 92 91 91 92 93 94 95 94 94 95 94 93 93 93 93 94 92 94 92 91 91 91 90 89 88 89 89 90 89 88 89 89 89 92 91 90 89
91 92 91 92 93 92 92 93 93 92 93 94 95 94 95 95 93 95 94 94 94 93 92 93 92 91 94 92 89 88 89 91 90 89 88 88 89 88 89 91 90 89
92 91 91 92 93 93 94 95 94 94 94 93 95 96 95 95 94 95 92 93 93 92 92 92 91 92 92 92 90 89 89 91 91 90 89 88 88 88 89 90 89 89
91 92 93 93 94 94 95 96 96 95 94 94 96 97 95 94 95 94 93 91 92 92 91 91 91 92 92 92 91 91 89 89 90 90 90 90 90 90 90 90 90 89
92 93 93 93 94 96 96 97 97 97 95 95 96 97 97 95 93 94 92 91 92 92 91 91 92 92 91 93 93 92 91 91 90 90 90 90 90 90 90 90 90 90
91 93 94 94 94 96 97 97 98 98 97 96 96 96 96 97 94 94 93 91 91 92 92 91 91 91 90 91 94 93 92 92 91 91 91 91 91 92 91 91 91 91
92 93 94 95 94 96 97 97 98 99 99 97 97 97 97 98 97 94 94 93 91 92 92 91 91 92 90 90 92 92 92 91 92 92 91 91 92 93 94 93 93 93
91 93 95 94 94 93 95 97 98 98 97 97 96 96 97 97 98 95 95 95 93 93 92 92 91 91 90 90 90 92 92 92 91 92 92 92 92 93 94 95 95 95
91 92 94 94 94 93 94 95 96 96 96 96 95 96 98 98 99 98 95 94 94 92 92 93 92 91 92 91 90 91 92 93 91 91 92 92 92 94 94 94 96 97
90 91 92 92 92 91 91 93 95 95 97 96 95 95 95 95 95 96 97 95 93 92 93 93 93 93 87 80 82 91 91 93 92 91 91 91 91 91 94 95 96 97
90 90 91 91 91 91 91 92 92 93 93 93 94 94 93 92 95 96 97 97 95 94 93 93 94 94 78 72 73 78 90 91 91 90 90 91 92 90 90 93 95 95
90 90 90 90 90 90 90 91 92 92 92 92 93 93 92 95 94 94 94 97 96 96 95 94 95 83 70 70 71 72 79 91 93 92 92 91 91 92 91 92 93 95
89 89 89 90 89 90 90 90 90 91 91 91 93 93 93 91 91 93 93 94 96 94 95 95 96 76 68 69 70 69 70 81 94 93 93 93 92 91 92 91 91 92
89 89 89 89 90 90 89 89 89 90 91 92 92 92 91 91 93 92 92 91 93 94 92 95 97 75 67 66 68 67 69 74 93 94 93 94 92 92 93 92 91 91
89 89 88 89 89 89 89 89 89 89 90 91 93 93 91 90 91 91 91 92 94 95 94 95 99 69 65 63 65 65 66 72 89 92 93 93 93 93 91 93 92 92
90 89 88 89 89 88 88 88 88 88 89 90 92 94 93 93 92 93 92 92 93 94 95 92 95 63 65 63 63 64 64 81 87 87 88 90 91 92 92 91 92 91
91 90 89 88 89 88 88 88 88 88 89 91 91 93 94 93 92 93 92 93 92 92 92 91 95 69 62 61 61 61 67 84 85 86 86 87 89 90 91 91 91 91
91 91 89 88 88 88 88 89 90 90 91 91 91 92 94 95 94 93 93 93 94 93 94 93 96 76 59 59 60 59 72 84 85 86 86 86 87 89 90 90 90 87
92 91 90 90 88 89 90 90 90 90 91 91 93 93 93 94 94 93 94 94 97 96 86 91 96 81 57 60 58 57 72 86 86 86 85 86 87 88 89 90 90 87
92 90 90 91 90 89 90 90 91 92 92 92 93 93 94 96 96 94 94 95 97 97 97 95 94 92 69 58 57 56 64 85 87 85 85 86 87 87 88 89 89 90

ECMWFNIL_sfc_temp_078.txt.gz
Temp
86 85 86 86 86 86 86 86 87 87 86 88 87 86 86 87 88 88 89 88 88 88 88 87 87 87 88 88 88 87 85 86 87 87 86 87 86 88 88 88 88 86
86 86 85 86 85 86 86 88 87 86 86 86 87 87 87 88 89 89 88 88 88 88 88 88 87 87 87 87 86 86 85 86 86 90 87 87 86 87 89 88 89 88
86 86 87 86 87 88 90 89 88 88 88 89 89 88 89 90 89 88 88 89 88 89 88 87 87 87 87 87 86 86 86 85 85 88 87 86 87 86 87 90 89 89
86 86 88 88 88 88 89 88 88 87 89 88 89 92 91 93 89 89 88 88 87 87 88 88 88 88 87 87 86 86 86 85 86 87 86 87 86 87 87 87 88 89
87 87 88 89 89 88 88 88 90 89 90 89 91 90 88 88 88 89 88 88 87 88 87 87 88 88 87 86 86 85 86 86 86 86 85 86 86 86 87 87 87 87
87 87 87 88 88 88 88 89 89 90 90 92 90 92 91 90 89 90 89 89 90 90 89 89 88 88 88 86 86 85 86 87 87 86 85 85 86 87 89 87 86 86
87 87 88 89 90 89 88 88 89 89 91 92 90 90 91 91 89 89 89 89 90 88 89 87 86 87 87 86 85 85 85 85 86 85 84 85 85 86 89 88 86 86
88 89 89 89 90 89 89 89 90 90 90 90 91 90 91 92 90 91 90 89 90 88 88 89 87 86 89 87 85 85 85 88 87 85 84 84 85 84 85 87 87 85
89 89 89 89 90 90 91 91 91 91 91 90 92 92 91 91 91 92 88 88 88 88 87 88 86 87 88 87 86 85 85 86 87 86 85 85 85 84 86 86 86 85
88 88 90 90 90 91 91 92 92 92 92 92 93 94 92 91 91 91 89 87 88 87 87 87 87 88 88 88 86 86 85 85 86 86 86 86 86 86 86 86 86 85
89 90 89 89 90 91 92 93 93 93 92 92 93 93 93 92 90 90 88 88 89 88 87 87 88 88 87 89 88 88 87 87 86 86 86 86 86 86 87 86 86 86
88 90 90 90 91 92 92 93 94 93 93 93 93 93 93 93 91 91 90 88 88 89 88 87 87 88 87 87 90 90 88 88 87 87 87 87 87 87 87 87 87 86
89 90 90 91 90 92 93 93 94 95 94 93 94 94 94 94 93 91 90 90 88 89 90 88 87 88 86 87 87 88 88 87 88 88 87 87 88 88 89 89 89 89
88 90 91 90 90 89 91 93 94 94 93 92 92 93 95 94 94 92 92 91 90 90 89 89 88 88 87 86 87 88 88 87 87 88 88 88 88 88 89 90 90 90
88 89 90 89 90 89 90 91 92 92 92 92 91 93 95 96 95 94 92 91 90 89 89 90 89 88 88 88 87 87 88 88 87 87 88 87 87 89 89 89 91 92
87 88 88 88 88 88 88 90 91 91 93 92 91 92 91 91 92 92 93 92 90 89 89 90 89 89 85 79 81 87 87 90 88 86 87 87 86 87 89 90 91 92
87 87 88 87 87 88 88 88 89 90 89 89 90 90 90 89 91 92 93 93 92 91 90 90 90 90 78 72 74 78 87 87 87 86 86 86 87 86 85 88 90 90
87 87 87 87 87 87 87 88 89 89 88 88 90 90 88 91 91 91 90 92 92 92 91 91 91 82 71 70 71 72 79 87 89 88 88 87 87 88 87 87 88 90
87 87 87 87 87 87 87 88 87 88 88 89 90 90 90 88 88 90 90 91 91 89 91 91 92 77 68 69 70 70 71 82 89 89 89 88 87 87 87 86 86 87
87 87 87 87 87 87 87 87 87 87 88 90 90 89 88 89 91 89 89 88 89 89 88 91 92 75 67 67 68 68 69 74 88 89 89 89 88 88 89 87 86 86
87 87 87 87 87 87 87 86 87 87 88 89 92 91 89 88 89 89 89 89 91 92 90 92 95 70 65 65 66 66 68 72 85 89 89 88 88 88 87 88 87 87
88 87 87 87 87 87 87 86 86 86 87 88 90 93 92 91 90 91 90 91 91 92 93 90 93 65 65 64 64 65 66 77 83 84 85 87 88 88 87 87 87 87
89 88 87 87 87 87 87 87 86 86 88 89 89 91 92 91 90 91 90 91 91 90 90 89 90 67 63 62 63 63 67 79 82 83 84 85 85 86 87 87 88 87
89 88 87 87 87 87 87 88 89 89 89 89 90 91 92 92 91 90 91 91 91 91 92 90 92 71 60 61 62 61 70 81 82 83 83 83 84 85 85 85 87 87
90 89 88 88 87 87 88 88 88 88 90 90 91 92 91 91 90 90 91 91 94 94 85 89 93 76 57 61 59 59 69 82 82 83 82 82 83 83 84 85 85 85
91 88 88 89 88 88 88 88 89 90 90 90 90 91 91 93 92 90 91 91 93 93 93 92 92 86 66 59 59 57 63 82 83 82 81 82 83 83 83 84 85 86

ECMWFNIL_sfc_temp_081.txt.gz
Temp
82 81 81 81 80 81 81 80 80 80 79 80 80 80 81 81 83 82 82 82 82 82 81 81 81 81 83 80 80 81 80 81 82 81 81 80 80 81 82 80 79 79
81 81 82 81 80 79 80 82 81 81 79 80 81 80 80 81 83 83 82 82 83 82 81 82 81 81 80 80 80 80 79 79 80 83 81 80 80 80 81 80 80 79
82 81 81 81 81 81 82 82 82 82 82 82 82 82 81 82 81 82 82 83 83 83 82 81 81 81 81 80 80 80 80 78 78 80 80 80 80 80 79 82 81 80
81 82 82 83 83 82 83 82 82 82 83 81 82 84 85 86 83 81 82 84 82 82 82 82 82 82 81 81 80 80 80 79 79 80 79 80 80 81 80 80 80 80
82 82 83 83 84 83 83 83 83 83 83 83 84 84 83 83 83 83 81 82 82 82 82 82 82 82 81 81 80 80 80 79 80 80 79 78 80 81 80 79 78 79
83 83 83 83 83 83 83 83 83 84 84 84 84 84 84 84 84 84 82 83 83 83 83 83 82 82 82 81 80 80 80 80 80 80 79 78 79 80 83 80 79 79
83 83 83 84 84 84 84 84 84 84 85 85 85 84 84 85 84 84 84 83 84 83 83 82 81 81 82 81 80 79 80 79 80 80 79 78 78 78 81 81 79 79
83 84 84 84 84 84 84 84 84 84 85 85 85 85 85 85 84 85 85 84 84 83 82 83 82 81 82 81 80 79 80 81 80 79 79 79 78 78 79 80 79 79
84 83 83 84 84 84 84 85 85 85 85 85 85 86 86 85 85 86 84 84 84 83 82 82 81 82 82 81 81 80 80 81 81 79 79 79 79 79 79 79 78 77
83 84 84 84 84 85 85 86 86 86 86 86 86 87 86 86 85 85 84 83 83 83 82 82 82 82 82 82 81 81 80 80 80 79 79 80 80 79 80 80 79 78
83 84 84 84 85 86 86 86 87 87 87 86 87 86 87 86 84 85 84 83 84 83 82 82 82 82 82 82 82 82 81 81 80 80 79 79 80 80 81 79 79 79
83 84 84 84 85 86 86 87 87 87 87 87 87 87 87 87 85 85 84 83 84 84 83 83 82 82 82 82 83 82 81 81 81 80 80 80 80 80 81 80 80 80
83 84 85 85 85 86 87 87 88 88 88 87 88 88 88 87 87 86 85 84 84 84 84 83 82 83 82 82 82 82 82 81 81 81 80 80 81 81 82 82 81 81
84 84 85 85 86 85 86 87 88 88 87 87 87 88 88 88 87 86 86 85 84 84 84 84 83 82 82 82 82 83 82 81 81 81 81 81 81 82 82 83 82 83
84 85 85 85 85 85 85 86 87 87 87 87 87 88 89 89 89 88 86 85 85 84 84 84 84 83 83 83 82 82 82 82 82 81 81 81 81 82 82 82 84 85
84 84 84 84 84 84 84 85 86 86 87 87 86 87 87 87 87 87 87 86 84 84 84 84 84 84 81 77 78 83 82 84 82 82 82 81 80 81 81 82 84 85
83 83 84 83 83 84 84 84 85 86 85 85 86 86 86 85 86 87 87 87 86 85 84 84 85 85 76 71 72 76 83 82 82 81 81 81 80 80 80 81 83 83
83 83 83 83 83 83 83 84 85 85 84 84 85 85 85 86 85 85 86 87 87 86 85 85 85 79 71 69 70 71 77 83 82 82 82 81 81 81 80 81 82 83
83 83 83 83 83 83 83 84 83 84 84 84 85 86 86 85 84 84 85 86 86 84 85 86 85 76 69 68 69 69 70 79 83 82 81 82 81 81 81 80 80 81
83 83 83 83 83 83 83 83 83 83 84 85 85 85 85 85 86 84 83 84 85 85 84 86 85 76 67 66 67 67 68 73 84 83 82 82 82 82 83 81 80 80
83 83 83 83 83 83 83 83 83 83 84 85 86 85 85 84 85 85 83 84 86 86 85 85 88 72 65 65 65 65 66 70 82 83 83 82 81 82 82 83 81 80
84 83 83 83 83 83 82 82 83 83 83 84 86 86 86 86 86 86 85 84 85 86 86 85 88 68 64 64 64 64 66 74 80 81 81 80 81 80 81 82 82 82
85 84 83 83 83 83 83 83 83 83 84 85 85 86 85 85 85 86 86 86 85 84 85 84 86 70 63 62 63 63 66 76 78 80 80 81 80 80 81 81 82 82
86 85 84 83 83 83 83 84 85 85 85 85 85 86 86 86 87 87 87 87 86 85 85 85 87 73 61 62 61 61 68 78 79 79 80 80 81 80 79 79 80 85
87 86 85 84 84 84 84 84 84 85 86 86 86 87 87 87 86 86 87 87 88 88 83 84 87 75 59 62 60 60 67 79 79 79 79 79 79 80 81 80 79 81
87 86 85 85 84 84 85 85 85 86 86 86 86 87 87 87 86 86 86 87 87 87 88 87 86 80 66 59 59 58 62 78 79 78 78 78 79 79 79 80 80 80

ECMWFNIL_sfc_temp_084.txt.gz
Temp
79 77 77 78 79 79 78 77 76 77 77 78 78 78 78 79 79 80 80 80 80 79 79 79 79 79 79 79 79 79 78 78 78 77 77 77 76 76 78 77 75 74
79 78 78 78 78 79 78 79 77 77 77 77 78 79 78 78 78 80 79 79 80 80 79 80 79 79 78 78 78 79 77 78 77 79 77 77 77 77 78 77 77 76
79 79 78 78 79 79 81 80 78 77 77 78 78 78 78 79 79 78 80 80 80 80 79 79 79 79 79 78 78 78 78 77 77 78 78 77 77 77 78 78 77 76
79 80 80 80 80 80 81 80 78 77 77 77 78 79 80 81 79 79 79 81 79 80 80 79 79 80 79 79 78 78 78 77 78 78 78 77 78 78 78 77 77 76
80 80 80 81 81 80 80 80 80 80 79 79 79 79 79 79 79 79 79 79 79 80 79 79 79 79 79 78 78 78 78 77 77 76 76 76 77 78 79 78 77 77
80 80 80 80 80 80 80 80 80 81 80 80 80 80 80 80 79 79 79 80 80 80 80 80 79 80 80 79 78 78 78 77 78 77 76 76 77 77 80 79 77 76
80 80 80 81 81 80 80 80 81 81 81 82 81 80 81 80 80 79 79 80 80 80 80 80 79 79 79 79 78 77 77 77 77 77 77 76 76 76 78 78 77 76
81 81 81 81 81 81 80 80 80 81 81 81 81 81 81 82 81 82 80 80 80 80 80 80 79 79 80 80 78 77 77 79 78 77 77 76 76 76 76 78 77 76
82 81 81 81 81 81 81 82 81 81 82 81 82 82 82 82 82 82 81 80 80 80 79 80 79 79 80 79 79 78 78 78 78 77 77 76 76 76 76 76 76 76
81 81 82 81 81 82 82 82 83 83 82 82 82 83 82 82 82 82 82 80 80 80 79 79 79 79 79 79 79 79 78 78 78 77 78 78 77 77 77 76 76 75
81 82 81 81 82 82 82 83 84 84 83 83 83 83 83 82 82 82 81 80 80 80 79 79 80 80 79 79 80 80 79 79 78 78 77 78 78 78 79 77 77 76
81 82 82 82 82 82 83 84 84 84 84 83 83 83 83 83 82 82 82 81 81 81 80 80 80 80 79 79 80 80 79 79 79 78 78 78 78 78 78 78 77 77
81 82 82 82 82 83 84 84 84 84 85 84 84 84 84 83 83 82 82 82 81 82 81 80 80 80 79 79 80 79 79 78 78 78 78 78 78 78 79 78 78 78
81 82 82 82 83 82 83 84 84 84 84 84 84 84 84 84 84 83 83 82 82 82 82 82 80 80 79 79 79 79 79 78 78 78 78 78 78 78 78 79 79 79
81 82 82 82 82 82 82 82 83 83 84 84 84 84 85 85 85 85 83 82 82 82 82 82 81 80 80 80 79 79 79 79 78 78 78 77 77 78 78 79 79 80
81 81 81 81 81 81 81 82 83 83 83 83 83 84 84 84 84 84 84 83 82 81 82 82 81 81 79 74 76 80 79 80 79 79 78 78 77 77 78 78 80 81
81 81 81 80 81 81 81 81 81 82 82 82 82 83 83 83 83 83 84 84 83 82 81 82 82 82 74 69 70 73 79 79 79 78 78 78 78 77 77 78 79 79
81 81 80 80 80 80 80 81 81 81 81 81 82 82 82 83 83 83 83 84 84 83 82 82 82 77 70 68 69 69 74 81 80 79 79 78 78 78 78 78 78 79
81 81 80 80 80 80 81 81 80 81 81 81 82 83 83 82 82 83 82 83 83 82 82 83 83 75 69 67 67 68 68 76 81 80 79 79 78 78 78 78 78 78
81 81 80 80 80 80 80 80 80 80 81 82 83 82 82 82 83 82 82 82 83 82 82 83 82 76 68 65 66 66 67 71 81 81 80 79 79 79 79 78 78 78
81 81 80 80 80 80 80 80 80 80 81 82 83 83 82 81 82 82 82 82 83 83 83 83 84 73 66 64 63 64 65 69 80 81 80 79 79 79 79 79 78 78
82 81 81 81 80 80 80 80 80 80 80 82 83 84 84 83 83 84 83 82 83 83 83 82 85 70 65 63 63 63 65 72 77 79 79 79 79 78 79 79 79 79
83 82 81 81 81 80 80 80 80 80 81 82 82 83 83 83 83 83 83 83 83 83 82 83 84 73 64 62 61 61 64 74 76 78 79 79 79 79 79 79 79 79
84 83 82 81 81 80 81 81 82 82 82 83 82 83 83 84 84 84 84 84 83 83 83 83 84 75 62 61 60 60 67 75 76 77 78 79 79 80 79 78 79 82
85 84 83 82 81 81 82 82 82 82 83 83 83 84 84 84 84 84 84 84 85 84 81 83 84 77 60 61 60 59 66 77 77 77 77 78 78 79 79 78 78 80
85 84 83 83 82 82 82 82 83 83 83 83 83 84 84 84 84 83 84 84 85 84 85 84 84 84 70 59 59 58 61 76 78 77 76 77 78 78 78 78 78 77

ECMWFNIL_sfc_temp_087.txt.gz
Temp
77 76 76 75 74 74 74 74 74 74 74 74 74 74 74 75 75 76 77 76 77 77 77 77 77 76 77 76 76 76 76 76 76 76 75 74 74 73 74 72 71 72
77 76 77 76 75 75 74 75 74 74 74 74 75 75 75 74 75 76 76 76 77 77 77 77 77 76 76 76 75 75 75 76 76 77 75 74 75 73 74 73 73 72
77 76 76 76 76 75 76 75 75 75 75 76 76 75 75 75 75 75 76 76 76 77 77 77 77 77 76 75 75 76 76 75 75 76 76 75 75 75 74 74 74 73
77 77 77 77 77 77 77 75 74 75 76 75 75 77 77 78 76 75 75 78 76 76 77 77 77 77 76 76 75 75 76 75 76 76 75 75 75 75 75 74 74 74
78 78 78 78 78 77 76 76 76 75 75 76 77 76 76 75 75 75 75 76 76 76 76 77 77 77 77 76 75 75 75 75 75 75 75 75 75 75 75 74 74 74
78 78 78 78 77 77 76 77 77 76 76 76 76 77 76 76 76 76 76 76 77 77 77 77 77 77 77 77 75 76 76 76 75 75 75 75 75 75 77 75 74 74
78 78 78 78 78 77 77 77 77 78 77 78 76 76 76 76 76 76 76 77 77 77 77 77 76 77 77 77 76 75 75 75 74 74 75 74 75 75 75 75 74 74
79 79 79 79 78 78 77 77 77 77 77 76 76 76 76 77 77 77 77 76 77 77 77 77 77 77 77 76 76 75 75 76 76 75 74 74 73 74 75 76 75 74
80 80 79 79 79 79 78 78 78 78 78 77 77 77 76 77 77 77 76 76 76 77 76 77 76 77 77 77 76 76 76 76 76 75 75 74 74 74 75 74 74 74
79 80 80 79 79 79 79 80 80 79 78 78 78 78 77 77 77 77 76 75 76 76 76 76 76 76 77 77 77 77 77 76 76 75 75 75 75 75 75 74 75 74
80 80 79 79 79 80 80 80 81 81 80 79 79 79 79 78 77 77 76 75 76 76 76 76 76 77 77 77 77 78 77 77 76 76 75 75 75 75 77 75 75 75
79 80 80 80 80 80 80 81 81 81 80 80 80 79 79 79 78 78 78 76 76 76 76 76 76 77 77 77 78 78 77 77 77 76 76 76 75 75 75 75 75 75
80 80 80 80 80 80 81 81 81 82 81 81 81 81 80 80 80 78 78 78 77 77 77 77 76 77 77 77 77 77 77 76 76 76 76 76 76 76 76 75 75 76
80 80 81 80 81 80 80 81 81 81 81 81 81 80 81 81 81 80 79 79 79 78 78 78 77 76 76 77 77 77 77 76 76 76 76 76 76 76 76 76 76 76
80 80 81 80 80 80 80 80 80 80 81 81 80 81 82 82 82 81 80 79 79 78 78 78 78 77 77 77 77 76 77 77 77 76 76 76 76 76 76 75 76 77
80 80 80 80 79 79 79 79 80 80 80 80 80 81 81 81 81 81 81 80 79 78 78 78 78 78 77 73 74 78 77 78 77 76 76 76 76 75 76 76 76 77
80 79 79 79 79 79 79 79 79 79 79 79 79 80 80 80 80 80 81 81 80 79 78 79 79 80 73 68 69 71 77 77 77 76 76 76 76 75 75 76 76 76
80 79 79 79 79 78 79 78 79 79 78 79 79 79 79 80 80 80 80 81 81 80 80 79 79 75 69 67 68 68 72 78 78 77 77 76 76 76 76 76 76 76
80 79 79 79 79 79 79 79 78 78 78 78 79 80 80 79 79 80 80 80 81 79 80 80 80 73 68 66 66 66 67 74 79 78 77 76 76 76 76 76 76 76
80 79 79 79 79 79 79 78 78 78 78 79 80 79 79 79 80 79 80 79 80 80 79 80 80 74 67 65 65 65 66 69 79 78 77 77 77 76 77 76 76 75
80 79 79 79 79 79 78 78 78 78 78 79 80 80 79 78 79 79 79 79 80 81 80 80 82 72 66 64 63 63 64 67 77 79 78 77 77 77 77 77 77 77
80 79 79 79 79 79 78 78 78 78 78 79 79 80 80 80 80 80 80 80 80 81 80 80 82 70 65 63 62 62 63 70 74 76 77 77 77 77 77 77 77 77
77 80 79 79 79 79 78 78 78 78 78 79 79 80 80 80 80 80 80 80 80 80 80 80 81 72 64 62 61 61 63 71 73 75 76 77 77 77 77 77 77 77
75 76 79 80 79 79 79 79 80 80 80 80 79 79 80 81 81 81 81 81 81 80 81 80 81 75 63 61 60 59 65 72 73 74 75 76 77 78 77 77 78 80
75 75 76 79 80 80 80 79 79 80 80 81 81 81 81 81 81 81 81 81 82 82 80 80 82 77 63 60 59 58 64 74 75 74 75 75 76 77 77 77 76 79
79 77 79 80 80 80 80 80 81 81 80 80 80 81 81 81 81 81 81 81 82 82 82 81 81 82 74 59 59 57 60 74 76 75 74 75 76 76 76 76 77 77

ECMWFNIL_sfc_temp_090.txt.gz
Temp
75 75 74 74 73 74 73 73 74 74 74 75 75 75 75 75 76 77 77 77 78 78 78 78 78 78 78 78 78 78 78 77 78 78 77 77 77 77 77 76 76 76
76 76 76 75 73 74 73 74 74 74 74 74 75 75 75 76 76 77 77 77 78 78 78 78 78 78 78 78 77 77 77 77 77 79 77 77 77 77 77 77 77 76
76 76 76 75 75 74 76 75 74 74 75 76 75 75 75 76 76 76 77 77 77 78 78 78 78 78 78 78 77 78 78 77 77 78 78 77 77 77 77 78 78 77
76 77 77 77 76 75 75 74 74 74 75 75 75 76 77 77 76 76 76 78 77 77 78 78 78 79 78 78 77 77 78 77 78 78 78 78 78 78 77 77 78 78
77 77 77 78 77 76 75 75 75 75 75 76 76 76 76 76 75 76 75 76 77 77 77 77 78 78 78 77 77 77 77 78 78 77 77 77 78 78 78 78 77 78
77 77 77 77 77 76 75 75 76 76 76 76 76 77 76 76 76 76 76 76 77 78 78 78 78 78 79 78 77 77 78 78 78 77 77 77 78 78 79 78 78 77
78 77 77 78 78 77 76 75 75 76 76 77 76 76 76 76 76 76 76 76 77 77 78 77 77 77 78 78 77 77 77 77 77 77 77 77 77 78 78 78 78 78
78 79 78 78 78 77 77 77 76 76 76 76 76 76 76 77 76 77 77 76 77 77 77 78 77 77 78 78 77 77 77 78 77 77 77 77 77 77 78 78 78 78
79 79 78 78 78 78 78 78 78 77 76 76 77 77 76 77 77 77 76 76 76 77 77 77 77 78 78 78 78 77 77 78 78 77 77 77 77 77 78 78 77 77
78 78 79 79 79 79 79 79 80 79 77 77 77 78 77 77 77 77 77 75 76 76 76 77 77 77 78 78 78 78 78 77 78 77 78 78 78 78 78 77 78 77
79 79 79 79 79 80 80 80 80 80 79 78 78 77 78 77 76 77 76 76 76 76 76 76 77 78 77 78 78 79 79 79 78 78 78 78 78 78 78 78 77 78
78 79 79 79 79 80 80 81 81 80 80 79 79 78 78 78 77 77 77 76 77 77 77 77 77 77 77 78 79 79 79 79 79 78 79 78 78 78 78 78 78 78
79 79 79 80 80 80 81 81 81 81 81 80 80 80 79 79 78 77 77 77 77 77 78 77 77 78 77 78 78 78 78 78 79 78 78 78 79 79 79 79 79 79
79 80 80 80 80 79 79 81 81 81 80 80 80 80 80 80 80 78 78 78 78 78 78 78 77 77 77 77 78 78 78 78 78 78 78 78 79 79 79 79 79 79
79 79 80 80 80 79 79 79 80 80 80 80 79 80 82 81 82 81 79 78 78 78 78 78 78 78 78 78 77 78 78 78 78 78 78 78 78 79 79 79 79 80
78 79 79 79 78 78 78 78 79 79 80 80 79 80 79 79 79 80 81 79 78 78 78 78 78 78 76 72 74 78 78 79 79 78 78 78 78 78 78 78 79 80
78 78 78 78 78 78 78 78 78 78 78 78 78 79 78 78 79 79 80 81 80 79 78 79 79 80 72 68 68 70 78 78 78 78 78 78 78 78 77 78 78 79
78 78 78 78 78 77 78 78 78 78 77 77 78 78 78 79 79 79 79 80 81 80 80 80 80 75 68 67 67 67 72 79 79 79 78 78 78 78 78 79 79 79
78 78 78 78 77 78 78 78 77 77 77 78 78 79 79 78 77 79 79 79 80 79 80 81 81 72 67 66 66 66 66 74 80 79 79 79 78 78 78 78 78 78
78 78 78 78 78 78 78 77 77 77 78 79 79 79 78 78 79 78 79 78 79 79 79 81 81 74 66 65 65 64 65 69 80 80 79 79 79 79 79 78 78 78
79 78 78 78 78 78 77 77 77 77 78 79 80 79 78 78 78 78 78 79 80 80 80 81 82 71 65 63 62 62 64 67 78 80 79 79 79 79 79 79 79 79
79 78 78 78 78 78 77 77 77 77 77 78 79 81 80 80 80 80 80 80 80 81 81 80 83 69 64 63 62 61 63 70 75 77 78 79 79 79 79 79 79 79
79 79 78 78 77 77 76 76 76 77 77 78 78 79 80 80 80 80 80 80 80 80 79 80 82 73 63 61 60 60 63 72 74 76 77 78 79 79 79 79 79 79
79 79 78 78 77 77 76 76 76 75 75 75 74 75 78 80 80 81 81 81 81 80 81 80 81 75 63 60 59 59 65 73 74 75 76 77 78 79 79 79 79 79
77 77 78 78 77 78 77 75 75 75 75 74 74 74 75 78 80 80 81 81 83 82 79 79 82 77 63 60 59 57 64 75 75 75 75 76 77 78 79 79 79 79
77 77 77 78 77 77 77 77 78 77 76 76 76 75 76 75 78 80 80 81 82 82 83 81 81 82 75 59 58 56 59 74 76 75 75 75 77 77 77 78 78 79

ECMWFNIL_sfc_temp_093.txt.gz
Temp
83 83 83 83 83 84 84 84 85 85 84 85 85 85 85 85 85 85 85 85 85 85 85 85 85 84 85 85 85 85 85 85 87 86 86 86 86 87 87 86 86 86
83 83 83 83 82 83 83 85 84 84 83 84 85 85 85 85 85 85 85 85 85 85 85 85 85 85 85 86 85 85 85 85 85 88 85 85 86 87 87 87 87 87
83 83 83 83 84 84 86 85 84 85 85 86 85 85 86 86 85 84 85 85 85 87 85 85 85 85 86 86 85 85 86 85 85 88 85 85 86 86 87 89 89 87
83 83 84 85 86 85 85 84 84 84 86 85 85 87 86 88 85 85 84 84 85 85 86 86 86 87 86 86 85 85 86 85 87 86 85 86 86 87 87 87 88 88
83 83 85 85 86 85 84 84 85 85 85 86 87 85 84 84 84 85 85 84 84 85 85 85 86 86 86 85 85 85 86 86 86 85 85 85 86 85 87 87 86 87
83 83 83 84 85 84 84 85 85 86 86 87 86 87 86 85 85 86 86 86 87 87 87 87 86 87 87 86 85 85 86 87 88 85 85 85 87 88 88 87 86 86
84 84 84 85 85 85 84 84 85 85 86 87 86 86 86 86 85 85 85 86 87 86 88 86 85 86 86 86 84 84 85 85 86 85 85 86 86 86 88 86 85 85
85 86 85 85 86 85 84 85 85 85 85 86 86 86 86 87 86 87 86 86 87 86 85 87 85 84 87 86 85 84 85 87 86 85 84 85 85 85 86 87 86 85
86 86 85 85 86 86 87 87 87 86 86 85 87 88 86 86 87 87 85 85 85 85 84 85 84 85 86 86 85 85 85 86 87 86 85 85 85 85 86 87 86 85
84 85 87 86 86 87 87 88 89 88 86 86 87 89 87 86 87 87 85 83 84 84 84 84 85 85 86 87 85 86 85 85 85 85 86 86 86 87 87 87 87 86
85 86 86 86 87 88 88 89 89 89 88 87 88 88 88 87 86 86 85 84 85 84 84 84 85 86 85 87 87 87 87 87 86 86 86 86 86 86 86 86 86 87
85 86 86 86 87 88 89 89 89 89 89 88 88 87 87 88 87 87 86 84 85 86 85 85 85 85 85 86 88 88 87 87 87 87 87 87 87 88 87 87 87 87
85 86 86 87 86 87 89 89 89 90 89 89 88 88 88 88 89 87 86 86 85 86 87 85 85 86 85 85 86 87 87 86 88 87 87 87 88 88 89 89 89 89
84 86 87 86 87 85 86 88 89 89 88 88 88 87 88 88 89 88 88 88 87 87 87 86 85 85 85 85 85 86 87 86 86 87 88 87 88 88 89 90 90 90
84 85 86 86 86 85 85 86 87 87 87 87 86 87 89 89 89 90 88 87 87 86 86 87 87 86 86 86 85 85 86 87 87 86 87 86 87 89 89 88 89 90
84 84 84 84 84 83 83 84 86 86 87 86 86 86 86 86 87 87 88 88 86 86 86 87 86 87 81 75 77 86 86 88 87 86 86 86 85 86 88 88 89 90
83 83 83 82 83 83 83 83 83 84 84 84 85 85 85 84 85 86 87 88 88 87 87 87 87 87 75 69 69 71 83 86 85 85 85 85 86 84 84 87 88 88
83 83 82 82 83 82 83 83 83 83 83 83 84 84 83 86 85 85 85 87 88 88 88 88 88 78 69 68 68 67 72 84 87 87 87 86 86 86 86 86 87 88
83 83 82 82 82 83 83 83 82 82 82 83 84 84 85 83 83 85 84 85 87 85 87 88 89 76 68 67 67 66 66 74 87 87 87 87 86 86 86 85 86 86
83 83 82 82 83 83 83 82 82 82 83 84 85 84 83 83 85 84 84 83 84 85 84 87 88 77 66 65 65 64 65 69 84 87 87 87 87 87 87 86 85 85
83 83 82 83 83 83 82 82 82 82 83 84 86 85 84 82 84 84 84 84 86 86 86 87 89 73 65 63 63 62 63 67 82 85 86 86 87 87 85 87 86 86
84 83 83 83 83 83 82 82 82 82 82 84 85 87 87 87 85 86 85 85 86 87 87 86 89 71 65 63 62 62 62 75 80 81 83 85 86 86 86 85 86 86
85 84 83 83 83 82 82 82 82 82 83 84 84 86 87 86 86 87 85 86 86 86 85 85 88 75 63 62 61 60 64 78 79 81 82 84 85 85 86 86 86 86
85 85 84 83 83 82 83 83 84 84 84 84 84 85 86 88 88 87 87 87 87 87 88 86 87 78 62 61 60 59 67 79 80 81 82 82 84 85 86 85 85 81
84 85 85 85 83 84 84 84 84 84 84 84 84 85 86 86 87 87 87 87 90 89 81 85 88 81 62 61 59 58 67 79 81 82 81 82 84 84 85 86 85 82
82 83 84 85 85 84 84 85 85 86 86 85 85 85 85 86 87 86 86 87 89 89 90 88 87 88 77 58 59 57 60 78 82 81 81 81 83 83 84 84 85 86

ECMWFNIL_sfc_temp_096.txt.gz
Temp
89 89 89 89 89 90 90 90 91 91 90 92 92 91 92 91 92 91 91 91 90 90 90 89 89 89 90 89 88 88 89 88 90 90 89 89 90 91 92 92 91 91
88 89 88 90 89 89 90 91 90 90 90 90 92 93 92 92 92 92 91 91 91 91 90 91 90 89 89 90 89 89 88 88 88 92 89 88 89 90 91 91 92 92
89 89 89 89 91 90 93 92 91 91 92 93 92 92 93 93 92 91 91 92 92 93 91 90 90 90 90 90 89 89 89 88 88 92 89 88 90 90 90 93 93 92
88 89 91 92 92 92 92 91 91 90 92 92 93 94 94 97 93 92 91 90 91 91 92 91 91 92 91 90 89 89 90 89 90 89 89 89 89 91 91 91 93 93
89 89 91 92 92 92 91 91 92 93 92 92 94 93 92 91 91 93 91 90 90 92 91 91 91 92 91 90 89 89 90 91 90 89 88 88 89 90 92 92 90 91
89 89 89 90 91 91 92 92 92 93 93 94 93 95 93 92 92 93 93 92 93 93 94 93 92 92 93 91 90 89 91 92 93 90 89 88 91 93 94 92 90 89
90 90 90 91 92 92 91 91 92 92 94 95 94 93 94 93 92 92 92 92 94 93 94 92 91 92 92 91 90 89 89 90 91 90 88 90 89 90 93 91 89 89
91 92 91 91 92 92 91 92 92 92 92 93 94 93 93 94 93 94 93 93 93 93 92 93 91 90 94 92 90 89 90 93 91 89 88 88 89 89 90 92 90 89
92 92 91 91 92 93 94 94 94 93 93 92 94 95 94 93 94 95 92 92 92 92 91 91 90 91 92 92 91 90 90 92 93 91 89 89 89 89 90 91 90 89
91 92 94 93 94 94 94 95 96 95 94 93 94 96 96 93 94 94 93 90 91 90 90 90 90 91 92 93 91 91 90 90 91 91 91 91 91 91 92 91 91 90
92 93 93 93 94 96 96 97 97 97 96 94 95 95 96 95 93 93 92 91 92 91 90 90 91 91 91 93 93 93 92 92 91 91 91 91 91 91 91 91 91 92
91 93 94 94 94 96 97 97 98 97 97 96 96 95 95 97 95 94 93 91 91 92 92 91 90 91 90 91 94 95 93 93 93 92 92 92 93 93 93 93 92 92
92 93 93 95 94 95 97 97 98 99 98 97 96 96 96 97 97 94 93 93 92 92 93 91 91 92 90 90 91 93 93 92 94 93 93 93 94 94 96 95 95 94
91 93 94 93 94 92 94 96 97 97 96 96 96 95 96 97 98 97 95 95 93 93 93 93 91 91 90 90 91 92 93 93 92 93 94 94 94 94 96 97 96 96
90 92 93 93 92 92 92 93 95 95 95 95 94 95 98 98 98 98 96 94 94 93 93 94 94 92 93 92 91 91 92 93 93 93 93 92 93 95 95 95 96 98
89 90 90 91 90 90 89 91 93 93 95 94 94 94 94 93 94 95 97 96 94 93 93 94 94 95 88 79 82 91 92 94 93 92 91 92 91 91 94 96 97 98
88 88 88 88 89 89 89 89 89 91 90 91 91 92 91 91 92 93 95 96 96 95 94 94 95 95 80 71 72 75 89 92 91 91 91 90 92 90 90 93 95 96
88 87 87 87 88 87 88 88 88 89 88 89 90 91 89 92 92 91 91 94 96 96 96 95 95 84 72 69 70 70 76 90 93 92 93 92 91 92 92 92 93 95
88 87 87 87 87 87 87 87 87 87 88 88 90 90 91 88 88 91 90 91 93 92 94 96 96 80 69 68 68 68 68 79 93 93 93 93 92 91 92 91 91 92
87 87 87 87 87 87 87 86 86 86 88 90 90 89 88 89 90 89 90 89 90 90 90 94 95 82 68 67 66 66 67 72 90 91 92 93 92 93 93 92 91 91
88 87 87 87 87 86 86 86 86 86 87 89 91 91 89 87 89 89 89 90 91 92 92 94 97 76 67 65 64 64 65 70 87 90 91 91 92 92 90 92 92 91
88 87 87 87 87 87 86 85 85 85 86 88 89 93 92 92 91 91 91 91 91 92 93 92 96 73 66 64 62 63 64 79 85 85 87 89 90 90 91 90 91 90
85 88 88 87 87 87 86 86 85 86 87 88 89 90 93 93 92 92 90 92 92 91 91 91 94 79 64 62 61 60 66 83 84 85 86 87 89 90 90 90 90 90
80 83 87 87 87 87 87 88 88 88 88 89 89 90 92 94 94 93 93 92 93 92 94 92 93 82 62 61 59 59 70 83 85 85 86 86 87 89 90 89 90 84
78 79 80 85 87 88 88 88 88 88 89 90 90 90 91 92 92 93 94 94 96 95 85 90 94 86 63 61 59 58 70 84 86 86 85 86 88 88 89 90 89 86
77 77 79 81 82 83 86 86 89 91 91 92 91 91 91 92 93 93 93 94 96 96 97 94 93 93 80 58 59 57 61 83 86 85 85 85 87 87 88 89 89 90

ECMWFNIL_sfc_temp_099.txt.gz
Temp
90 90 90 91 91 91 90 90 92 91 90 92 91 91 91 92 93 93 93 92 92 91 91 90 90 90 91 90 90 89 89 90 91 90 91 91 91 92 93 92 92 92
90 90 90 91 91 91 91 93 91 91 90 91 92 92 92 92 93 93 92 92 92 92 92 92 91 90 90 91 89 90 89 89 89 93 90 90 90 92 92 92 93 93
91 91 92 91 93 93 95 93 92 92 93 93 93 93 94 94 93 92 92 92 92 94 92 92 91 91 91 90 89 90 90 88 89 92 90 89 91 91 92 95 95 93
90 91 93 93 94 94 94 93 93 92 94 93 93 95 95 97 93 93 92 91 92 92 93 92 92 93 91 91 90 90 90 89 91 91 90 90 90 91 92 92 94 95
91 92 93 94 94 94 94 93 94 94 94 94 95 94 93 92 92 93 92 92 91 92 92 92 92 93 91 91 91 89 90 90 90 90 89 88 90 90 92 93 92 92
92 91 91 93 93 93 94 94 94 96 95 97 95 97 95 94 94 94 93 93 94 94 94 94 93 93 93 92 90 90 91 92 93 90 89 88 91 93 95 93 91 91
92 92 93 94 95 94 94 94 94 94 96 96 95 95 96 95 94 93 93 94 95 93 95 93 91 92 93 92 90 89 90 90 91 91 89 90 89 90 93 92 91 90
93 94 94 94 95 95 94 95 95 94 95 95 97 95 96 96 94 95 94 95 95 94 93 94 92 91 94 93 91 90 90 94 92 90 89 89 90 89 90 92 91 89
95 94 94 94 95 96 97 97 97 96 95 95 97 98 96 96 96 96 93 93 93 93 92 93 92 93 93 93 92 91 90 92 94 92 90 90 90 89 91 91 91 90
94 95 96 96 97 97 97 98 98 97 96 96 97 99 98 95 96 96 95 91 93 92 92 92 92 93 93 94 93 92 91 90 91 92 92 91 91 91 92 91 91 90
95 97 96 96 97 98 98 99 100 100 98 97 97 98 99 97 95 95 94 93 94 93 92 91 93 93 92 94 94 94 93 93 92 91 92 92 92 92 92 92 92 92
94 95 97 97 97 99 99 100 100 100 100 98 98 97 97 100 97 96 96 93 93 93 93 92 92 92 91 92 95 95 94 94 93 93 93 93 93 94 93 93 93 92
94 94 96 97 97 98 100 100 100 101 101 100 99 98 98 99 100 96 96 95 93 94 94 92 92 93 91 91 92 94 94 93 94 94 93 94 94 95 96 96 95 95
93 94 94 96 97 95 96 99 100 100 99 99 99 97 98 99 100 99 98 97 95 95 94 94 92 92 91 91 91 93 94 94 94 94 95 94 95 95 96 97 97 97
90 92 95 95 95 95 95 96 97 98 98 98 97 98 100 99 100 101 98 96 96 95 94 95 96 94 94 92 91 92 93 94 94 94 94 93 94 96 96 96 97 99
92 91 91 91 93 93 93 94 96 96 98 98 97 98 97 96 96 97 99 98 96 95 95 96 96 97 90 83 85 92 92 96 95 92 92 93 92 93 96 97 98 99
86 87 90 90 91 92 92 92 93 94 93 93 94 95 94 93 95 96 98 99 99 97 96 97 98 98 82 74 75 78 91 93 93 92 92 92 93 91 91 94 97 97
88 89 88 87 90 90 91 91 92 92 92 92 94 95 93 96 96 95 95 97 99 99 98 97 97 87 75 72 73 73 79 92 95 94 95 93 93 93 93 94 95 97
80 86 87 86 87 89 90 90 89 90 90 91 94 94 95 92 92 94 94 95 96 95 97 98 98 84 72 70 71 72 72 82 95 95 95 96 94 93 93 92 93 94
79 79 83 85 86 87 89 89 89 88 90 92 93 92 91 92 94 92 93 91 93 93 93 97 98 85 69 68 69 69 70 75 93 94 94 95 94 95 95 93 92 92
80 79 80 83 85 86 87 87 88 88 89 91 93 93 92 90 92 91 91 92 94 94 94 97 100 78 67 67 66 66 68 72 90 93 93 93 94 94 92 95 93 94
79 80 81 82 84 85 85 85 86 86 87 90 91 93 94 94 92 93 93 93 93 94 95 94 98 77 66 66 65 65 66 81 88 88 89 91 92 92 93 92 93 93
80 80 80 80 80 78 80 80 81 84 87 89 90 89 92 94 93 93 92 94 94 93 92 93 96 82 65 63 63 63 68 84 86 88 88 89 90 91 92 92 92 92
78 80 81 80 78 77 78 78 78 78 78 82 82 84 85 90 95 93 93 93 94 94 96 94 94 85 63 61 60 60 72 85 86 87 87 87 88 90 91 91 91 87
79 79 79 78 74 76 75 76 76 76 77 78 78 79 79 81 83 86 92 95 98 97 88 93 96 88 62 61 59 59 71 85 87 87 87 87 88 89 90 91 90 88
79 78 79 78 75 75 74 75 76 76 76 77 77 77 79 81 83 82 85 88 95 98 99 96 95 96 79 59 59 58 62 84 87 86 86 86 88 88 89 89 90 91

ECMWFNIL_sfc_temp_102.txt.gz
Temp
87 87 87 87 87 87 87 87 88 88 87 88 87 87 88 88 89 87 88 88 88 88 87 87 87 86 88 87 87 85 83 86 84 87 86 88 87 89 90 89 89 87
87 87 87 88 86 87 87 88 88 87 87 87 88 88 89 89 90 90 88 88 88 88 88 88 87 87 87 87 86 86 84 85 85 90 86 87 87 89 89 89 90 89
88 88 88 88 89 89 91 89 88 89 89 90 90 88 90 91 89 89 89 89 88 89 88 88 88 87 88 87 86 86 86 86 85 88 86 86 88 87 87 91 90 90
87 88 89 90 90 90 91 89 89 88 90 89 89 92 91 93 89 89 88 89 88 88 88 89 88 89 88 88 86 86 87 86 87 87 86 86 87 88 88 88 90 90
88 88 89 90 91 89 89 90 91 90 91 89 91 90 88 88 88 89 88 88 87 89 88 88 88 89 87 87 87 86 87 86 87 87 86 85 86 87 88 88 87 88
88 88 88 89 90 89 90 91 91 91 91 92 91 92 91 91 89 90 89 89 90 90 91 90 89 89 90 87 87 86 87 88 88 86 86 85 87 88 91 88 87 87
89 89 90 91 92 91 91 90 91 90 92 93 91 90 91 91 90 89 89 89 90 89 91 88 87 87 88 87 86 85 86 86 87 86 85 86 85 86 90 89 87 86
90 91 91 91 92 92 91 92 91 91 91 91 92 91 91 92 90 92 91 90 91 89 88 90 87 86 90 88 86 86 86 90 88 86 85 85 86 85 86 89 87 85
91 91 91 91 92 93 93 94 94 93 92 92 93 94 92 92 91 92 89 89 89 88 87 88 87 88 89 88 87 86 86 88 89 87 86 86 86 85 87 87 87 86
90 91 92 92 92 93 93 94 95 94 93 93 95 95 94 92 92 92 90 87 88 88 87 87 87 88 89 89 88 87 87 86 86 87 87 87 87 87 87 87 87 86
92 93 92 92 93 94 95 95 96 96 94 94 94 95 95 93 91 91 89 88 90 89 88 87 88 88 87 89 90 89 88 88 87 87 87 87 87 87 88 86 87 87
82 90 92 93 93 94 95 96 96 96 96 95 95 94 94 95 92 93 91 88 89 89 89 88 87 88 87 88 90 91 89 89 88 88 88 88 89 89 88 88 88 87
81 84 89 94 94 94 96 96 97 97 97 96 95 95 95 96 96 92 91 91 89 90 91 88 88 89 86 87 88 89 89 88 90 89 88 88 89 90 91 91 90 90
78 75 73 76 83 90 93 96 97 97 96 95 94 94 95 95 97 95 93 93 91 91 90 89 88 88 87 87 87 88 89 88 88 89 90 89 90 90 91 92 92 92
77 78 78 78 80 81 89 92 93 93 93 93 92 94 97 96 96 98 94 92 92 90 90 91 91 89 90 88 87 87 88 89 88 89 89 88 88 91 91 90 92 94
78 78 78 78 78 80 83 89 92 92 95 94 94 94 92 91 91 92 96 94 92 91 90 92 91 92 86 81 82 88 87 90 89 87 87 87 87 87 90 92 94 94
80 79 79 78 79 80 82 84 86 88 89 89 91 91 91 89 91 92 95 96 95 93 92 93 94 94 81 74 74 78 87 87 87 85 86 86 88 85 85 89 91 91
79 81 81 81 82 82 84 83 84 83 83 86 90 92 89 93 92 91 90 94 96 95 94 94 94 85 75 72 73 73 78 88 89 88 89 87 88 88 88 88 89 92
78 80 80 80 80 81 79 77 78 79 78 76 77 86 93 89 88 91 91 91 93 90 94 95 94 82 73 69 71 71 71 81 91 90 90 90 88 87 88 86 86 87
78 78 78 79 79 79 78 78 77 77 76 76 77 76 76 84 91 90 90 88 89 89 89 93 94 84 72 68 68 69 70 74 88 90 90 90 88 89 91 88 87 87
76 77 78 78 79 78 78 78 77 76 77 76 76 74 75 75 77 84 89 90 92 92 92 94 97 80 70 67 66 67 69 72 86 90 90 89 89 89 86 89 88 89
76 75 76 77 77 77 76 76 77 76 75 76 75 74 75 76 78 80 83 89 92 92 93 92 95 78 69 64 65 65 67 77 84 85 85 88 88 87 87 86 87 87
77 76 75 76 75 75 76 76 75 75 74 76 75 76 76 78 80 83 84 87 89 90 90 89 93 82 70 61 62 63 67 79 82 84 85 86 87 87 88 87 87 87
78 76 75 75 76 74 74 74 76 77 77 77 77 77 77 79 80 82 85 86 85 80 83 83 88 85 71 60 59 61 70 80 81 83 84 85 85 87 87 86 87 87
81 79 77 75 75 75 74 73 74 75 77 78 78 78 78 79 81 82 85 86 89 89 85 85 87 82 71 60 59 58 68 80 82 83 83 84 86 85 86 86 86 87
80 79 78 77 75 75 74 74 74 74 75 76 77 78 79 80 81 81 82 85 88 90 91 92 89 86 77 61 56 56 61 80 83 82 83 83 85 84 84 86 86 86

ECMWFNIL_sfc_temp_105.txt.gz
Temp
79 79 79 79 80 81 81 81 80 81 81 80 79 80 80 82 83 82 83 82 82 81 81 80 81 81 82 81 80 80 80 79 80 80 80 80 79 81 84 82 81 80
80 80 81 80 80 81 81 82 81 81 80 80 81 81 81 83 83 83 83 82 82 82 82 82 81 80 80 80 80 80 79 79 79 84 80 80 80 81 82 81 82 80
80 80 80 80 81 81 83 83 82 81 82 82 83 83 83 84 82 82 82 83 82 82 82 81 81 81 81 80 80 79 79 79 78 81 80 79 80 80 80 83 81 82
80 81 82 82 82 82 82 82 81 82 83 82 82 85 86 87 82 83 81 84 82 81 82 82 82 82 81 80 80 79 79 79 80 80 80 80 80 81 81 81 82 81
81 81 82 82 82 82 82 82 83 82 82 83 84 82 84 80 82 81 81 82 82 81 81 82 81 82 81 80 80 80 80 79 80 80 79 79 79 81 82 82 80 81
81 81 81 82 82 81 83 82 82 83 83 83 84 83 84 82 83 83 81 82 82 82 83 82 81 82 83 81 80 80 80 81 81 79 79 79 80 81 85 83 81 80
82 82 82 82 83 82 83 82 82 83 84 84 83 83 84 83 83 83 82 83 83 81 82 81 80 80 81 81 79 80 80 79 79 80 79 79 79 80 82 81 80 80
84 83 83 82 84 83 82 83 83 82 84 83 83 84 84 84 83 84 83 83 83 82 81 81 81 80 81 81 80 79 80 83 81 79 79 79 79 78 80 82 81 79
80 84 84 83 84 85 84 85 85 84 83 85 84 85 84 84 83 84 81 82 83 81 82 80 80 82 82 80 80 80 80 81 82 79 79 79 79 79 80 80 80 79
77 79 84 85 85 85 85 86 87 86 84 85 86 85 85 84 85 85 82 80 82 81 81 81 80 81 82 81 81 81 80 80 80 79 80 80 80 80 80 80 79 79
78 78 79 84 86 86 87 88 88 88 87 86 86 86 86 85 83 84 83 80 83 82 81 81 81 81 81 82 81 82 82 82 81 79 79 80 80 80 82 80 80 80
77 79 81 81 82 85 88 88 89 88 87 88 88 87 85 87 85 85 85 82 82 82 81 81 80 81 81 81 83 82 81 82 82 81 80 80 81 81 81 81 81 80
77 80 78 78 79 80 81 84 87 90 89 88 89 89 88 86 87 85 84 84 83 83 83 81 80 80 80 80 81 82 81 81 82 81 81 81 80 81 83 83 82 82
76 75 76 78 78 78 79 81 83 84 87 88 88 88 89 89 87 87 85 85 85 84 84 83 81 81 79 79 81 82 82 80 81 81 82 81 82 81 82 83 83 84
74 76 76 77 78 78 79 78 78 83 82 83 84 89 91 90 90 88 87 85 85 84 84 85 84 82 82 81 80 81 82 81 80 82 81 81 81 83 83 83 85 86
75 75 75 76 76 77 77 79 80 79 79 79 79 81 84 85 88 88 87 87 85 84 84 85 85 86 83 79 79 82 81 84 82 80 81 81 80 80 82 83 86 87
75 75 74 75 75 76 77 76 76 77 76 76 77 77 77 77 80 84 88 88 88 86 85 86 88 88 79 72 73 76 83 82 82 79 78 80 81 79 79 82 83 84
75 76 76 76 77 77 75 74 75 75 75 75 76 77 75 78 78 78 79 84 88 88 87 87 87 82 74 71 72 71 76 84 83 83 82 79 80 81 81 81 82 83
75 75 76 76 76 76 75 75 75 74 74 75 76 76 77 76 77 79 79 80 83 82 86 87 87 78 71 70 70 70 70 78 85 84 83 83 81 80 81 80 80 80
74 74 74 75 75 75 75 75 74 75 75 74 75 75 75 77 78 79 79 79 80 81 81 85 87 80 70 68 68 68 69 73 85 85 84 84 83 82 83 81 80 80
73 73 73 74 75 75 74 75 75 74 75 75 75 74 74 74 75 77 78 79 81 83 83 85 88 77 70 67 65 65 67 70 83 85 85 85 84 84 82 83 82 82
73 72 72 73 74 73 73 73 74 74 74 74 75 74 74 74 74 76 77 79 80 82 82 82 85 73 68 66 63 63 65 74 79 81 83 84 84 83 83 82 82 82
73 73 72 72 73 73 73 72 72 73 74 74 73 74 74 75 75 76 77 79 80 80 79 79 80 74 67 65 62 60 64 71 75 79 81 82 84 84 84 83 81 81
74 73 73 72 72 72 73 73 73 73 73 75 74 74 74 75 76 76 78 79 80 79 80 78 79 74 62 58 60 59 64 72 74 76 79 80 82 83 83 83 84 85
74 74 73 72 72 72 72 72 72 72 73 74 74 75 75 75 77 77 78 79 82 83 82 81 79 71 64 66 65 62 63 69 73 75 76 79 80 81 82 83 83 84
74 73 72 73 71 71 71 72 73 73 73 73 74 74 75 76 77 76 77 79 80 82 84 80 74 75 73 62 62 61 60 69 71 73 75 78 80 80 81 82 82 83

ECMWFNIL_sfc_temp_108.txt.gz
Temp
76 77 78 77 77 78 78 78 78 79 78 78 78 77 78 79 79 79 79 79 79 79 78 77 78 78 79 78 78 78 79 78 77 77 76 77 77 78 80 79 78 76
77 77 79 78 77 79 78 79 78 79 78 78 79 78 79 79 80 80 79 79 79 79 79 78 78 78 78 78 77 77 77 77 77 81 78 77 77 77 78 78 78 77
77 77 78 78 78 78 80 80 79 79 80 80 80 79 80 81 80 79 80 80 79 80 79 79 78 78 79 78 77 77 78 76 76 78 77 77 77 77 78 79 78 78
77 78 79 79 79 79 80 79 78 79 80 79 79 81 82 83 81 80 79 81 79 79 80 79 79 79 78 78 78 77 77 77 77 77 77 77 77 77 78 77 78 79
78 78 78 79 79 79 79 80 80 79 80 80 81 80 80 79 80 80 79 80 79 79 79 79 79 79 79 78 78 77 77 78 77 77 77 77 78 78 79 78 78 78
78 78 78 79 78 78 79 79 80 80 80 80 80 81 81 79 80 80 80 80 80 80 80 80 79 79 80 78 78 78 79 78 78 77 77 77 78 78 81 80 77 77
79 78 79 79 79 79 79 79 79 80 80 81 79 80 81 80 79 79 80 80 81 80 80 79 78 79 79 79 77 78 78 78 78 77 77 77 77 78 79 78 77 77
80 79 80 79 80 79 79 79 79 79 80 80 80 80 80 81 80 81 80 81 81 79 79 79 79 78 79 78 78 77 78 80 78 77 77 77 76 76 77 79 78 76
81 80 80 79 81 80 80 81 80 80 80 80 81 81 80 81 81 81 79 79 80 79 78 78 78 78 78 78 78 77 77 78 79 77 77 77 76 76 77 77 76 76
78 80 81 81 81 81 81 81 83 81 81 81 82 82 81 80 81 81 80 79 79 79 78 78 77 78 78 78 78 78 78 77 77 77 77 77 77 77 78 77 77 76
77 77 79 81 82 82 82 82 83 83 81 82 82 82 83 81 79 80 79 79 80 79 78 78 78 78 78 79 78 79 79 79 78 77 77 76 77 77 79 78 77 77
73 76 78 78 81 83 83 84 83 83 83 82 83 82 82 83 81 80 80 79 80 80 79 79 78 78 78 79 79 79 78 79 79 78 78 77 77 77 77 77 78 77
73 75 78 79 79 80 81 82 82 82 83 83 84 84 83 82 83 81 80 80 79 80 80 79 78 78 78 78 79 79 78 78 78 78 78 78 78 78 79 79 78 79
73 73 76 76 77 76 77 79 79 78 79 78 80 83 84 84 83 83 82 82 81 80 80 80 79 78 77 78 78 79 79 78 78 78 78 78 78 78 78 79 79 80
73 74 75 76 77 76 77 77 76 77 76 78 78 80 85 85 85 84 83 82 82 82 81 81 80 80 79 79 78 78 79 79 78 78 78 78 78 79 78 78 79 80
73 74 74 75 75 75 76 76 77 77 77 76 76 77 77 78 79 81 83 83 82 82 81 82 81 82 80 77 77 80 78 81 79 78 78 78 77 77 78 79 80 81
73 73 73 73 74 74 75 75 76 76 74 75 75 75 75 75 77 80 81 82 82 82 81 82 84 85 77 70 71 74 81 79 79 78 77 77 77 76 77 79 80 79
73 74 73 74 74 74 74 74 74 74 74 74 75 75 74 76 76 77 78 80 82 82 82 83 83 80 72 70 69 69 75 81 80 80 79 77 77 77 78 78 78 79
72 73 73 74 74 74 74 73 73 73 73 73 74 75 75 74 75 76 76 77 79 78 81 82 83 77 70 69 69 68 68 75 82 81 80 80 78 78 78 78 77 77
72 72 72 73 73 73 73 73 73 73 73 73 74 74 73 74 76 75 75 74 75 76 75 78 80 78 70 67 67 67 68 70 80 82 81 81 80 80 80 79 78 78
71 71 72 72 73 72 72 72 72 72 73 73 73 73 73 73 73 74 75 75 76 77 76 78 82 74 68 66 65 65 66 68 78 82 82 82 82 81 80 80 80 79
71 70 71 71 72 72 72 71 71 71 71 73 73 73 73 73 73 74 74 75 76 76 77 77 81 71 68 65 63 63 65 70 73 75 78 80 81 80 80 80 80 80
70 71 71 71 71 71 70 71 71 71 71 72 72 73 73 72 73 74 74 75 76 76 75 76 78 71 65 64 60 60 64 71 72 73 75 77 79 80 80 80 79 79
69 69 69 70 71 71 71 71 71 71 71 72 71 72 73 74 74 74 74 75 76 75 77 76 77 75 63 62 62 58 66 71 71 73 75 76 77 78 79 79 80 82
69 69 69 68 68 69 71 71 71 71 72 72 72 72 73 73 75 74 74 76 77 78 79 79 78 76 63 58 59 57 64 71 71 71 72 73 75 76 77 78 79 81
68 68 68 68 68 68 69 69 72 72 72 72 71 71 72 73 74 74 74 75 76 77 79 79 76 76 73 59 55 55 58 70 70 71 72 73 74 75 75 76 78 79

ECMWFNIL_sfc_temp_111.txt.gz
Temp
75 75 75 75 75 76 76 75 75 76 75 75 75 75 76 77 77 77 77 77 77 77 77 76 76 76 78 76 77 76 76 76 75 75 74 75 75 76 77 75 75 75
74 75 77 76 76 77 76 77 76 76 76 75 76 76 76 77 77 77 77 77 77 77 77 77 76 77 77 77 76 76 75 75 76 78 76 75 75 75 75 75 75 75
75 75 75 75 76 75 77 77 77 77 77 77 77 76 77 78 77 77 77 77 77 78 77 77 77 77 77 77 76 76 76 74 75 75 76 75 75 75 74 76 75 76
75 75 76 76 76 76 76 76 76 76 77 77 77 78 79 80 78 77 77 79 77 77 77 77 77 77 77 77 76 76 76 76 76 75 75 75 75 75 75 75 76 76
76 75 75 75 76 76 76 77 77 77 77 77 78 77 78 77 77 77 77 77 77 77 77 77 77 77 77 77 76 76 75 75 75 74 75 75 75 75 76 76 75 76
76 76 75 75 75 76 77 77 77 77 77 78 78 78 78 77 77 78 77 77 77 77 77 77 77 77 77 76 76 76 76 76 76 74 75 74 75 76 78 77 76 75
77 76 76 76 76 76 77 77 77 78 78 79 77 78 78 77 77 77 78 78 78 77 78 77 76 76 77 76 76 76 75 75 75 75 75 75 75 76 76 76 75 75
78 77 77 76 77 76 76 76 77 77 77 77 78 78 78 79 77 78 78 78 78 77 77 77 77 76 76 76 76 75 75 77 76 75 74 75 74 74 75 76 75 74
78 78 77 77 77 77 77 78 78 77 77 77 78 79 78 79 79 78 77 77 77 77 77 77 76 76 76 76 76 76 76 76 77 76 75 75 75 75 75 75 74 74
76 77 78 78 78 78 78 78 79 78 78 78 79 79 79 78 78 79 77 76 77 77 76 77 76 76 76 76 76 76 76 76 76 76 76 76 76 76 76 75 75 74
74 75 77 78 79 80 80 80 80 80 78 79 79 79 80 79 78 77 77 76 77 77 76 76 76 76 76 76 76 76 76 76 76 75 75 75 76 76 77 75 75 75
73 74 76 78 79 80 81 81 81 80 80 79 79 80 80 80 79 78 78 77 77 77 77 77 76 76 76 76 77 76 75 76 76 76 76 76 76 75 75 76 76 75
72 73 74 75 76 78 81 81 81 81 81 81 81 81 81 80 80 79 78 78 78 78 78 77 77 76 76 75 76 76 76 76 76 75 75 75 76 76 76 76 76 76
72 73 73 73 73 73 75 78 81 80 80 80 80 80 81 81 81 80 80 79 79 78 79 79 77 77 76 76 76 76 76 76 76 76 75 75 76 75 76 76 76 76
72 72 73 73 74 73 73 74 76 77 78 78 78 80 82 82 82 82 81 79 79 78 78 79 78 78 78 77 76 75 76 76 76 76 76 75 75 75 75 75 76 77
72 72 72 73 73 73 73 73 74 74 76 75 76 78 79 80 80 80 81 80 79 78 78 79 78 79 78 75 76 78 76 77 77 76 76 76 75 75 75 75 76 77
72 72 72 71 72 72 72 73 73 74 74 74 75 74 75 75 77 79 80 81 80 80 79 79 80 81 76 70 69 72 78 76 76 76 75 75 75 75 75 76 76 76
73 73 73 72 73 73 72 72 73 73 72 72 72 74 74 74 75 75 76 79 80 80 80 81 81 78 71 69 69 68 72 78 78 77 77 75 76 76 76 76 76 76
71 72 72 72 72 72 72 72 72 71 71 72 72 72 74 73 72 73 73 74 76 76 79 81 81 75 70 69 68 67 67 72 78 78 77 77 76 76 76 76 76 75
70 71 71 71 72 72 72 72 72 71 71 72 72 72 72 72 72 72 72 72 73 73 74 75 77 77 69 67 66 66 66 68 76 78 78 78 78 77 77 77 76 76
70 70 70 71 71 72 71 71 71 70 71 71 72 72 71 71 71 71 72 73 73 74 74 76 79 73 68 64 63 63 64 66 74 77 78 79 79 78 77 77 77 77
69 69 69 70 70 71 71 71 71 71 71 71 72 72 72 72 72 72 72 72 73 73 73 74 77 70 67 65 62 61 63 69 71 72 74 77 78 78 78 77 77 77
68 68 68 68 68 70 70 70 70 71 71 72 71 71 71 72 72 73 73 73 73 73 72 72 74 70 65 63 62 60 63 68 69 71 72 74 76 77 77 77 76 76
67 67 66 67 66 67 67 69 70 71 70 72 70 70 70 71 72 73 72 73 73 73 73 73 74 73 66 61 60 60 65 70 69 70 71 72 74 75 75 76 77 80
66 66 66 66 65 66 66 67 67 69 71 71 70 70 70 71 73 73 73 74 75 76 78 77 75 73 66 61 57 57 62 69 70 69 69 70 72 73 74 74 76 78
64 65 66 66 65 66 66 66 68 68 68 70 70 70 71 71 72 72 73 74 76 77 77 76 75 74 71 60 58 57 57 65 68 69 69 71 71 72 72 73 73 74

ECMWFNIL_sfc_temp_114.txt.gz
Temp
76 76 76 76 76 76 76 76 76 76 75 76 76 76 76 77 78 78 78 78 78 78 78 78 78 78 79 79 78 78 78 78 79 78 78 78 78 78 80 78 78 78
75 76 77 76 76 77 76 77 76 76 76 76 76 77 77 78 78 78 78 78 78 79 78 79 78 78 78 79 78 78 78 78 78 80 78 78 78 78 79 79 79 78
75 76 76 76 77 76 78 77 77 77 77 78 77 77 77 78 78 78 78 78 78 79 78 78 78 78 79 79 79 79 79 78 78 79 79 79 79 78 79 80 79 79
75 76 77 77 77 77 77 77 77 77 78 77 77 79 79 80 78 78 78 79 78 78 79 79 79 79 79 79 78 79 79 78 79 78 79 78 78 79 79 78 80 79
76 75 76 77 77 77 77 77 77 77 78 78 79 78 78 78 78 78 78 78 78 78 78 78 78 79 79 78 78 78 78 79 79 78 78 78 78 78 79 79 78 79
76 76 76 76 76 77 77 77 77 78 78 78 78 79 79 78 78 79 78 78 79 79 79 79 79 79 79 79 78 78 79 79 79 78 78 78 80 79 80 80 79 79
77 76 76 77 77 77 77 77 78 78 78 79 79 78 79 79 78 78 79 79 79 79 79 79 78 78 79 78 78 78 78 78 78 77 78 78 78 79 79 79 79 79
77 77 77 76 77 76 77 77 77 78 78 78 79 79 79 79 79 79 79 79 79 79 79 79 79 78 79 79 78 77 78 79 78 77 77 77 77 77 78 79 79 78
77 77 76 76 77 77 77 78 78 78 78 78 79 80 79 79 79 79 78 78 79 79 78 78 78 79 79 78 78 78 78 78 79 78 78 78 77 78 78 78 78 78
76 77 77 77 77 78 78 78 79 78 78 79 79 80 79 79 79 79 79 78 78 78 78 78 78 78 78 78 78 78 78 78 78 78 78 78 78 79 79 78 78 78
76 76 77 77 78 78 79 79 79 80 79 79 79 79 80 80 78 79 78 77 78 78 78 78 78 78 78 79 78 79 79 79 78 78 78 78 78 78 79 79 78 79
75 76 77 77 78 79 79 80 80 80 80 79 80 79 79 80 80 79 79 78 78 78 79 78 78 78 78 78 79 79 78 79 79 78 78 78 78 78 78 79 79 79
75 76 77 78 77 78 79 80 80 81 81 80 80 80 80 81 81 79 79 79 78 79 79 78 78 78 78 78 78 78 78 78 78 78 78 78 79 79 79 79 79 79
74 74 74 74 74 74 74 76 78 79 80 80 80 80 80 81 81 81 81 80 80 79 79 79 78 78 78 78 78 78 78 78 78 78 78 78 79 79 79 80 80 80
72 72 73 73 72 72 73 74 75 75 76 77 78 80 82 82 82 82 81 80 80 79 79 80 79 79 79 79 78 78 78 78 78 78 78 78 78 79 79 79 79 80
72 72 72 72 72 71 72 73 74 75 76 75 75 76 77 78 79 80 81 81 80 80 79 80 79 80 79 75 75 79 79 79 79 78 78 78 78 78 79 79 80 80
72 72 72 71 71 71 71 72 73 74 74 74 75 75 74 74 76 77 79 81 81 81 81 80 81 82 75 69 69 71 79 79 78 78 78 77 78 77 77 79 79 79
72 72 72 72 72 72 72 72 72 72 72 73 74 74 74 75 75 75 75 77 78 80 81 82 82 77 70 68 68 68 71 79 80 79 80 78 78 78 78 79 79 80
71 71 72 72 72 72 72 72 72 72 72 73 73 74 74 73 73 74 74 75 75 75 77 79 81 75 69 67 66 66 66 72 80 80 80 80 79 78 78 78 78 78
70 71 71 71 71 71 71 71 72 72 72 73 73 73 72 72 73 73 73 73 74 74 74 76 77 74 68 66 64 64 65 67 76 79 79 80 79 79 80 79 78 78
68 68 69 70 71 71 71 71 71 71 72 72 73 72 72 71 71 72 72 73 73 73 74 74 78 69 65 63 62 60 61 66 74 76 78 79 79 80 78 79 79 79
67 67 67 67 68 69 70 70 71 71 71 72 72 72 72 73 72 73 73 73 73 72 72 72 74 65 64 63 61 61 62 70 72 73 74 76 77 78 79 78 79 78
67 67 67 67 67 68 68 68 69 70 71 72 71 71 71 72 72 72 72 72 73 74 73 72 73 68 61 59 58 58 65 71 71 72 73 74 75 76 77 78 78 78
67 67 67 67 67 66 67 67 68 69 71 72 71 71 71 72 72 72 73 73 73 73 72 72 73 65 59 58 57 57 64 71 72 72 73 73 74 75 76 76 77 78
67 67 67 67 66 66 67 67 67 68 70 72 71 71 71 72 72 70 70 70 72 73 74 73 71 67 59 57 57 56 63 71 71 73 73 73 74 74 75 75 76 76
66 66 67 66 66 66 66 66 68 70 70 71 70 70 70 71 71 70 69 69 70 72 72 72 70 69 65 58 55 57 59 70 71 72 71 72 73 73 74 75 76 76

ECMWFNIL_sfc_temp_117.txt.gz
Temp
84 84 85 84 85 85 85 85 86 86 85 86 86 86 85 86 86 86 86 86 86 86 86 85 85 85 87 86 86 86 86 86 87 87 87 87 88 88 89 88 88 88
84 84 84 85 84 84 84 86 85 85 85 85 86 86 86 86 86 86 86 86 86 86 86 86 86 86 86 87 86 86 86 86 86 89 86 86 88 88 89 88 88 88
85 84 85 85 86 85 88 86 86 86 87 87 87 86 87 87 87 86 86 86 86 88 86 86 86 86 86 86 86 86 87 85 85 89 87 86 88 87 88 91 90 89
84 85 87 87 87 87 87 86 85 85 87 86 86 88 88 89 87 87 86 85 86 86 87 87 86 87 86 86 85 86 86 85 87 87 86 87 87 88 88 88 89 90
85 85 86 87 87 86 86 86 87 87 87 87 88 87 86 85 86 87 87 86 85 87 86 86 86 87 86 86 86 85 86 87 87 86 86 86 87 87 89 88 87 88
84 84 85 86 86 85 86 87 87 88 88 89 87 88 88 87 87 88 88 88 89 89 89 89 88 88 88 87 86 86 87 88 89 86 85 85 87 89 90 88 87 86
85 84 85 86 87 86 86 86 87 87 89 90 88 87 88 88 87 87 87 87 89 88 89 87 86 87 87 87 86 85 86 86 86 86 85 86 86 86 88 87 86 86
86 86 86 85 86 86 86 88 87 87 87 87 88 88 88 88 87 89 88 88 88 88 87 88 86 86 88 88 87 86 86 89 87 85 85 85 85 85 86 87 86 85
86 86 86 85 86 87 88 90 89 89 88 87 89 90 88 88 89 89 87 87 87 87 86 87 86 87 88 87 87 86 86 88 89 87 86 86 86 85 86 87 86 86
85 86 87 87 87 87 87 89 90 90 89 88 89 91 90 88 88 89 87 85 86 86 86 86 86 87 88 88 86 86 86 86 86 86 87 87 86 87 88 87 87 86
86 86 86 86 87 88 87 88 89 90 89 89 90 90 90 90 88 88 87 86 87 87 86 86 87 87 87 88 88 88 88 88 87 87 87 87 87 87 86 86 87 87
82 85 86 86 86 87 87 87 88 89 89 89 90 89 89 90 89 89 88 87 87 87 88 87 86 87 86 87 89 89 88 88 88 87 88 88 88 88 88 88 88 87
82 84 85 86 85 86 87 87 88 89 89 89 90 89 89 90 91 89 88 88 87 88 88 87 87 87 86 86 87 88 88 87 88 88 88 88 89 89 90 90 90 90
82 82 82 82 83 83 84 86 87 87 87 87 88 88 89 89 90 90 90 89 89 88 88 88 87 87 86 86 86 87 88 88 87 88 89 89 89 89 90 91 90 91
80 80 81 80 80 80 81 83 83 84 84 85 85 87 89 89 90 90 89 89 89 88 88 88 89 88 88 87 86 86 87 88 87 87 87 87 87 90 90 89 90 91
77 78 78 79 77 77 78 79 82 83 84 84 84 85 85 85 86 87 88 88 88 88 88 89 89 89 85 79 80 87 87 89 88 86 86 87 86 86 89 90 91 92
73 73 75 76 76 75 76 77 78 79 80 80 81 82 82 82 84 85 87 88 88 88 88 90 90 91 79 71 69 71 83 86 86 86 86 86 86 85 85 88 90 90
74 73 73 73 73 74 76 77 77 77 78 78 80 82 81 84 84 83 83 86 87 88 88 89 90 75 68 69 69 67 72 83 87 87 88 87 87 87 87 88 88 90
75 75 74 74 73 74 74 75 76 76 77 78 78 80 81 81 81 82 83 83 84 83 85 86 87 68 66 66 67 66 65 74 86 87 87 88 88 87 87 86 86 87
74 75 74 75 75 74 74 75 75 75 76 77 78 78 78 79 81 81 81 80 81 81 82 84 84 70 63 63 63 64 64 71 85 86 87 87 87 87 88 87 86 85
72 73 73 74 75 74 74 73 73 73 74 75 76 77 77 77 77 78 80 81 83 85 84 85 79 61 60 59 60 62 62 72 85 86 86 86 86 87 85 86 86 87
73 72 71 72 73 74 74 73 72 72 72 73 74 75 77 77 78 79 79 79 79 80 80 78 74 60 59 59 58 60 63 82 83 82 83 85 85 85 85 85 85 85
73 73 72 72 72 73 72 71 72 72 72 73 73 73 74 74 76 76 77 77 77 77 75 73 74 64 58 57 58 59 71 81 81 82 83 84 84 84 84 84 84 84
72 72 71 72 73 74 73 71 72 73 74 75 73 71 70 71 72 73 74 75 76 75 75 74 73 66 56 56 57 59 72 78 79 81 82 82 83 83 83 83 83 80
74 73 73 72 71 71 73 73 73 73 74 74 72 71 70 70 70 70 71 72 74 74 73 73 73 69 57 56 57 58 69 77 78 80 81 82 83 83 84 84 83 82
75 74 74 74 72 72 72 72 73 73 73 73 73 73 72 71 71 70 70 71 74 74 74 73 72 72 65 55 54 56 60 72 74 75 76 78 80 79 80 82 83 84

ECMWFNIL_sfc_temp_120.txt.gz
Temp
89 90 90 89 89 90 89 89 91 90 89 91 91 90 90 90 90 90 91 90 90 90 90 89 89 89 91 90 89 90 90 90 91 91 90 91 92 93 94 93 92 93
89 89 89 90 89 89 89 91 90 90 89 89 91 91 91 91 91 91 90 90 90 90 90 90 90 89 90 91 90 90 89 89 89 94 90 89 91 92 93 93 93 93
90 90 90 91 92 91 93 92 91 91 91 92 92 91 92 93 92 90 90 91 91 92 90 90 90 89 90 90 89 90 90 88 89 92 90 89 91 91 92 95 96 94
89 90 92 93 93 93 93 92 91 91 93 92 92 94 93 96 92 92 90 89 90 90 91 91 90 92 91 90 89 90 90 89 90 89 88 89 90 92 92 93 94 95
90 90 92 93 93 92 92 92 93 93 93 92 94 93 91 90 91 92 91 91 90 91 91 90 91 91 90 89 89 89 90 91 90 89 88 88 89 90 92 93 91 91
90 90 90 91 92 91 93 93 92 94 94 94 93 95 94 92 93 93 93 93 94 94 94 94 92 92 92 90 90 89 91 92 92 89 88 88 90 92 94 92 90 90
91 90 91 92 93 93 92 92 93 93 95 95 94 94 94 94 92 92 92 93 94 93 94 92 90 91 91 90 89 89 89 89 90 89 88 90 89 89 92 91 89 89
92 93 92 92 93 93 92 94 94 93 93 93 94 93 94 94 93 94 93 93 94 93 92 93 90 89 93 92 90 89 90 94 91 89 88 88 89 88 89 92 90 89
93 93 92 92 93 93 95 96 96 94 94 93 95 96 94 94 95 95 92 92 92 91 90 91 90 91 92 92 90 89 89 91 93 91 90 90 90 89 90 91 90 90
91 93 94 94 94 94 94 95 97 96 95 94 96 97 96 94 94 95 92 90 91 90 90 90 90 92 92 92 90 91 90 89 90 91 91 91 91 91 92 91 91 90
92 93 93 93 94 96 95 95 96 97 96 95 96 96 97 96 93 94 92 91 93 91 91 90 91 92 91 93 93 93 92 92 92 91 91 91 91 91 90 91 91 91
89 92 93 93 94 96 96 96 95 95 96 96 96 95 95 96 95 95 94 91 92 92 92 91 91 91 90 91 94 94 93 93 93 92 92 92 93 94 93 93 93 92
88 91 92 93 93 94 96 96 95 96 95 96 96 95 95 96 97 94 94 94 92 93 94 92 91 92 90 91 92 92 93 92 93 93 93 93 94 95 96 96 96 95
88 88 89 90 92 91 92 94 95 95 94 94 95 94 95 96 96 96 96 95 95 94 94 93 92 92 91 90 91 92 93 93 93 93 94 94 95 95 96 97 97 97
87 88 88 88 88 88 89 90 92 92 92 92 91 93 97 96 96 97 95 95 95 94 94 95 95 94 94 92 92 91 92 93 93 93 93 93 93 95 96 96 96 98
86 86 86 86 86 86 86 87 90 90 91 91 92 92 92 92 93 94 95 95 94 93 93 95 96 96 91 86 86 92 93 95 94 92 92 92 92 92 95 96 98 98
83 84 84 84 85 85 84 85 86 87 87 88 89 90 89 89 90 91 93 95 95 94 94 96 97 97 80 75 76 77 88 91 91 90 91 90 92 90 90 93 96 96
79 80 81 82 83 83 83 83 83 83 84 85 87 89 87 90 90 89 90 93 94 95 95 95 95 69 68 69 73 72 77 88 93 93 94 93 93 93 93 94 95 96
77 77 77 78 79 80 81 82 81 81 82 83 84 86 88 87 87 89 89 89 91 90 92 94 92 66 66 66 68 68 68 77 92 93 94 95 94 93 93 92 92 93
79 79 79 79 78 78 77 78 79 80 81 82 83 83 83 84 87 86 87 86 88 88 88 91 87 67 64 64 65 65 66 71 89 92 94 94 93 94 95 94 93 92
79 79 79 79 80 79 79 78 79 79 80 81 82 82 82 81 81 82 84 85 87 89 88 89 78 61 61 61 63 62 64 69 86 92 93 94 94 94 91 93 93 93
76 76 77 78 78 78 77 77 78 78 78 78 79 81 82 82 82 83 83 84 85 86 87 81 75 59 60 60 60 62 63 79 85 86 87 91 92 92 92 91 92 91
78 77 77 77 78 77 77 77 77 77 78 79 79 78 77 78 79 80 81 83 84 83 83 79 76 63 57 58 59 58 70 83 84 86 86 87 90 91 91 91 91 90
78 78 78 78 78 77 78 78 77 76 74 76 77 76 75 76 76 77 79 79 78 77 78 78 75 64 56 56 57 56 70 84 85 84 83 83 87 88 90 89 88 82
79 79 79 79 78 78 78 76 75 75 77 77 76 75 73 72 73 74 74 74 74 75 75 76 75 69 57 55 55 55 68 82 82 83 82 84 86 84 87 87 87 81
79 78 78 77 76 77 78 79 79 79 78 78 79 78 75 72 71 72 72 72 73 73 73 73 72 71 64 54 54 56 56 74 82 82 82 81 81 83 82 84 80 78

ECMWFNIL_sfc_temp_123.txt.gz
Temp
90 90 90 90 90 91 90 90 92 91 90 92 91 89 90 91 92 91 92 91 91 91 91 90 90 90 92 91 91 90 89 92 87 91 92 92 93 94 96 94 94 94
90 90 89 91 90 90 90 92 91 91 89 91 90 92 91 91 92 92 91 91 91 91 91 91 91 90 91 92 90 91 90 90 91 95 91 91 92 93 94 94 95 95
91 91 91 91 92 90 94 93 92 92 93 93 93 92 93 94 93 91 91 91 91 93 91 91 91 90 91 90 89 91 91 89 89 94 91 90 92 92 93 96 97 96
90 91 93 93 93 92 94 92 91 91 92 92 93 95 95 96 93 92 91 91 91 91 92 92 91 92 91 91 90 91 91 89 91 90 89 90 91 93 93 94 95 96
92 92 93 93 93 90 93 94 94 94 94 93 94 93 92 91 92 93 91 91 90 91 91 91 91 92 90 90 90 90 91 92 91 90 89 89 90 91 93 94 92 93
91 91 92 91 92 93 94 94 94 95 94 91 93 94 94 93 94 93 92 93 93 94 94 93 92 93 93 91 90 90 92 93 93 89 89 89 91 93 95 93 92 91
93 92 93 94 95 94 93 93 93 94 95 96 94 94 93 95 93 93 92 93 95 93 94 92 91 91 92 91 90 89 90 90 91 89 89 90 90 90 93 93 91 90
94 94 93 94 95 95 94 94 95 94 95 95 95 94 95 95 94 95 94 94 95 94 93 94 91 90 94 93 90 90 90 94 93 90 89 89 90 89 90 93 92 90
94 94 93 94 95 95 95 97 96 96 95 95 96 96 95 95 96 96 93 93 93 93 92 92 91 92 93 93 91 90 90 92 95 92 90 90 90 90 91 92 91 90
93 94 95 95 95 96 96 97 98 96 96 96 97 98 95 95 95 96 94 91 93 91 91 92 91 92 93 93 92 91 91 90 91 91 92 92 91 92 93 92 92 91
94 95 95 95 96 97 97 97 98 98 97 96 97 97 98 97 94 95 93 92 94 92 92 91 92 93 92 94 93 93 92 93 92 91 92 92 92 92 92 92 92 92
91 94 95 95 96 98 98 97 98 98 98 97 98 96 96 98 96 96 95 92 93 93 93 92 92 93 91 92 95 94 93 93 93 93 93 93 93 94 94 94 93 93
91 94 95 96 95 97 99 98 98 98 98 98 98 97 97 97 97 95 95 95 93 94 95 92 92 93 91 91 93 93 94 93 95 94 94 94 95 96 97 96 96 96
91 92 92 94 95 94 96 99 99 98 97 96 96 96 97 97 97 97 97 96 96 95 95 94 91 92 92 91 92 93 94 94 94 94 94 94 95 95 97 98 98 98
89 90 91 92 93 93 93 94 96 96 96 96 95 96 99 98 98 98 96 96 95 95 94 96 96 95 96 93 92 92 93 94 94 94 94 93 94 96 97 97 97 99
89 89 89 89 89 89 89 91 93 94 96 95 95 95 94 94 95 96 98 96 96 95 95 97 97 98 93 89 88 92 92 94 94 93 93 93 93 93 95 97 99 99
88 87 88 87 88 88 88 88 89 91 91 92 92 93 92 91 94 95 96 98 97 97 95 97 98 95 81 78 79 82 92 93 93 92 93 92 93 91 91 94 96 97
86 86 86 87 87 86 87 87 87 88 88 89 90 92 91 93 93 93 93 96 97 97 97 97 95 70 68 70 73 73 80 90 93 93 95 93 93 93 93 94 94 96
85 85 85 85 85 85 85 86 85 86 86 86 87 89 91 89 89 91 92 92 94 94 96 97 85 67 66 67 67 68 68 80 92 92 93 94 94 94 94 93 93 94
82 82 83 83 84 84 84 84 84 84 85 86 86 86 86 87 90 89 91 90 91 92 92 93 80 67 64 64 66 66 67 74 89 91 92 93 92 94 96 95 94 93
81 81 81 82 81 82 83 83 83 83 83 84 85 84 84 84 82 79 81 85 91 92 91 82 74 61 63 63 63 64 64 73 85 90 92 92 93 94 92 94 93 95
81 81 82 81 80 80 80 81 82 82 83 83 82 82 80 77 77 78 77 78 78 77 74 79 73 59 60 60 60 62 65 82 86 86 87 89 91 92 92 92 89 82
80 81 79 79 76 76 79 80 80 81 82 82 81 82 77 75 76 76 74 74 75 75 74 74 76 63 57 57 59 57 71 84 84 86 87 88 89 90 89 84 81 78
78 78 77 75 75 75 76 80 80 80 80 80 78 74 73 75 77 75 75 75 75 74 75 74 71 64 57 56 57 56 67 81 84 85 85 85 84 86 84 81 81 81
79 78 75 74 75 75 77 78 78 78 78 78 77 77 76 76 75 74 73 74 73 73 74 73 72 68 57 56 55 55 66 79 81 80 80 80 84 82 81 80 78 78
77 76 76 76 75 75 76 76 78 79 79 79 79 81 81 78 76 76 74 73 73 72 72 71 70 70 64 54 54 55 56 71 81 78 76 76 78 79 80 78 78 79